<?xml version="1.0" encoding="UTF-8" standalone="no" ?>
<gpx xmlns="http://www.topografix.com/GPX/1/1" xmlns:xsi="http://www.w3.org/2001/XMLSchema-instance" xsi:schemaLocation="http://www.topografix.com/GPX/1/1 http://www.topografix.com/GPX/1/1/gpx.xsd" version="1.1" creator="VisuGPX - https://www.visugpx.com">
  <metadata>
    <name>Gros Cerveau</name>
    <desc><![CDATA[enchainement de 2 descentes sympa depuis le Gros Cerveau]]></desc>
  </metadata>
  <trk>
    <name><![CDATA[2020-11-29 Gros Cerveau]]></name>
    <trkseg>
      <trkpt lat="43.14792" lon="5.7644">
        <ele>11.06640625</ele>
        <time>2020-11-29T07:50:13Z</time>
      </trkpt>
      <trkpt lat="43.1479" lon="5.7644">
        <ele>11.046875</ele>
        <time>2020-11-29T07:50:28Z</time>
      </trkpt>
      <trkpt lat="43.14791" lon="5.76439">
        <ele>11.046875</ele>
        <time>2020-11-29T07:50:29Z</time>
      </trkpt>
      <trkpt lat="43.14789" lon="5.76439">
        <ele>11.02734375</ele>
        <time>2020-11-29T07:50:48Z</time>
      </trkpt>
      <trkpt lat="43.14791" lon="5.7644">
        <ele>11.05859375</ele>
        <time>2020-11-29T07:51:05Z</time>
      </trkpt>
      <trkpt lat="43.1479" lon="5.7644">
        <ele>11.03515625</ele>
        <time>2020-11-29T07:51:34Z</time>
      </trkpt>
      <trkpt lat="43.14791" lon="5.76439">
        <ele>11.05078125</ele>
        <time>2020-11-29T07:51:47Z</time>
      </trkpt>
      <trkpt lat="43.14791" lon="5.7644">
        <ele>11.05078125</ele>
        <time>2020-11-29T07:51:50Z</time>
      </trkpt>
      <trkpt lat="43.14793" lon="5.76447">
        <ele>11.13671875</ele>
        <time>2020-11-29T07:51:58Z</time>
      </trkpt>
      <trkpt lat="43.14793" lon="5.76447">
        <ele>11.1328125</ele>
        <time>2020-11-29T07:52:09Z</time>
      </trkpt>
      <trkpt lat="43.14792" lon="5.76447">
        <ele>11.109375</ele>
        <time>2020-11-29T07:52:27Z</time>
      </trkpt>
      <trkpt lat="43.14792" lon="5.76448">
        <ele>11.109375</ele>
        <time>2020-11-29T07:53:06Z</time>
      </trkpt>
      <trkpt lat="43.14795" lon="5.76449">
        <ele>11.20703125</ele>
        <time>2020-11-29T07:53:48Z</time>
      </trkpt>
      <trkpt lat="43.14793" lon="5.7645">
        <ele>11.15234375</ele>
        <time>2020-11-29T07:54:34Z</time>
      </trkpt>
      <trkpt lat="43.1479" lon="5.76448">
        <ele>11.07421875</ele>
        <time>2020-11-29T07:55:09Z</time>
      </trkpt>
      <trkpt lat="43.14793" lon="5.76447">
        <ele>11.13671875</ele>
        <time>2020-11-29T07:55:49Z</time>
      </trkpt>
      <trkpt lat="43.14793" lon="5.76446">
        <ele>11.12890625</ele>
        <time>2020-11-29T07:56:30Z</time>
      </trkpt>
      <trkpt lat="43.14791" lon="5.76448">
        <ele>11.1015625</ele>
        <time>2020-11-29T07:56:51Z</time>
      </trkpt>
      <trkpt lat="43.14792" lon="5.76448">
        <ele>11.10546875</ele>
        <time>2020-11-29T07:56:52Z</time>
      </trkpt>
      <trkpt lat="43.14794" lon="5.76447">
        <ele>11.16796875</ele>
        <time>2020-11-29T07:57:26Z</time>
      </trkpt>
      <trkpt lat="43.14793" lon="5.76447">
        <ele>11.1328125</ele>
        <time>2020-11-29T07:58:05Z</time>
      </trkpt>
      <trkpt lat="43.14792" lon="5.76443">
        <ele>11.08984375</ele>
        <time>2020-11-29T07:58:16Z</time>
      </trkpt>
      <trkpt lat="43.14791" lon="5.76441">
        <ele>11.0546875</ele>
        <time>2020-11-29T07:58:26Z</time>
      </trkpt>
      <trkpt lat="43.14781" lon="5.76411">
        <ele>11.8125</ele>
        <time>2020-11-29T07:58:39Z</time>
      </trkpt>
      <trkpt lat="43.1479" lon="5.76379">
        <ele>14.7265625</ele>
        <time>2020-11-29T07:58:51Z</time>
      </trkpt>
      <trkpt lat="43.14824" lon="5.76373">
        <ele>13.47265625</ele>
        <time>2020-11-29T07:59:04Z</time>
      </trkpt>
      <trkpt lat="43.14871" lon="5.76365">
        <ele>13.44140625</ele>
        <time>2020-11-29T07:59:20Z</time>
      </trkpt>
      <trkpt lat="43.14894" lon="5.76391">
        <ele>13.72265625</ele>
        <time>2020-11-29T07:59:29Z</time>
      </trkpt>
      <trkpt lat="43.14895" lon="5.76397">
        <ele>13.76171875</ele>
        <time>2020-11-29T07:59:30Z</time>
      </trkpt>
      <trkpt lat="43.14897" lon="5.76409">
        <ele>13.8984375</ele>
        <time>2020-11-29T07:59:32Z</time>
      </trkpt>
      <trkpt lat="43.14898" lon="5.76416">
        <ele>13.98828125</ele>
        <time>2020-11-29T07:59:33Z</time>
      </trkpt>
      <trkpt lat="43.14901" lon="5.76422">
        <ele>14.1328125</ele>
        <time>2020-11-29T07:59:34Z</time>
      </trkpt>
      <trkpt lat="43.14904" lon="5.76428">
        <ele>14.3984375</ele>
        <time>2020-11-29T07:59:35Z</time>
      </trkpt>
      <trkpt lat="43.14907" lon="5.76433">
        <ele>14.78125</ele>
        <time>2020-11-29T07:59:36Z</time>
      </trkpt>
      <trkpt lat="43.14911" lon="5.76437">
        <ele>15.12890625</ele>
        <time>2020-11-29T07:59:37Z</time>
      </trkpt>
      <trkpt lat="43.14916" lon="5.7644">
        <ele>15.43359375</ele>
        <time>2020-11-29T07:59:38Z</time>
      </trkpt>
      <trkpt lat="43.14921" lon="5.76442">
        <ele>15.71875</ele>
        <time>2020-11-29T07:59:39Z</time>
      </trkpt>
      <trkpt lat="43.14926" lon="5.76444">
        <ele>15.984375</ele>
        <time>2020-11-29T07:59:40Z</time>
      </trkpt>
      <trkpt lat="43.14936" lon="5.76448">
        <ele>16.765625</ele>
        <time>2020-11-29T07:59:42Z</time>
      </trkpt>
      <trkpt lat="43.14941" lon="5.76451">
        <ele>17.08984375</ele>
        <time>2020-11-29T07:59:43Z</time>
      </trkpt>
      <trkpt lat="43.14966" lon="5.76466">
        <ele>19.2734375</ele>
        <time>2020-11-29T07:59:49Z</time>
      </trkpt>
      <trkpt lat="43.1497" lon="5.76468">
        <ele>19.62890625</ele>
        <time>2020-11-29T07:59:50Z</time>
      </trkpt>
      <trkpt lat="43.14996" lon="5.76478">
        <ele>20.93359375</ele>
        <time>2020-11-29T07:59:56Z</time>
      </trkpt>
      <trkpt lat="43.1501" lon="5.76483">
        <ele>21.12890625</ele>
        <time>2020-11-29T07:59:59Z</time>
      </trkpt>
      <trkpt lat="43.15037" lon="5.7649">
        <ele>22.5390625</ele>
        <time>2020-11-29T08:00:05Z</time>
      </trkpt>
      <trkpt lat="43.15041" lon="5.7649">
        <ele>22.515625</ele>
        <time>2020-11-29T08:00:06Z</time>
      </trkpt>
      <trkpt lat="43.1505" lon="5.7649">
        <ele>22.296875</ele>
        <time>2020-11-29T08:00:08Z</time>
      </trkpt>
      <trkpt lat="43.15114" lon="5.76472">
        <ele>21.73046875</ele>
        <time>2020-11-29T08:00:23Z</time>
      </trkpt>
      <trkpt lat="43.15116" lon="5.76475">
        <ele>21.76953125</ele>
        <time>2020-11-29T08:00:24Z</time>
      </trkpt>
      <trkpt lat="43.15118" lon="5.76478">
        <ele>21.8671875</ele>
        <time>2020-11-29T08:00:25Z</time>
      </trkpt>
      <trkpt lat="43.1512" lon="5.76482">
        <ele>21.9921875</ele>
        <time>2020-11-29T08:00:26Z</time>
      </trkpt>
      <trkpt lat="43.1512" lon="5.76486">
        <ele>22.14453125</ele>
        <time>2020-11-29T08:00:27Z</time>
      </trkpt>
      <trkpt lat="43.1512" lon="5.7649">
        <ele>22.28515625</ele>
        <time>2020-11-29T08:00:28Z</time>
      </trkpt>
      <trkpt lat="43.15119" lon="5.76494">
        <ele>22.40234375</ele>
        <time>2020-11-29T08:00:29Z</time>
      </trkpt>
      <trkpt lat="43.15118" lon="5.76534">
        <ele>23.7734375</ele>
        <time>2020-11-29T08:00:40Z</time>
      </trkpt>
      <trkpt lat="43.15118" lon="5.7654">
        <ele>23.98828125</ele>
        <time>2020-11-29T08:00:41Z</time>
      </trkpt>
      <trkpt lat="43.15117" lon="5.76545">
        <ele>24.265625</ele>
        <time>2020-11-29T08:00:42Z</time>
      </trkpt>
      <trkpt lat="43.15118" lon="5.76551">
        <ele>24.515625</ele>
        <time>2020-11-29T08:00:43Z</time>
      </trkpt>
      <trkpt lat="43.15118" lon="5.76554">
        <ele>24.6875</ele>
        <time>2020-11-29T08:00:44Z</time>
      </trkpt>
      <trkpt lat="43.15118" lon="5.76557">
        <ele>24.82421875</ele>
        <time>2020-11-29T08:00:45Z</time>
      </trkpt>
      <trkpt lat="43.15121" lon="5.76571">
        <ele>25.18359375</ele>
        <time>2020-11-29T08:00:49Z</time>
      </trkpt>
      <trkpt lat="43.15125" lon="5.76578">
        <ele>25.3828125</ele>
        <time>2020-11-29T08:00:52Z</time>
      </trkpt>
      <trkpt lat="43.15129" lon="5.76584">
        <ele>25.4921875</ele>
        <time>2020-11-29T08:00:59Z</time>
      </trkpt>
      <trkpt lat="43.15128" lon="5.76579">
        <ele>25.3671875</ele>
        <time>2020-11-29T08:01:03Z</time>
      </trkpt>
      <trkpt lat="43.15128" lon="5.76578">
        <ele>25.3359375</ele>
        <time>2020-11-29T08:01:04Z</time>
      </trkpt>
      <trkpt lat="43.15128" lon="5.76576">
        <ele>25.2890625</ele>
        <time>2020-11-29T08:01:05Z</time>
      </trkpt>
      <trkpt lat="43.15128" lon="5.76574">
        <ele>25.23828125</ele>
        <time>2020-11-29T08:01:06Z</time>
      </trkpt>
      <trkpt lat="43.15125" lon="5.76572">
        <ele>25.20703125</ele>
        <time>2020-11-29T08:01:20Z</time>
      </trkpt>
      <trkpt lat="43.15125" lon="5.76572">
        <ele>25.19140625</ele>
        <time>2020-11-29T08:01:44Z</time>
      </trkpt>
      <trkpt lat="43.15125" lon="5.7657">
        <ele>25.1484375</ele>
        <time>2020-11-29T08:02:08Z</time>
      </trkpt>
      <trkpt lat="43.15126" lon="5.76566">
        <ele>25.01171875</ele>
        <time>2020-11-29T08:02:35Z</time>
      </trkpt>
      <trkpt lat="43.15127" lon="5.76564">
        <ele>24.9375</ele>
        <time>2020-11-29T08:03:05Z</time>
      </trkpt>
      <trkpt lat="43.15127" lon="5.76569">
        <ele>25.09375</ele>
        <time>2020-11-29T08:03:29Z</time>
      </trkpt>
      <trkpt lat="43.15127" lon="5.76568">
        <ele>25.0859375</ele>
        <time>2020-11-29T08:03:55Z</time>
      </trkpt>
      <trkpt lat="43.15128" lon="5.76573">
        <ele>25.2109375</ele>
        <time>2020-11-29T08:04:26Z</time>
      </trkpt>
      <trkpt lat="43.15125" lon="5.76571">
        <ele>25.171875</ele>
        <time>2020-11-29T08:04:51Z</time>
      </trkpt>
      <trkpt lat="43.15129" lon="5.76569">
        <ele>25.09765625</ele>
        <time>2020-11-29T08:05:20Z</time>
      </trkpt>
      <trkpt lat="43.15125" lon="5.76572">
        <ele>25.20703125</ele>
        <time>2020-11-29T08:05:46Z</time>
      </trkpt>
      <trkpt lat="43.15124" lon="5.76577">
        <ele>25.35546875</ele>
        <time>2020-11-29T08:06:04Z</time>
      </trkpt>
      <trkpt lat="43.15141" lon="5.76611">
        <ele>26.91015625</ele>
        <time>2020-11-29T08:06:18Z</time>
      </trkpt>
      <trkpt lat="43.15164" lon="5.7664">
        <ele>26.8984375</ele>
        <time>2020-11-29T08:06:31Z</time>
      </trkpt>
      <trkpt lat="43.15177" lon="5.76678">
        <ele>27.21484375</ele>
        <time>2020-11-29T08:06:42Z</time>
      </trkpt>
      <trkpt lat="43.15179" lon="5.76681">
        <ele>27.58984375</ele>
        <time>2020-11-29T08:06:43Z</time>
      </trkpt>
      <trkpt lat="43.15181" lon="5.76683">
        <ele>27.95703125</ele>
        <time>2020-11-29T08:06:44Z</time>
      </trkpt>
      <trkpt lat="43.15184" lon="5.76685">
        <ele>28.34375</ele>
        <time>2020-11-29T08:06:45Z</time>
      </trkpt>
      <trkpt lat="43.15186" lon="5.76688">
        <ele>28.6953125</ele>
        <time>2020-11-29T08:06:46Z</time>
      </trkpt>
      <trkpt lat="43.15209" lon="5.76705">
        <ele>31.73828125</ele>
        <time>2020-11-29T08:06:56Z</time>
      </trkpt>
      <trkpt lat="43.15211" lon="5.76703">
        <ele>31.99609375</ele>
        <time>2020-11-29T08:06:57Z</time>
      </trkpt>
      <trkpt lat="43.15213" lon="5.767">
        <ele>32.19140625</ele>
        <time>2020-11-29T08:06:58Z</time>
      </trkpt>
      <trkpt lat="43.15215" lon="5.76696">
        <ele>32.3515625</ele>
        <time>2020-11-29T08:06:59Z</time>
      </trkpt>
      <trkpt lat="43.15217" lon="5.76693">
        <ele>32.47265625</ele>
        <time>2020-11-29T08:07:00Z</time>
      </trkpt>
      <trkpt lat="43.15248" lon="5.76632">
        <ele>34.1640625</ele>
        <time>2020-11-29T08:07:16Z</time>
      </trkpt>
      <trkpt lat="43.15285" lon="5.76579">
        <ele>34.5703125</ele>
        <time>2020-11-29T08:07:33Z</time>
      </trkpt>
      <trkpt lat="43.15294" lon="5.76576">
        <ele>35.6015625</ele>
        <time>2020-11-29T08:07:40Z</time>
      </trkpt>
      <trkpt lat="43.15296" lon="5.76574">
        <ele>35.55078125</ele>
        <time>2020-11-29T08:07:41Z</time>
      </trkpt>
      <trkpt lat="43.15301" lon="5.7657">
        <ele>35.58203125</ele>
        <time>2020-11-29T08:07:44Z</time>
      </trkpt>
      <trkpt lat="43.15303" lon="5.7657">
        <ele>35.95703125</ele>
        <time>2020-11-29T08:07:45Z</time>
      </trkpt>
      <trkpt lat="43.15305" lon="5.76571">
        <ele>36.38671875</ele>
        <time>2020-11-29T08:07:46Z</time>
      </trkpt>
      <trkpt lat="43.15307" lon="5.76571">
        <ele>36.74609375</ele>
        <time>2020-11-29T08:07:47Z</time>
      </trkpt>
      <trkpt lat="43.1531" lon="5.76571">
        <ele>37.1015625</ele>
        <time>2020-11-29T08:07:48Z</time>
      </trkpt>
      <trkpt lat="43.15312" lon="5.76571">
        <ele>37.50390625</ele>
        <time>2020-11-29T08:07:49Z</time>
      </trkpt>
      <trkpt lat="43.15314" lon="5.76571">
        <ele>37.8359375</ele>
        <time>2020-11-29T08:07:50Z</time>
      </trkpt>
      <trkpt lat="43.15326" lon="5.76574">
        <ele>39.375</ele>
        <time>2020-11-29T08:07:57Z</time>
      </trkpt>
      <trkpt lat="43.15327" lon="5.76575">
        <ele>39.6640625</ele>
        <time>2020-11-29T08:07:58Z</time>
      </trkpt>
      <trkpt lat="43.15345" lon="5.76587">
        <ele>43</ele>
        <time>2020-11-29T08:08:11Z</time>
      </trkpt>
      <trkpt lat="43.15362" lon="5.76594">
        <ele>46.23828125</ele>
        <time>2020-11-29T08:08:26Z</time>
      </trkpt>
      <trkpt lat="43.1538" lon="5.76599">
        <ele>48.7578125</ele>
        <time>2020-11-29T08:08:40Z</time>
      </trkpt>
      <trkpt lat="43.15387" lon="5.76622">
        <ele>53.2890625</ele>
        <time>2020-11-29T08:08:53Z</time>
      </trkpt>
      <trkpt lat="43.15369" lon="5.76626">
        <ele>52.546875</ele>
        <time>2020-11-29T08:09:06Z</time>
      </trkpt>
      <trkpt lat="43.15352" lon="5.7663">
        <ele>51.30859375</ele>
        <time>2020-11-29T08:09:21Z</time>
      </trkpt>
      <trkpt lat="43.15351" lon="5.76631">
        <ele>51.37109375</ele>
        <time>2020-11-29T08:09:22Z</time>
      </trkpt>
      <trkpt lat="43.15347" lon="5.76639">
        <ele>52.109375</ele>
        <time>2020-11-29T08:09:30Z</time>
      </trkpt>
      <trkpt lat="43.15343" lon="5.76659">
        <ele>54.15625</ele>
        <time>2020-11-29T08:09:45Z</time>
      </trkpt>
      <trkpt lat="43.15343" lon="5.76667">
        <ele>55</ele>
        <time>2020-11-29T08:09:50Z</time>
      </trkpt>
      <trkpt lat="43.15343" lon="5.76668">
        <ele>55.12890625</ele>
        <time>2020-11-29T08:09:51Z</time>
      </trkpt>
      <trkpt lat="43.15343" lon="5.7668">
        <ele>56.4765625</ele>
        <time>2020-11-29T08:09:59Z</time>
      </trkpt>
      <trkpt lat="43.15343" lon="5.76682">
        <ele>56.60546875</ele>
        <time>2020-11-29T08:10:00Z</time>
      </trkpt>
      <trkpt lat="43.15343" lon="5.76684">
        <ele>56.9296875</ele>
        <time>2020-11-29T08:10:02Z</time>
      </trkpt>
      <trkpt lat="43.15345" lon="5.76693">
        <ele>57.9921875</ele>
        <time>2020-11-29T08:10:08Z</time>
      </trkpt>
      <trkpt lat="43.15344" lon="5.76695">
        <ele>58.12890625</ele>
        <time>2020-11-29T08:10:09Z</time>
      </trkpt>
      <trkpt lat="43.15344" lon="5.76697">
        <ele>58.2890625</ele>
        <time>2020-11-29T08:10:10Z</time>
      </trkpt>
      <trkpt lat="43.15344" lon="5.76698">
        <ele>58.46484375</ele>
        <time>2020-11-29T08:10:11Z</time>
      </trkpt>
      <trkpt lat="43.15345" lon="5.76716">
        <ele>60.546875</ele>
        <time>2020-11-29T08:10:26Z</time>
      </trkpt>
      <trkpt lat="43.15347" lon="5.76733">
        <ele>62.68359375</ele>
        <time>2020-11-29T08:10:41Z</time>
      </trkpt>
      <trkpt lat="43.15347" lon="5.76733">
        <ele>62.70703125</ele>
        <time>2020-11-29T08:10:58Z</time>
      </trkpt>
      <trkpt lat="43.15348" lon="5.76739">
        <ele>63.08203125</ele>
        <time>2020-11-29T08:11:02Z</time>
      </trkpt>
      <trkpt lat="43.15349" lon="5.76749">
        <ele>63.67578125</ele>
        <time>2020-11-29T08:11:07Z</time>
      </trkpt>
      <trkpt lat="43.15349" lon="5.76751">
        <ele>63.875</ele>
        <time>2020-11-29T08:11:08Z</time>
      </trkpt>
      <trkpt lat="43.15349" lon="5.76753">
        <ele>64.05078125</ele>
        <time>2020-11-29T08:11:09Z</time>
      </trkpt>
      <trkpt lat="43.15358" lon="5.76782">
        <ele>67.42578125</ele>
        <time>2020-11-29T08:11:24Z</time>
      </trkpt>
      <trkpt lat="43.15366" lon="5.76797">
        <ele>69.71875</ele>
        <time>2020-11-29T08:11:34Z</time>
      </trkpt>
      <trkpt lat="43.15367" lon="5.76798">
        <ele>69.94140625</ele>
        <time>2020-11-29T08:11:35Z</time>
      </trkpt>
      <trkpt lat="43.15368" lon="5.76799">
        <ele>70.19921875</ele>
        <time>2020-11-29T08:11:36Z</time>
      </trkpt>
      <trkpt lat="43.15369" lon="5.768">
        <ele>70.46484375</ele>
        <time>2020-11-29T08:11:37Z</time>
      </trkpt>
      <trkpt lat="43.15369" lon="5.76801">
        <ele>70.6796875</ele>
        <time>2020-11-29T08:11:38Z</time>
      </trkpt>
      <trkpt lat="43.15372" lon="5.76809">
        <ele>71.3125</ele>
        <time>2020-11-29T08:11:52Z</time>
      </trkpt>
      <trkpt lat="43.15374" lon="5.76812">
        <ele>71.59765625</ele>
        <time>2020-11-29T08:11:57Z</time>
      </trkpt>
      <trkpt lat="43.15374" lon="5.76813">
        <ele>71.79296875</ele>
        <time>2020-11-29T08:11:58Z</time>
      </trkpt>
      <trkpt lat="43.15375" lon="5.76815">
        <ele>71.9296875</ele>
        <time>2020-11-29T08:11:59Z</time>
      </trkpt>
      <trkpt lat="43.15375" lon="5.76817">
        <ele>71.96875</ele>
        <time>2020-11-29T08:12:00Z</time>
      </trkpt>
      <trkpt lat="43.15376" lon="5.76819">
        <ele>72.046875</ele>
        <time>2020-11-29T08:12:01Z</time>
      </trkpt>
      <trkpt lat="43.15377" lon="5.7682">
        <ele>72.16796875</ele>
        <time>2020-11-29T08:12:02Z</time>
      </trkpt>
      <trkpt lat="43.15378" lon="5.76822">
        <ele>72.30859375</ele>
        <time>2020-11-29T08:12:03Z</time>
      </trkpt>
      <trkpt lat="43.15383" lon="5.7685">
        <ele>72.34375</ele>
        <time>2020-11-29T08:12:17Z</time>
      </trkpt>
      <trkpt lat="43.15391" lon="5.76886">
        <ele>70.76953125</ele>
        <time>2020-11-29T08:12:31Z</time>
      </trkpt>
      <trkpt lat="43.15404" lon="5.76906">
        <ele>71.26953125</ele>
        <time>2020-11-29T08:12:40Z</time>
      </trkpt>
      <trkpt lat="43.15404" lon="5.76907">
        <ele>71.14453125</ele>
        <time>2020-11-29T08:13:02Z</time>
      </trkpt>
      <trkpt lat="43.15405" lon="5.76907">
        <ele>71.49609375</ele>
        <time>2020-11-29T08:13:21Z</time>
      </trkpt>
      <trkpt lat="43.15404" lon="5.76908">
        <ele>71.12890625</ele>
        <time>2020-11-29T08:13:36Z</time>
      </trkpt>
      <trkpt lat="43.15414" lon="5.76922">
        <ele>72.76171875</ele>
        <time>2020-11-29T08:13:49Z</time>
      </trkpt>
      <trkpt lat="43.15417" lon="5.76926">
        <ele>73.33984375</ele>
        <time>2020-11-29T08:13:50Z</time>
      </trkpt>
      <trkpt lat="43.15422" lon="5.76936">
        <ele>75.453125</ele>
        <time>2020-11-29T08:13:52Z</time>
      </trkpt>
      <trkpt lat="43.15423" lon="5.76941">
        <ele>76.2890625</ele>
        <time>2020-11-29T08:13:53Z</time>
      </trkpt>
      <trkpt lat="43.15425" lon="5.76946">
        <ele>76.98828125</ele>
        <time>2020-11-29T08:13:54Z</time>
      </trkpt>
      <trkpt lat="43.15424" lon="5.76994">
        <ele>81.203125</ele>
        <time>2020-11-29T08:14:07Z</time>
      </trkpt>
      <trkpt lat="43.1542" lon="5.77043">
        <ele>81.70703125</ele>
        <time>2020-11-29T08:14:22Z</time>
      </trkpt>
      <trkpt lat="43.15419" lon="5.77058">
        <ele>81.359375</ele>
        <time>2020-11-29T08:14:28Z</time>
      </trkpt>
      <trkpt lat="43.15419" lon="5.7706">
        <ele>81.359375</ele>
        <time>2020-11-29T08:14:29Z</time>
      </trkpt>
      <trkpt lat="43.15419" lon="5.77062">
        <ele>81.3515625</ele>
        <time>2020-11-29T08:14:30Z</time>
      </trkpt>
      <trkpt lat="43.15418" lon="5.77064">
        <ele>81.2890625</ele>
        <time>2020-11-29T08:14:31Z</time>
      </trkpt>
      <trkpt lat="43.15418" lon="5.77066">
        <ele>81.234375</ele>
        <time>2020-11-29T08:14:32Z</time>
      </trkpt>
      <trkpt lat="43.15418" lon="5.77094">
        <ele>78.55859375</ele>
        <time>2020-11-29T08:14:47Z</time>
      </trkpt>
      <trkpt lat="43.15434" lon="5.7711">
        <ele>81.83203125</ele>
        <time>2020-11-29T08:15:05Z</time>
      </trkpt>
      <trkpt lat="43.15456" lon="5.77102">
        <ele>86.7734375</ele>
        <time>2020-11-29T08:15:22Z</time>
      </trkpt>
      <trkpt lat="43.15475" lon="5.77088">
        <ele>90.8359375</ele>
        <time>2020-11-29T08:15:35Z</time>
      </trkpt>
      <trkpt lat="43.15478" lon="5.77087">
        <ele>91.66015625</ele>
        <time>2020-11-29T08:15:37Z</time>
      </trkpt>
      <trkpt lat="43.15482" lon="5.77088">
        <ele>92.36328125</ele>
        <time>2020-11-29T08:15:39Z</time>
      </trkpt>
      <trkpt lat="43.15489" lon="5.77096">
        <ele>93.98046875</ele>
        <time>2020-11-29T08:15:51Z</time>
      </trkpt>
      <trkpt lat="43.15488" lon="5.77098">
        <ele>93.9921875</ele>
        <time>2020-11-29T08:16:08Z</time>
      </trkpt>
      <trkpt lat="43.1549" lon="5.77096">
        <ele>94.15234375</ele>
        <time>2020-11-29T08:16:25Z</time>
      </trkpt>
      <trkpt lat="43.15491" lon="5.77104">
        <ele>95.1328125</ele>
        <time>2020-11-29T08:16:35Z</time>
      </trkpt>
      <trkpt lat="43.15492" lon="5.77106">
        <ele>95.3125</ele>
        <time>2020-11-29T08:16:36Z</time>
      </trkpt>
      <trkpt lat="43.15492" lon="5.77108">
        <ele>95.54296875</ele>
        <time>2020-11-29T08:16:37Z</time>
      </trkpt>
      <trkpt lat="43.15493" lon="5.77109">
        <ele>95.72265625</ele>
        <time>2020-11-29T08:16:38Z</time>
      </trkpt>
      <trkpt lat="43.15493" lon="5.77111">
        <ele>95.84765625</ele>
        <time>2020-11-29T08:16:39Z</time>
      </trkpt>
      <trkpt lat="43.15493" lon="5.77113">
        <ele>95.9921875</ele>
        <time>2020-11-29T08:16:40Z</time>
      </trkpt>
      <trkpt lat="43.15493" lon="5.77115">
        <ele>96.125</ele>
        <time>2020-11-29T08:16:41Z</time>
      </trkpt>
      <trkpt lat="43.15486" lon="5.77151">
        <ele>99.6484375</ele>
        <time>2020-11-29T08:16:56Z</time>
      </trkpt>
      <trkpt lat="43.15481" lon="5.77172">
        <ele>103.04296875</ele>
        <time>2020-11-29T08:17:06Z</time>
      </trkpt>
      <trkpt lat="43.15477" lon="5.77208">
        <ele>109.98046875</ele>
        <time>2020-11-29T08:17:22Z</time>
      </trkpt>
      <trkpt lat="43.15466" lon="5.7725">
        <ele>114.2265625</ele>
        <time>2020-11-29T08:17:41Z</time>
      </trkpt>
      <trkpt lat="43.15456" lon="5.77286">
        <ele>116.09765625</ele>
        <time>2020-11-29T08:17:57Z</time>
      </trkpt>
      <trkpt lat="43.15444" lon="5.77326">
        <ele>118.1328125</ele>
        <time>2020-11-29T08:18:13Z</time>
      </trkpt>
      <trkpt lat="43.15436" lon="5.77356">
        <ele>120.234375</ele>
        <time>2020-11-29T08:18:27Z</time>
      </trkpt>
      <trkpt lat="43.15428" lon="5.77392">
        <ele>123.53125</ele>
        <time>2020-11-29T08:18:44Z</time>
      </trkpt>
      <trkpt lat="43.15418" lon="5.77428">
        <ele>125.609375</ele>
        <time>2020-11-29T08:19:01Z</time>
      </trkpt>
      <trkpt lat="43.15411" lon="5.77458">
        <ele>128.05859375</ele>
        <time>2020-11-29T08:19:14Z</time>
      </trkpt>
      <trkpt lat="43.15405" lon="5.77481">
        <ele>129.3828125</ele>
        <time>2020-11-29T08:19:25Z</time>
      </trkpt>
      <trkpt lat="43.15399" lon="5.7751">
        <ele>128.2421875</ele>
        <time>2020-11-29T08:19:39Z</time>
      </trkpt>
      <trkpt lat="43.15399" lon="5.7754">
        <ele>127.6796875</ele>
        <time>2020-11-29T08:19:54Z</time>
      </trkpt>
      <trkpt lat="43.15417" lon="5.77566">
        <ele>132.94140625</ele>
        <time>2020-11-29T08:20:10Z</time>
      </trkpt>
      <trkpt lat="43.15419" lon="5.77567">
        <ele>133.60546875</ele>
        <time>2020-11-29T08:20:11Z</time>
      </trkpt>
      <trkpt lat="43.1542" lon="5.77567">
        <ele>134.265625</ele>
        <time>2020-11-29T08:20:12Z</time>
      </trkpt>
      <trkpt lat="43.15427" lon="5.77566">
        <ele>137.19921875</ele>
        <time>2020-11-29T08:20:16Z</time>
      </trkpt>
      <trkpt lat="43.15426" lon="5.77556">
        <ele>137.515625</ele>
        <time>2020-11-29T08:20:21Z</time>
      </trkpt>
      <trkpt lat="43.15422" lon="5.77544">
        <ele>136.921875</ele>
        <time>2020-11-29T08:20:26Z</time>
      </trkpt>
      <trkpt lat="43.15423" lon="5.77538">
        <ele>137.58984375</ele>
        <time>2020-11-29T08:20:28Z</time>
      </trkpt>
      <trkpt lat="43.15424" lon="5.77535">
        <ele>138.15234375</ele>
        <time>2020-11-29T08:20:29Z</time>
      </trkpt>
      <trkpt lat="43.15427" lon="5.77534">
        <ele>139.0390625</ele>
        <time>2020-11-29T08:20:30Z</time>
      </trkpt>
      <trkpt lat="43.15429" lon="5.77535">
        <ele>140.27734375</ele>
        <time>2020-11-29T08:20:31Z</time>
      </trkpt>
      <trkpt lat="43.15431" lon="5.77537">
        <ele>141.21484375</ele>
        <time>2020-11-29T08:20:32Z</time>
      </trkpt>
      <trkpt lat="43.15432" lon="5.77539">
        <ele>141.796875</ele>
        <time>2020-11-29T08:20:33Z</time>
      </trkpt>
      <trkpt lat="43.15433" lon="5.77541">
        <ele>142.1015625</ele>
        <time>2020-11-29T08:20:34Z</time>
      </trkpt>
      <trkpt lat="43.15434" lon="5.77544">
        <ele>142.23828125</ele>
        <time>2020-11-29T08:20:35Z</time>
      </trkpt>
      <trkpt lat="43.15435" lon="5.77547">
        <ele>142.32421875</ele>
        <time>2020-11-29T08:20:36Z</time>
      </trkpt>
      <trkpt lat="43.15435" lon="5.77549">
        <ele>142.4140625</ele>
        <time>2020-11-29T08:20:37Z</time>
      </trkpt>
      <trkpt lat="43.15436" lon="5.77552">
        <ele>142.68359375</ele>
        <time>2020-11-29T08:20:38Z</time>
      </trkpt>
      <trkpt lat="43.15437" lon="5.77554">
        <ele>142.8828125</ele>
        <time>2020-11-29T08:20:39Z</time>
      </trkpt>
      <trkpt lat="43.1545" lon="5.77588">
        <ele>148.69921875</ele>
        <time>2020-11-29T08:20:55Z</time>
      </trkpt>
      <trkpt lat="43.15456" lon="5.77622">
        <ele>152.08203125</ele>
        <time>2020-11-29T08:21:10Z</time>
      </trkpt>
      <trkpt lat="43.15463" lon="5.77666">
        <ele>156.38671875</ele>
        <time>2020-11-29T08:21:28Z</time>
      </trkpt>
      <trkpt lat="43.15464" lon="5.77705">
        <ele>155.49609375</ele>
        <time>2020-11-29T08:21:44Z</time>
      </trkpt>
      <trkpt lat="43.15468" lon="5.77738">
        <ele>157.26171875</ele>
        <time>2020-11-29T08:21:58Z</time>
      </trkpt>
      <trkpt lat="43.1548" lon="5.77768">
        <ele>161.625</ele>
        <time>2020-11-29T08:22:12Z</time>
      </trkpt>
      <trkpt lat="43.15485" lon="5.77806">
        <ele>162.2265625</ele>
        <time>2020-11-29T08:22:28Z</time>
      </trkpt>
      <trkpt lat="43.1549" lon="5.77842">
        <ele>159</ele>
        <time>2020-11-29T08:22:43Z</time>
      </trkpt>
      <trkpt lat="43.15492" lon="5.77845">
        <ele>159.26953125</ele>
        <time>2020-11-29T08:22:59Z</time>
      </trkpt>
      <trkpt lat="43.155" lon="5.77865">
        <ele>158.21484375</ele>
        <time>2020-11-29T08:23:07Z</time>
      </trkpt>
      <trkpt lat="43.15524" lon="5.77885">
        <ele>159.3984375</ele>
        <time>2020-11-29T08:23:19Z</time>
      </trkpt>
      <trkpt lat="43.15554" lon="5.77909">
        <ele>158.91796875</ele>
        <time>2020-11-29T08:23:37Z</time>
      </trkpt>
      <trkpt lat="43.15585" lon="5.7793">
        <ele>159.1875</ele>
        <time>2020-11-29T08:23:54Z</time>
      </trkpt>
      <trkpt lat="43.15614" lon="5.77925">
        <ele>164.01171875</ele>
        <time>2020-11-29T08:24:10Z</time>
      </trkpt>
      <trkpt lat="43.15644" lon="5.77902">
        <ele>169.515625</ele>
        <time>2020-11-29T08:24:27Z</time>
      </trkpt>
      <trkpt lat="43.15674" lon="5.77897">
        <ele>175.46484375</ele>
        <time>2020-11-29T08:24:43Z</time>
      </trkpt>
      <trkpt lat="43.15706" lon="5.77877">
        <ele>181.58203125</ele>
        <time>2020-11-29T08:25:00Z</time>
      </trkpt>
      <trkpt lat="43.15721" lon="5.7787">
        <ele>185.484375</ele>
        <time>2020-11-29T08:25:08Z</time>
      </trkpt>
      <trkpt lat="43.15723" lon="5.77871">
        <ele>186.35546875</ele>
        <time>2020-11-29T08:25:09Z</time>
      </trkpt>
      <trkpt lat="43.15725" lon="5.77873">
        <ele>187.29296875</ele>
        <time>2020-11-29T08:25:10Z</time>
      </trkpt>
      <trkpt lat="43.15727" lon="5.77874">
        <ele>188.28515625</ele>
        <time>2020-11-29T08:25:11Z</time>
      </trkpt>
      <trkpt lat="43.15728" lon="5.77877">
        <ele>189.28515625</ele>
        <time>2020-11-29T08:25:12Z</time>
      </trkpt>
      <trkpt lat="43.1573" lon="5.77879">
        <ele>190.21484375</ele>
        <time>2020-11-29T08:25:13Z</time>
      </trkpt>
      <trkpt lat="43.1573" lon="5.77882">
        <ele>190.9296875</ele>
        <time>2020-11-29T08:25:14Z</time>
      </trkpt>
      <trkpt lat="43.1573" lon="5.77885">
        <ele>191.55859375</ele>
        <time>2020-11-29T08:25:15Z</time>
      </trkpt>
      <trkpt lat="43.1573" lon="5.77888">
        <ele>192.1015625</ele>
        <time>2020-11-29T08:25:16Z</time>
      </trkpt>
      <trkpt lat="43.15729" lon="5.77891">
        <ele>192.58203125</ele>
        <time>2020-11-29T08:25:17Z</time>
      </trkpt>
      <trkpt lat="43.15729" lon="5.77894">
        <ele>193.01171875</ele>
        <time>2020-11-29T08:25:18Z</time>
      </trkpt>
      <trkpt lat="43.15716" lon="5.77945">
        <ele>197.7421875</ele>
        <time>2020-11-29T08:25:36Z</time>
      </trkpt>
      <trkpt lat="43.15697" lon="5.77991">
        <ele>195.5390625</ele>
        <time>2020-11-29T08:25:52Z</time>
      </trkpt>
      <trkpt lat="43.15674" lon="5.78029">
        <ele>188.63671875</ele>
        <time>2020-11-29T08:26:07Z</time>
      </trkpt>
      <trkpt lat="43.15673" lon="5.78031">
        <ele>188.31640625</ele>
        <time>2020-11-29T08:26:08Z</time>
      </trkpt>
      <trkpt lat="43.15672" lon="5.78038">
        <ele>187.90625</ele>
        <time>2020-11-29T08:26:11Z</time>
      </trkpt>
      <trkpt lat="43.15679" lon="5.78063">
        <ele>186.203125</ele>
        <time>2020-11-29T08:26:25Z</time>
      </trkpt>
      <trkpt lat="43.15678" lon="5.78064">
        <ele>185.69140625</ele>
        <time>2020-11-29T08:26:31Z</time>
      </trkpt>
      <trkpt lat="43.15677" lon="5.78063">
        <ele>185.44921875</ele>
        <time>2020-11-29T08:26:32Z</time>
      </trkpt>
      <trkpt lat="43.15676" lon="5.78061">
        <ele>185.41015625</ele>
        <time>2020-11-29T08:26:33Z</time>
      </trkpt>
      <trkpt lat="43.15676" lon="5.78059">
        <ele>185.65234375</ele>
        <time>2020-11-29T08:26:34Z</time>
      </trkpt>
      <trkpt lat="43.15678" lon="5.78055">
        <ele>186.828125</ele>
        <time>2020-11-29T08:26:47Z</time>
      </trkpt>
      <trkpt lat="43.15679" lon="5.78055">
        <ele>187.31640625</ele>
        <time>2020-11-29T08:27:18Z</time>
      </trkpt>
      <trkpt lat="43.1568" lon="5.78058">
        <ele>187.04296875</ele>
        <time>2020-11-29T08:27:54Z</time>
      </trkpt>
      <trkpt lat="43.15679" lon="5.78059">
        <ele>186.765625</ele>
        <time>2020-11-29T08:28:24Z</time>
      </trkpt>
      <trkpt lat="43.1568" lon="5.78056">
        <ele>187.4375</ele>
        <time>2020-11-29T08:28:57Z</time>
      </trkpt>
      <trkpt lat="43.15682" lon="5.78055">
        <ele>188.22265625</ele>
        <time>2020-11-29T08:29:33Z</time>
      </trkpt>
      <trkpt lat="43.1568" lon="5.78054">
        <ele>187.58203125</ele>
        <time>2020-11-29T08:30:15Z</time>
      </trkpt>
      <trkpt lat="43.15679" lon="5.78054">
        <ele>187.4921875</ele>
        <time>2020-11-29T08:30:41Z</time>
      </trkpt>
      <trkpt lat="43.15679" lon="5.78057">
        <ele>186.8671875</ele>
        <time>2020-11-29T08:31:12Z</time>
      </trkpt>
      <trkpt lat="43.15677" lon="5.78058">
        <ele>186.36328125</ele>
        <time>2020-11-29T08:31:44Z</time>
      </trkpt>
      <trkpt lat="43.15679" lon="5.78054">
        <ele>187.32421875</ele>
        <time>2020-11-29T08:32:08Z</time>
      </trkpt>
      <trkpt lat="43.1568" lon="5.78053">
        <ele>187.671875</ele>
        <time>2020-11-29T08:32:09Z</time>
      </trkpt>
      <trkpt lat="43.1568" lon="5.78052">
        <ele>188.140625</ele>
        <time>2020-11-29T08:32:10Z</time>
      </trkpt>
      <trkpt lat="43.15681" lon="5.78049">
        <ele>188.6640625</ele>
        <time>2020-11-29T08:32:11Z</time>
      </trkpt>
      <trkpt lat="43.15682" lon="5.78047">
        <ele>189.26171875</ele>
        <time>2020-11-29T08:32:12Z</time>
      </trkpt>
      <trkpt lat="43.15683" lon="5.78045">
        <ele>189.87109375</ele>
        <time>2020-11-29T08:32:13Z</time>
      </trkpt>
      <trkpt lat="43.15698" lon="5.78024">
        <ele>196.9140625</ele>
        <time>2020-11-29T08:32:26Z</time>
      </trkpt>
      <trkpt lat="43.15717" lon="5.77997">
        <ele>204.56640625</ele>
        <time>2020-11-29T08:32:42Z</time>
      </trkpt>
      <trkpt lat="43.15738" lon="5.77971">
        <ele>210.72265625</ele>
        <time>2020-11-29T08:32:58Z</time>
      </trkpt>
      <trkpt lat="43.15755" lon="5.77945">
        <ele>212.5546875</ele>
        <time>2020-11-29T08:33:13Z</time>
      </trkpt>
      <trkpt lat="43.15771" lon="5.77917">
        <ele>211.7578125</ele>
        <time>2020-11-29T08:33:29Z</time>
      </trkpt>
      <trkpt lat="43.15791" lon="5.77894">
        <ele>212.0390625</ele>
        <time>2020-11-29T08:33:44Z</time>
      </trkpt>
      <trkpt lat="43.15816" lon="5.77884">
        <ele>216.13671875</ele>
        <time>2020-11-29T08:33:59Z</time>
      </trkpt>
      <trkpt lat="43.15841" lon="5.77868">
        <ele>219.5859375</ele>
        <time>2020-11-29T08:34:14Z</time>
      </trkpt>
      <trkpt lat="43.15842" lon="5.7786">
        <ele>219.7265625</ele>
        <time>2020-11-29T08:34:17Z</time>
      </trkpt>
      <trkpt lat="43.15841" lon="5.77857">
        <ele>219.5625</ele>
        <time>2020-11-29T08:34:18Z</time>
      </trkpt>
      <trkpt lat="43.15841" lon="5.77855">
        <ele>219.43359375</ele>
        <time>2020-11-29T08:34:19Z</time>
      </trkpt>
      <trkpt lat="43.1584" lon="5.77852">
        <ele>219.22265625</ele>
        <time>2020-11-29T08:34:20Z</time>
      </trkpt>
      <trkpt lat="43.15839" lon="5.77849">
        <ele>218.93359375</ele>
        <time>2020-11-29T08:34:21Z</time>
      </trkpt>
      <trkpt lat="43.1583" lon="5.77814">
        <ele>217.66796875</ele>
        <time>2020-11-29T08:34:35Z</time>
      </trkpt>
      <trkpt lat="43.15822" lon="5.77773">
        <ele>221.43359375</ele>
        <time>2020-11-29T08:34:50Z</time>
      </trkpt>
      <trkpt lat="43.158" lon="5.7776">
        <ele>215.34375</ele>
        <time>2020-11-29T08:35:02Z</time>
      </trkpt>
      <trkpt lat="43.15772" lon="5.77738">
        <ele>214.44140625</ele>
        <time>2020-11-29T08:35:17Z</time>
      </trkpt>
      <trkpt lat="43.15729" lon="5.77729">
        <ele>213.79296875</ele>
        <time>2020-11-29T08:35:37Z</time>
      </trkpt>
      <trkpt lat="43.15703" lon="5.77733">
        <ele>212.56640625</ele>
        <time>2020-11-29T08:35:49Z</time>
      </trkpt>
      <trkpt lat="43.15669" lon="5.77738">
        <ele>214.32421875</ele>
        <time>2020-11-29T08:36:06Z</time>
      </trkpt>
      <trkpt lat="43.15647" lon="5.77716">
        <ele>222.81640625</ele>
        <time>2020-11-29T08:36:20Z</time>
      </trkpt>
      <trkpt lat="43.15646" lon="5.77684">
        <ele>230.75390625</ele>
        <time>2020-11-29T08:36:32Z</time>
      </trkpt>
      <trkpt lat="43.15652" lon="5.77642">
        <ele>234.12890625</ele>
        <time>2020-11-29T08:36:48Z</time>
      </trkpt>
      <trkpt lat="43.15655" lon="5.77637">
        <ele>234.2578125</ele>
        <time>2020-11-29T08:36:51Z</time>
      </trkpt>
      <trkpt lat="43.15657" lon="5.77636">
        <ele>234.32421875</ele>
        <time>2020-11-29T08:36:52Z</time>
      </trkpt>
      <trkpt lat="43.15659" lon="5.77635">
        <ele>234.3984375</ele>
        <time>2020-11-29T08:36:53Z</time>
      </trkpt>
      <trkpt lat="43.15661" lon="5.77635">
        <ele>234.47265625</ele>
        <time>2020-11-29T08:36:54Z</time>
      </trkpt>
      <trkpt lat="43.15663" lon="5.77636">
        <ele>234.54296875</ele>
        <time>2020-11-29T08:36:55Z</time>
      </trkpt>
      <trkpt lat="43.15665" lon="5.77637">
        <ele>234.6171875</ele>
        <time>2020-11-29T08:36:56Z</time>
      </trkpt>
      <trkpt lat="43.15668" lon="5.77638">
        <ele>234.69140625</ele>
        <time>2020-11-29T08:36:57Z</time>
      </trkpt>
      <trkpt lat="43.1567" lon="5.77638">
        <ele>234.765625</ele>
        <time>2020-11-29T08:36:58Z</time>
      </trkpt>
      <trkpt lat="43.15671" lon="5.7764">
        <ele>234.83203125</ele>
        <time>2020-11-29T08:36:59Z</time>
      </trkpt>
      <trkpt lat="43.15673" lon="5.77641">
        <ele>234.890625</ele>
        <time>2020-11-29T08:37:00Z</time>
      </trkpt>
      <trkpt lat="43.15674" lon="5.77643">
        <ele>234.93359375</ele>
        <time>2020-11-29T08:37:01Z</time>
      </trkpt>
      <trkpt lat="43.15675" lon="5.77646">
        <ele>234.97265625</ele>
        <time>2020-11-29T08:37:02Z</time>
      </trkpt>
      <trkpt lat="43.15676" lon="5.77649">
        <ele>234.94921875</ele>
        <time>2020-11-29T08:37:03Z</time>
      </trkpt>
      <trkpt lat="43.15694" lon="5.77689">
        <ele>228.0859375</ele>
        <time>2020-11-29T08:37:16Z</time>
      </trkpt>
      <trkpt lat="43.15732" lon="5.77686">
        <ele>228.3515625</ele>
        <time>2020-11-29T08:37:29Z</time>
      </trkpt>
      <trkpt lat="43.15766" lon="5.77662">
        <ele>235.98828125</ele>
        <time>2020-11-29T08:37:44Z</time>
      </trkpt>
      <trkpt lat="43.15792" lon="5.77664">
        <ele>237.8671875</ele>
        <time>2020-11-29T08:37:57Z</time>
      </trkpt>
      <trkpt lat="43.15822" lon="5.77653">
        <ele>245.51953125</ele>
        <time>2020-11-29T08:38:12Z</time>
      </trkpt>
      <trkpt lat="43.15858" lon="5.77666">
        <ele>251.8359375</ele>
        <time>2020-11-29T08:38:30Z</time>
      </trkpt>
      <trkpt lat="43.15887" lon="5.7769">
        <ele>258.4296875</ele>
        <time>2020-11-29T08:38:45Z</time>
      </trkpt>
      <trkpt lat="43.15912" lon="5.77738">
        <ele>260.96484375</ele>
        <time>2020-11-29T08:39:05Z</time>
      </trkpt>
      <trkpt lat="43.15934" lon="5.77782">
        <ele>261.1796875</ele>
        <time>2020-11-29T08:39:22Z</time>
      </trkpt>
      <trkpt lat="43.15959" lon="5.77812">
        <ele>262.97265625</ele>
        <time>2020-11-29T08:39:37Z</time>
      </trkpt>
      <trkpt lat="43.15986" lon="5.77832">
        <ele>265.921875</ele>
        <time>2020-11-29T08:39:52Z</time>
      </trkpt>
      <trkpt lat="43.16014" lon="5.77852">
        <ele>270.4609375</ele>
        <time>2020-11-29T08:40:08Z</time>
      </trkpt>
      <trkpt lat="43.16041" lon="5.77873">
        <ele>276.3359375</ele>
        <time>2020-11-29T08:40:25Z</time>
      </trkpt>
      <trkpt lat="43.16065" lon="5.77895">
        <ele>283.2265625</ele>
        <time>2020-11-29T08:40:41Z</time>
      </trkpt>
      <trkpt lat="43.16081" lon="5.7793">
        <ele>288.93359375</ele>
        <time>2020-11-29T08:40:56Z</time>
      </trkpt>
      <trkpt lat="43.16073" lon="5.77978">
        <ele>290.87890625</ele>
        <time>2020-11-29T08:41:14Z</time>
      </trkpt>
      <trkpt lat="43.16062" lon="5.78012">
        <ele>290.0390625</ele>
        <time>2020-11-29T08:41:28Z</time>
      </trkpt>
      <trkpt lat="43.16066" lon="5.78021">
        <ele>289.453125</ele>
        <time>2020-11-29T08:41:38Z</time>
      </trkpt>
      <trkpt lat="43.1607" lon="5.7802">
        <ele>290.33984375</ele>
        <time>2020-11-29T08:41:54Z</time>
      </trkpt>
      <trkpt lat="43.16069" lon="5.7802">
        <ele>290.16015625</ele>
        <time>2020-11-29T08:42:19Z</time>
      </trkpt>
      <trkpt lat="43.16069" lon="5.78019">
        <ele>290.31640625</ele>
        <time>2020-11-29T08:42:45Z</time>
      </trkpt>
      <trkpt lat="43.16069" lon="5.7802">
        <ele>290.3359375</ele>
        <time>2020-11-29T08:43:08Z</time>
      </trkpt>
      <trkpt lat="43.16068" lon="5.7802">
        <ele>290.10546875</ele>
        <time>2020-11-29T08:43:39Z</time>
      </trkpt>
      <trkpt lat="43.16069" lon="5.7802">
        <ele>290.20703125</ele>
        <time>2020-11-29T08:44:17Z</time>
      </trkpt>
      <trkpt lat="43.16069" lon="5.78018">
        <ele>290.6171875</ele>
        <time>2020-11-29T08:44:42Z</time>
      </trkpt>
      <trkpt lat="43.1607" lon="5.78017">
        <ele>290.80859375</ele>
        <time>2020-11-29T08:45:05Z</time>
      </trkpt>
      <trkpt lat="43.16071" lon="5.78019">
        <ele>290.75390625</ele>
        <time>2020-11-29T08:45:32Z</time>
      </trkpt>
      <trkpt lat="43.1607" lon="5.7802">
        <ele>290.3046875</ele>
        <time>2020-11-29T08:45:59Z</time>
      </trkpt>
      <trkpt lat="43.16065" lon="5.78022">
        <ele>289.1484375</ele>
        <time>2020-11-29T08:46:27Z</time>
      </trkpt>
      <trkpt lat="43.16067" lon="5.78021">
        <ele>289.60546875</ele>
        <time>2020-11-29T08:46:46Z</time>
      </trkpt>
      <trkpt lat="43.1607" lon="5.78019">
        <ele>290.55859375</ele>
        <time>2020-11-29T08:47:03Z</time>
      </trkpt>
      <trkpt lat="43.16071" lon="5.78018">
        <ele>290.90234375</ele>
        <time>2020-11-29T08:47:04Z</time>
      </trkpt>
      <trkpt lat="43.16083" lon="5.78001">
        <ele>294.56640625</ele>
        <time>2020-11-29T08:47:16Z</time>
      </trkpt>
      <trkpt lat="43.16104" lon="5.77975">
        <ele>296.83203125</ele>
        <time>2020-11-29T08:47:35Z</time>
      </trkpt>
      <trkpt lat="43.16112" lon="5.77964">
        <ele>297.5625</ele>
        <time>2020-11-29T08:47:49Z</time>
      </trkpt>
      <trkpt lat="43.16115" lon="5.77956">
        <ele>297.8828125</ele>
        <time>2020-11-29T08:48:09Z</time>
      </trkpt>
      <trkpt lat="43.16125" lon="5.77937">
        <ele>297.15234375</ele>
        <time>2020-11-29T08:48:16Z</time>
      </trkpt>
      <trkpt lat="43.16123" lon="5.77891">
        <ele>298.6953125</ele>
        <time>2020-11-29T08:48:27Z</time>
      </trkpt>
      <trkpt lat="43.16115" lon="5.77867">
        <ele>298.8984375</ele>
        <time>2020-11-29T08:48:38Z</time>
      </trkpt>
      <trkpt lat="43.16114" lon="5.77867">
        <ele>298.5390625</ele>
        <time>2020-11-29T08:48:39Z</time>
      </trkpt>
      <trkpt lat="43.16112" lon="5.77865">
        <ele>298.24609375</ele>
        <time>2020-11-29T08:48:40Z</time>
      </trkpt>
      <trkpt lat="43.16112" lon="5.77861">
        <ele>298.2890625</ele>
        <time>2020-11-29T08:48:49Z</time>
      </trkpt>
      <trkpt lat="43.16107" lon="5.77856">
        <ele>297.35546875</ele>
        <time>2020-11-29T08:49:26Z</time>
      </trkpt>
      <trkpt lat="43.16105" lon="5.77857">
        <ele>296.94140625</ele>
        <time>2020-11-29T08:49:39Z</time>
      </trkpt>
      <trkpt lat="43.16106" lon="5.77859">
        <ele>297.0625</ele>
        <time>2020-11-29T08:50:18Z</time>
      </trkpt>
      <trkpt lat="43.16109" lon="5.77859">
        <ele>297.7890625</ele>
        <time>2020-11-29T08:50:42Z</time>
      </trkpt>
      <trkpt lat="43.16111" lon="5.77857">
        <ele>298.2265625</ele>
        <time>2020-11-29T08:50:45Z</time>
      </trkpt>
      <trkpt lat="43.1611" lon="5.77854">
        <ele>298.3359375</ele>
        <time>2020-11-29T08:50:46Z</time>
      </trkpt>
      <trkpt lat="43.16109" lon="5.7785">
        <ele>298.22265625</ele>
        <time>2020-11-29T08:50:47Z</time>
      </trkpt>
      <trkpt lat="43.16107" lon="5.77847">
        <ele>297.91015625</ele>
        <time>2020-11-29T08:50:48Z</time>
      </trkpt>
      <trkpt lat="43.16105" lon="5.77844">
        <ele>297.53125</ele>
        <time>2020-11-29T08:50:49Z</time>
      </trkpt>
      <trkpt lat="43.16102" lon="5.77841">
        <ele>297.15234375</ele>
        <time>2020-11-29T08:50:50Z</time>
      </trkpt>
      <trkpt lat="43.161" lon="5.77838">
        <ele>296.90234375</ele>
        <time>2020-11-29T08:50:51Z</time>
      </trkpt>
      <trkpt lat="43.16098" lon="5.77833">
        <ele>296.76171875</ele>
        <time>2020-11-29T08:50:52Z</time>
      </trkpt>
      <trkpt lat="43.16096" lon="5.77829">
        <ele>296.75390625</ele>
        <time>2020-11-29T08:50:53Z</time>
      </trkpt>
      <trkpt lat="43.16095" lon="5.77824">
        <ele>296.828125</ele>
        <time>2020-11-29T08:50:54Z</time>
      </trkpt>
      <trkpt lat="43.16093" lon="5.77814">
        <ele>297.0546875</ele>
        <time>2020-11-29T08:50:57Z</time>
      </trkpt>
      <trkpt lat="43.16093" lon="5.77811">
        <ele>297.19140625</ele>
        <time>2020-11-29T08:50:58Z</time>
      </trkpt>
      <trkpt lat="43.16088" lon="5.77772">
        <ele>296.83203125</ele>
        <time>2020-11-29T08:51:07Z</time>
      </trkpt>
      <trkpt lat="43.16085" lon="5.77769">
        <ele>296.38671875</ele>
        <time>2020-11-29T08:51:08Z</time>
      </trkpt>
      <trkpt lat="43.16082" lon="5.77766">
        <ele>295.87890625</ele>
        <time>2020-11-29T08:51:09Z</time>
      </trkpt>
      <trkpt lat="43.16077" lon="5.77763">
        <ele>295.3203125</ele>
        <time>2020-11-29T08:51:10Z</time>
      </trkpt>
      <trkpt lat="43.16071" lon="5.77761">
        <ele>294.70703125</ele>
        <time>2020-11-29T08:51:11Z</time>
      </trkpt>
      <trkpt lat="43.16067" lon="5.77759">
        <ele>294.2734375</ele>
        <time>2020-11-29T08:51:12Z</time>
      </trkpt>
      <trkpt lat="43.16064" lon="5.77758">
        <ele>293.890625</ele>
        <time>2020-11-29T08:51:13Z</time>
      </trkpt>
      <trkpt lat="43.16058" lon="5.77755">
        <ele>292.78515625</ele>
        <time>2020-11-29T08:51:16Z</time>
      </trkpt>
      <trkpt lat="43.16058" lon="5.77752">
        <ele>292.65625</ele>
        <time>2020-11-29T08:51:17Z</time>
      </trkpt>
      <trkpt lat="43.16066" lon="5.77742">
        <ele>293.4140625</ele>
        <time>2020-11-29T08:51:25Z</time>
      </trkpt>
      <trkpt lat="43.16065" lon="5.77738">
        <ele>293.25390625</ele>
        <time>2020-11-29T08:51:36Z</time>
      </trkpt>
      <trkpt lat="43.16065" lon="5.77741">
        <ele>293.33984375</ele>
        <time>2020-11-29T08:51:39Z</time>
      </trkpt>
      <trkpt lat="43.16058" lon="5.77744">
        <ele>292.69140625</ele>
        <time>2020-11-29T08:51:44Z</time>
      </trkpt>
      <trkpt lat="43.16061" lon="5.77735">
        <ele>292.796875</ele>
        <time>2020-11-29T08:51:53Z</time>
      </trkpt>
      <trkpt lat="43.16061" lon="5.77734">
        <ele>292.7890625</ele>
        <time>2020-11-29T08:51:54Z</time>
      </trkpt>
      <trkpt lat="43.16063" lon="5.77729">
        <ele>292.5</ele>
        <time>2020-11-29T08:52:06Z</time>
      </trkpt>
      <trkpt lat="43.16063" lon="5.77728">
        <ele>292.3359375</ele>
        <time>2020-11-29T08:52:22Z</time>
      </trkpt>
      <trkpt lat="43.16063" lon="5.77728">
        <ele>292.2890625</ele>
        <time>2020-11-29T08:52:33Z</time>
      </trkpt>
      <trkpt lat="43.16061" lon="5.77726">
        <ele>291.84375</ele>
        <time>2020-11-29T08:52:35Z</time>
      </trkpt>
      <trkpt lat="43.16058" lon="5.77726">
        <ele>291.65625</ele>
        <time>2020-11-29T08:52:36Z</time>
      </trkpt>
      <trkpt lat="43.16056" lon="5.77726">
        <ele>291.546875</ele>
        <time>2020-11-29T08:52:37Z</time>
      </trkpt>
      <trkpt lat="43.16053" lon="5.77726">
        <ele>291.41796875</ele>
        <time>2020-11-29T08:52:38Z</time>
      </trkpt>
      <trkpt lat="43.1605" lon="5.77725">
        <ele>291.1484375</ele>
        <time>2020-11-29T08:52:39Z</time>
      </trkpt>
      <trkpt lat="43.16047" lon="5.77723">
        <ele>290.765625</ele>
        <time>2020-11-29T08:52:40Z</time>
      </trkpt>
      <trkpt lat="43.16044" lon="5.7772">
        <ele>290.3828125</ele>
        <time>2020-11-29T08:52:41Z</time>
      </trkpt>
      <trkpt lat="43.16041" lon="5.77718">
        <ele>290.13671875</ele>
        <time>2020-11-29T08:52:42Z</time>
      </trkpt>
      <trkpt lat="43.16037" lon="5.77718">
        <ele>290.0703125</ele>
        <time>2020-11-29T08:52:43Z</time>
      </trkpt>
      <trkpt lat="43.16034" lon="5.77718">
        <ele>289.82421875</ele>
        <time>2020-11-29T08:52:44Z</time>
      </trkpt>
      <trkpt lat="43.1603" lon="5.77717">
        <ele>289.4765625</ele>
        <time>2020-11-29T08:52:45Z</time>
      </trkpt>
      <trkpt lat="43.16026" lon="5.77715">
        <ele>289.1015625</ele>
        <time>2020-11-29T08:52:46Z</time>
      </trkpt>
      <trkpt lat="43.16022" lon="5.77712">
        <ele>288.73046875</ele>
        <time>2020-11-29T08:52:47Z</time>
      </trkpt>
      <trkpt lat="43.16013" lon="5.77704">
        <ele>288.1484375</ele>
        <time>2020-11-29T08:52:49Z</time>
      </trkpt>
      <trkpt lat="43.16008" lon="5.77701">
        <ele>287.75390625</ele>
        <time>2020-11-29T08:52:50Z</time>
      </trkpt>
      <trkpt lat="43.15983" lon="5.7768">
        <ele>284.16796875</ele>
        <time>2020-11-29T08:52:56Z</time>
      </trkpt>
      <trkpt lat="43.15978" lon="5.7768">
        <ele>283.3671875</ele>
        <time>2020-11-29T08:52:58Z</time>
      </trkpt>
      <trkpt lat="43.1597" lon="5.77676">
        <ele>281.94140625</ele>
        <time>2020-11-29T08:53:02Z</time>
      </trkpt>
      <trkpt lat="43.15969" lon="5.77673">
        <ele>281.390625</ele>
        <time>2020-11-29T08:53:03Z</time>
      </trkpt>
      <trkpt lat="43.15968" lon="5.7767">
        <ele>280.74609375</ele>
        <time>2020-11-29T08:53:04Z</time>
      </trkpt>
      <trkpt lat="43.15966" lon="5.77667">
        <ele>280.16796875</ele>
        <time>2020-11-29T08:53:05Z</time>
      </trkpt>
      <trkpt lat="43.15965" lon="5.77664">
        <ele>279.67578125</ele>
        <time>2020-11-29T08:53:06Z</time>
      </trkpt>
      <trkpt lat="43.15964" lon="5.77661">
        <ele>279.23828125</ele>
        <time>2020-11-29T08:53:07Z</time>
      </trkpt>
      <trkpt lat="43.15963" lon="5.77659">
        <ele>278.83203125</ele>
        <time>2020-11-29T08:53:08Z</time>
      </trkpt>
      <trkpt lat="43.15962" lon="5.77658">
        <ele>278.5390625</ele>
        <time>2020-11-29T08:53:09Z</time>
      </trkpt>
      <trkpt lat="43.1596" lon="5.77657">
        <ele>278.25390625</ele>
        <time>2020-11-29T08:53:10Z</time>
      </trkpt>
      <trkpt lat="43.15953" lon="5.7765">
        <ele>277.04296875</ele>
        <time>2020-11-29T08:53:13Z</time>
      </trkpt>
      <trkpt lat="43.15941" lon="5.77645">
        <ele>275.15234375</ele>
        <time>2020-11-29T08:53:17Z</time>
      </trkpt>
      <trkpt lat="43.1593" lon="5.77639">
        <ele>273.640625</ele>
        <time>2020-11-29T08:53:21Z</time>
      </trkpt>
      <trkpt lat="43.15927" lon="5.77636">
        <ele>273.2421875</ele>
        <time>2020-11-29T08:53:22Z</time>
      </trkpt>
      <trkpt lat="43.15916" lon="5.77621">
        <ele>270.0078125</ele>
        <time>2020-11-29T08:53:26Z</time>
      </trkpt>
      <trkpt lat="43.15912" lon="5.77618">
        <ele>268.5078125</ele>
        <time>2020-11-29T08:53:28Z</time>
      </trkpt>
      <trkpt lat="43.15899" lon="5.77618">
        <ele>265.87890625</ele>
        <time>2020-11-29T08:53:32Z</time>
      </trkpt>
      <trkpt lat="43.159" lon="5.77615">
        <ele>265.29296875</ele>
        <time>2020-11-29T08:53:41Z</time>
      </trkpt>
      <trkpt lat="43.15899" lon="5.77611">
        <ele>264.3984375</ele>
        <time>2020-11-29T08:54:11Z</time>
      </trkpt>
      <trkpt lat="43.15899" lon="5.77608">
        <ele>263.80078125</ele>
        <time>2020-11-29T08:54:12Z</time>
      </trkpt>
      <trkpt lat="43.15899" lon="5.77604">
        <ele>263.09375</ele>
        <time>2020-11-29T08:54:13Z</time>
      </trkpt>
      <trkpt lat="43.15899" lon="5.776">
        <ele>262.44921875</ele>
        <time>2020-11-29T08:54:14Z</time>
      </trkpt>
      <trkpt lat="43.159" lon="5.77597">
        <ele>261.98828125</ele>
        <time>2020-11-29T08:54:15Z</time>
      </trkpt>
      <trkpt lat="43.15902" lon="5.77594">
        <ele>261.68359375</ele>
        <time>2020-11-29T08:54:16Z</time>
      </trkpt>
      <trkpt lat="43.15905" lon="5.77591">
        <ele>261.3984375</ele>
        <time>2020-11-29T08:54:17Z</time>
      </trkpt>
      <trkpt lat="43.15907" lon="5.7759">
        <ele>261.28125</ele>
        <time>2020-11-29T08:54:18Z</time>
      </trkpt>
      <trkpt lat="43.1591" lon="5.77589">
        <ele>261.2734375</ele>
        <time>2020-11-29T08:54:19Z</time>
      </trkpt>
      <trkpt lat="43.15912" lon="5.77588">
        <ele>261.17578125</ele>
        <time>2020-11-29T08:54:20Z</time>
      </trkpt>
      <trkpt lat="43.15914" lon="5.77586">
        <ele>260.94921875</ele>
        <time>2020-11-29T08:54:21Z</time>
      </trkpt>
      <trkpt lat="43.15917" lon="5.77585">
        <ele>260.75390625</ele>
        <time>2020-11-29T08:54:22Z</time>
      </trkpt>
      <trkpt lat="43.15919" lon="5.77584">
        <ele>260.53515625</ele>
        <time>2020-11-29T08:54:23Z</time>
      </trkpt>
      <trkpt lat="43.15921" lon="5.77582">
        <ele>260.203125</ele>
        <time>2020-11-29T08:54:24Z</time>
      </trkpt>
      <trkpt lat="43.15923" lon="5.7758">
        <ele>259.7109375</ele>
        <time>2020-11-29T08:54:25Z</time>
      </trkpt>
      <trkpt lat="43.15925" lon="5.77577">
        <ele>259.02734375</ele>
        <time>2020-11-29T08:54:26Z</time>
      </trkpt>
      <trkpt lat="43.15927" lon="5.77575">
        <ele>258.22265625</ele>
        <time>2020-11-29T08:54:27Z</time>
      </trkpt>
      <trkpt lat="43.15928" lon="5.77574">
        <ele>257.73828125</ele>
        <time>2020-11-29T08:54:28Z</time>
      </trkpt>
      <trkpt lat="43.1593" lon="5.77572">
        <ele>257.21484375</ele>
        <time>2020-11-29T08:54:29Z</time>
      </trkpt>
      <trkpt lat="43.15933" lon="5.7757">
        <ele>256.421875</ele>
        <time>2020-11-29T08:54:30Z</time>
      </trkpt>
      <trkpt lat="43.15935" lon="5.77568">
        <ele>255.4921875</ele>
        <time>2020-11-29T08:54:31Z</time>
      </trkpt>
      <trkpt lat="43.15937" lon="5.77566">
        <ele>254.52734375</ele>
        <time>2020-11-29T08:54:32Z</time>
      </trkpt>
      <trkpt lat="43.1595" lon="5.77557">
        <ele>250.0625</ele>
        <time>2020-11-29T08:54:37Z</time>
      </trkpt>
      <trkpt lat="43.15963" lon="5.7755">
        <ele>246.26953125</ele>
        <time>2020-11-29T08:54:41Z</time>
      </trkpt>
      <trkpt lat="43.15979" lon="5.77545">
        <ele>243.4375</ele>
        <time>2020-11-29T08:54:45Z</time>
      </trkpt>
      <trkpt lat="43.16" lon="5.77542">
        <ele>240.63671875</ele>
        <time>2020-11-29T08:54:52Z</time>
      </trkpt>
      <trkpt lat="43.16019" lon="5.77548">
        <ele>242.6484375</ele>
        <time>2020-11-29T08:55:00Z</time>
      </trkpt>
      <trkpt lat="43.16021" lon="5.77548">
        <ele>242.72265625</ele>
        <time>2020-11-29T08:55:01Z</time>
      </trkpt>
      <trkpt lat="43.16024" lon="5.77549">
        <ele>243.17578125</ele>
        <time>2020-11-29T08:55:02Z</time>
      </trkpt>
      <trkpt lat="43.16032" lon="5.77554">
        <ele>244.98046875</ele>
        <time>2020-11-29T08:55:04Z</time>
      </trkpt>
      <trkpt lat="43.16036" lon="5.77556">
        <ele>245.8671875</ele>
        <time>2020-11-29T08:55:05Z</time>
      </trkpt>
      <trkpt lat="43.16039" lon="5.77556">
        <ele>246.0703125</ele>
        <time>2020-11-29T08:55:06Z</time>
      </trkpt>
      <trkpt lat="43.16042" lon="5.77554">
        <ele>245.703125</ele>
        <time>2020-11-29T08:55:07Z</time>
      </trkpt>
      <trkpt lat="43.16044" lon="5.77552">
        <ele>245.1796875</ele>
        <time>2020-11-29T08:55:08Z</time>
      </trkpt>
      <trkpt lat="43.16045" lon="5.7755">
        <ele>244.5546875</ele>
        <time>2020-11-29T08:55:09Z</time>
      </trkpt>
      <trkpt lat="43.16045" lon="5.77547">
        <ele>243.65234375</ele>
        <time>2020-11-29T08:55:10Z</time>
      </trkpt>
      <trkpt lat="43.1605" lon="5.77534">
        <ele>240.09375</ele>
        <time>2020-11-29T08:55:14Z</time>
      </trkpt>
      <trkpt lat="43.16056" lon="5.77521">
        <ele>237.94921875</ele>
        <time>2020-11-29T08:55:18Z</time>
      </trkpt>
      <trkpt lat="43.16059" lon="5.77516">
        <ele>237.0703125</ele>
        <time>2020-11-29T08:55:20Z</time>
      </trkpt>
      <trkpt lat="43.1606" lon="5.77514">
        <ele>236.95703125</ele>
        <time>2020-11-29T08:55:21Z</time>
      </trkpt>
      <trkpt lat="43.16061" lon="5.77513">
        <ele>236.77734375</ele>
        <time>2020-11-29T08:55:22Z</time>
      </trkpt>
      <trkpt lat="43.16062" lon="5.7751">
        <ele>236.60546875</ele>
        <time>2020-11-29T08:55:23Z</time>
      </trkpt>
      <trkpt lat="43.16064" lon="5.77507">
        <ele>236.26953125</ele>
        <time>2020-11-29T08:55:24Z</time>
      </trkpt>
      <trkpt lat="43.16073" lon="5.77489">
        <ele>229.3359375</ele>
        <time>2020-11-29T08:55:28Z</time>
      </trkpt>
      <trkpt lat="43.16076" lon="5.77484">
        <ele>227.40625</ele>
        <time>2020-11-29T08:55:29Z</time>
      </trkpt>
      <trkpt lat="43.16079" lon="5.7748">
        <ele>225.640625</ele>
        <time>2020-11-29T08:55:30Z</time>
      </trkpt>
      <trkpt lat="43.16084" lon="5.77471">
        <ele>222.5546875</ele>
        <time>2020-11-29T08:55:32Z</time>
      </trkpt>
      <trkpt lat="43.16085" lon="5.77467">
        <ele>221.4296875</ele>
        <time>2020-11-29T08:55:33Z</time>
      </trkpt>
      <trkpt lat="43.16085" lon="5.77462">
        <ele>220.48828125</ele>
        <time>2020-11-29T08:55:34Z</time>
      </trkpt>
      <trkpt lat="43.16086" lon="5.77459">
        <ele>219.640625</ele>
        <time>2020-11-29T08:55:35Z</time>
      </trkpt>
      <trkpt lat="43.16087" lon="5.77456">
        <ele>218.875</ele>
        <time>2020-11-29T08:55:36Z</time>
      </trkpt>
      <trkpt lat="43.16088" lon="5.77453">
        <ele>218.08203125</ele>
        <time>2020-11-29T08:55:37Z</time>
      </trkpt>
      <trkpt lat="43.16089" lon="5.77451">
        <ele>217.28125</ele>
        <time>2020-11-29T08:55:38Z</time>
      </trkpt>
      <trkpt lat="43.1609" lon="5.77448">
        <ele>216.51171875</ele>
        <time>2020-11-29T08:55:39Z</time>
      </trkpt>
      <trkpt lat="43.1609" lon="5.77444">
        <ele>215.5234375</ele>
        <time>2020-11-29T08:55:40Z</time>
      </trkpt>
      <trkpt lat="43.16091" lon="5.77441">
        <ele>214.65625</ele>
        <time>2020-11-29T08:55:41Z</time>
      </trkpt>
      <trkpt lat="43.16091" lon="5.77438">
        <ele>213.79296875</ele>
        <time>2020-11-29T08:55:42Z</time>
      </trkpt>
      <trkpt lat="43.16093" lon="5.77434">
        <ele>212.578125</ele>
        <time>2020-11-29T08:55:43Z</time>
      </trkpt>
      <trkpt lat="43.16095" lon="5.7743">
        <ele>211.01171875</ele>
        <time>2020-11-29T08:55:44Z</time>
      </trkpt>
      <trkpt lat="43.16097" lon="5.77427">
        <ele>209.44140625</ele>
        <time>2020-11-29T08:55:45Z</time>
      </trkpt>
      <trkpt lat="43.16099" lon="5.77424">
        <ele>208.35546875</ele>
        <time>2020-11-29T08:55:46Z</time>
      </trkpt>
      <trkpt lat="43.16101" lon="5.77423">
        <ele>207.453125</ele>
        <time>2020-11-29T08:55:47Z</time>
      </trkpt>
      <trkpt lat="43.16103" lon="5.77422">
        <ele>206.7109375</ele>
        <time>2020-11-29T08:55:48Z</time>
      </trkpt>
      <trkpt lat="43.16105" lon="5.77421">
        <ele>205.8046875</ele>
        <time>2020-11-29T08:55:49Z</time>
      </trkpt>
      <trkpt lat="43.16115" lon="5.77418">
        <ele>201.51953125</ele>
        <time>2020-11-29T08:55:53Z</time>
      </trkpt>
      <trkpt lat="43.16117" lon="5.77416">
        <ele>200.4921875</ele>
        <time>2020-11-29T08:55:54Z</time>
      </trkpt>
      <trkpt lat="43.16118" lon="5.77413">
        <ele>199.6484375</ele>
        <time>2020-11-29T08:55:55Z</time>
      </trkpt>
      <trkpt lat="43.16118" lon="5.77411">
        <ele>198.94921875</ele>
        <time>2020-11-29T08:55:56Z</time>
      </trkpt>
      <trkpt lat="43.16119" lon="5.77409">
        <ele>198.18359375</ele>
        <time>2020-11-29T08:55:57Z</time>
      </trkpt>
      <trkpt lat="43.16121" lon="5.77406">
        <ele>197.05078125</ele>
        <time>2020-11-29T08:55:58Z</time>
      </trkpt>
      <trkpt lat="43.16122" lon="5.77403">
        <ele>195.71875</ele>
        <time>2020-11-29T08:55:59Z</time>
      </trkpt>
      <trkpt lat="43.16124" lon="5.774">
        <ele>194.4609375</ele>
        <time>2020-11-29T08:56:00Z</time>
      </trkpt>
      <trkpt lat="43.16125" lon="5.77396">
        <ele>193.07421875</ele>
        <time>2020-11-29T08:56:01Z</time>
      </trkpt>
      <trkpt lat="43.16127" lon="5.77391">
        <ele>191.37109375</ele>
        <time>2020-11-29T08:56:02Z</time>
      </trkpt>
      <trkpt lat="43.1613" lon="5.77386">
        <ele>189.54296875</ele>
        <time>2020-11-29T08:56:03Z</time>
      </trkpt>
      <trkpt lat="43.16131" lon="5.7738">
        <ele>187.9765625</ele>
        <time>2020-11-29T08:56:04Z</time>
      </trkpt>
      <trkpt lat="43.16132" lon="5.77374">
        <ele>186.57421875</ele>
        <time>2020-11-29T08:56:05Z</time>
      </trkpt>
      <trkpt lat="43.16133" lon="5.77368">
        <ele>185.25390625</ele>
        <time>2020-11-29T08:56:06Z</time>
      </trkpt>
      <trkpt lat="43.16134" lon="5.77362">
        <ele>183.90234375</ele>
        <time>2020-11-29T08:56:07Z</time>
      </trkpt>
      <trkpt lat="43.16136" lon="5.77344">
        <ele>180.0234375</ele>
        <time>2020-11-29T08:56:10Z</time>
      </trkpt>
      <trkpt lat="43.16138" lon="5.7733">
        <ele>177.60546875</ele>
        <time>2020-11-29T08:56:13Z</time>
      </trkpt>
      <trkpt lat="43.16139" lon="5.77326">
        <ele>176.58984375</ele>
        <time>2020-11-29T08:56:14Z</time>
      </trkpt>
      <trkpt lat="43.1614" lon="5.77323">
        <ele>175.69921875</ele>
        <time>2020-11-29T08:56:15Z</time>
      </trkpt>
      <trkpt lat="43.16141" lon="5.77319">
        <ele>174.88671875</ele>
        <time>2020-11-29T08:56:16Z</time>
      </trkpt>
      <trkpt lat="43.1614" lon="5.77294">
        <ele>172.80859375</ele>
        <time>2020-11-29T08:56:21Z</time>
      </trkpt>
      <trkpt lat="43.16138" lon="5.77287">
        <ele>172.92578125</ele>
        <time>2020-11-29T08:56:22Z</time>
      </trkpt>
      <trkpt lat="43.16137" lon="5.77281">
        <ele>172.86328125</ele>
        <time>2020-11-29T08:56:23Z</time>
      </trkpt>
      <trkpt lat="43.16137" lon="5.77275">
        <ele>172.265625</ele>
        <time>2020-11-29T08:56:24Z</time>
      </trkpt>
      <trkpt lat="43.16138" lon="5.77268">
        <ele>171.4609375</ele>
        <time>2020-11-29T08:56:25Z</time>
      </trkpt>
      <trkpt lat="43.16139" lon="5.77261">
        <ele>170.5390625</ele>
        <time>2020-11-29T08:56:26Z</time>
      </trkpt>
      <trkpt lat="43.16141" lon="5.77238">
        <ele>167.6640625</ele>
        <time>2020-11-29T08:56:31Z</time>
      </trkpt>
      <trkpt lat="43.16143" lon="5.77222">
        <ele>165.13671875</ele>
        <time>2020-11-29T08:56:40Z</time>
      </trkpt>
      <trkpt lat="43.16143" lon="5.77218">
        <ele>164.6875</ele>
        <time>2020-11-29T08:57:05Z</time>
      </trkpt>
      <trkpt lat="43.16144" lon="5.77217">
        <ele>164.00390625</ele>
        <time>2020-11-29T08:57:16Z</time>
      </trkpt>
      <trkpt lat="43.16146" lon="5.77219">
        <ele>163.69921875</ele>
        <time>2020-11-29T08:57:17Z</time>
      </trkpt>
      <trkpt lat="43.16147" lon="5.77222">
        <ele>163.44921875</ele>
        <time>2020-11-29T08:57:18Z</time>
      </trkpt>
      <trkpt lat="43.16148" lon="5.77226">
        <ele>163.4453125</ele>
        <time>2020-11-29T08:57:19Z</time>
      </trkpt>
      <trkpt lat="43.16148" lon="5.7723">
        <ele>163.70703125</ele>
        <time>2020-11-29T08:57:20Z</time>
      </trkpt>
      <trkpt lat="43.16148" lon="5.77234">
        <ele>163.9765625</ele>
        <time>2020-11-29T08:57:21Z</time>
      </trkpt>
      <trkpt lat="43.16157" lon="5.77261">
        <ele>161.57421875</ele>
        <time>2020-11-29T08:57:27Z</time>
      </trkpt>
      <trkpt lat="43.16161" lon="5.77271">
        <ele>160.31640625</ele>
        <time>2020-11-29T08:57:29Z</time>
      </trkpt>
      <trkpt lat="43.16162" lon="5.77277">
        <ele>160.35546875</ele>
        <time>2020-11-29T08:57:30Z</time>
      </trkpt>
      <trkpt lat="43.16168" lon="5.77293">
        <ele>159.39453125</ele>
        <time>2020-11-29T08:57:34Z</time>
      </trkpt>
      <trkpt lat="43.16175" lon="5.77307">
        <ele>157.4921875</ele>
        <time>2020-11-29T08:57:39Z</time>
      </trkpt>
      <trkpt lat="43.16177" lon="5.77308">
        <ele>156.80078125</ele>
        <time>2020-11-29T08:57:40Z</time>
      </trkpt>
      <trkpt lat="43.16178" lon="5.77307">
        <ele>155.7890625</ele>
        <time>2020-11-29T08:57:42Z</time>
      </trkpt>
      <trkpt lat="43.16182" lon="5.77305">
        <ele>153.87109375</ele>
        <time>2020-11-29T08:57:47Z</time>
      </trkpt>
      <trkpt lat="43.16183" lon="5.77302">
        <ele>152.84375</ele>
        <time>2020-11-29T08:57:48Z</time>
      </trkpt>
      <trkpt lat="43.16187" lon="5.77291">
        <ele>149.58203125</ele>
        <time>2020-11-29T08:57:52Z</time>
      </trkpt>
      <trkpt lat="43.16189" lon="5.77288">
        <ele>148.58203125</ele>
        <time>2020-11-29T08:57:53Z</time>
      </trkpt>
      <trkpt lat="43.1619" lon="5.77285">
        <ele>147.58984375</ele>
        <time>2020-11-29T08:57:54Z</time>
      </trkpt>
      <trkpt lat="43.16191" lon="5.77281">
        <ele>146.765625</ele>
        <time>2020-11-29T08:57:55Z</time>
      </trkpt>
      <trkpt lat="43.16192" lon="5.77278">
        <ele>145.76953125</ele>
        <time>2020-11-29T08:57:56Z</time>
      </trkpt>
      <trkpt lat="43.16195" lon="5.7727">
        <ele>143.25390625</ele>
        <time>2020-11-29T08:57:59Z</time>
      </trkpt>
      <trkpt lat="43.16197" lon="5.77267">
        <ele>142.3671875</ele>
        <time>2020-11-29T08:58:00Z</time>
      </trkpt>
      <trkpt lat="43.16201" lon="5.77256">
        <ele>139.12109375</ele>
        <time>2020-11-29T08:58:04Z</time>
      </trkpt>
      <trkpt lat="43.16206" lon="5.7724">
        <ele>135.453125</ele>
        <time>2020-11-29T08:58:08Z</time>
      </trkpt>
      <trkpt lat="43.16207" lon="5.77231">
        <ele>134.2421875</ele>
        <time>2020-11-29T08:58:11Z</time>
      </trkpt>
      <trkpt lat="43.16208" lon="5.77229">
        <ele>133.80078125</ele>
        <time>2020-11-29T08:58:12Z</time>
      </trkpt>
      <trkpt lat="43.16209" lon="5.77223">
        <ele>133.05859375</ele>
        <time>2020-11-29T08:58:24Z</time>
      </trkpt>
      <trkpt lat="43.16212" lon="5.7722">
        <ele>131.53125</ele>
        <time>2020-11-29T08:58:39Z</time>
      </trkpt>
      <trkpt lat="43.16213" lon="5.77223">
        <ele>131.2734375</ele>
        <time>2020-11-29T08:58:40Z</time>
      </trkpt>
      <trkpt lat="43.16218" lon="5.77233">
        <ele>129.3828125</ele>
        <time>2020-11-29T08:58:43Z</time>
      </trkpt>
      <trkpt lat="43.16219" lon="5.77236">
        <ele>128.9375</ele>
        <time>2020-11-29T08:58:44Z</time>
      </trkpt>
      <trkpt lat="43.1622" lon="5.77239">
        <ele>128.91015625</ele>
        <time>2020-11-29T08:58:46Z</time>
      </trkpt>
      <trkpt lat="43.16228" lon="5.77254">
        <ele>126.25</ele>
        <time>2020-11-29T08:58:57Z</time>
      </trkpt>
      <trkpt lat="43.16231" lon="5.7726">
        <ele>125.1171875</ele>
        <time>2020-11-29T08:59:00Z</time>
      </trkpt>
      <trkpt lat="43.16232" lon="5.77263">
        <ele>125.01171875</ele>
        <time>2020-11-29T08:59:01Z</time>
      </trkpt>
      <trkpt lat="43.16233" lon="5.77266">
        <ele>124.76953125</ele>
        <time>2020-11-29T08:59:02Z</time>
      </trkpt>
      <trkpt lat="43.16234" lon="5.7727">
        <ele>124.453125</ele>
        <time>2020-11-29T08:59:04Z</time>
      </trkpt>
      <trkpt lat="43.16234" lon="5.77272">
        <ele>124.40625</ele>
        <time>2020-11-29T08:59:05Z</time>
      </trkpt>
      <trkpt lat="43.16235" lon="5.77275">
        <ele>124.203125</ele>
        <time>2020-11-29T08:59:06Z</time>
      </trkpt>
      <trkpt lat="43.16236" lon="5.77277">
        <ele>123.78125</ele>
        <time>2020-11-29T08:59:07Z</time>
      </trkpt>
      <trkpt lat="43.16238" lon="5.77279">
        <ele>123.3828125</ele>
        <time>2020-11-29T08:59:08Z</time>
      </trkpt>
      <trkpt lat="43.16238" lon="5.77281">
        <ele>123.26171875</ele>
        <time>2020-11-29T08:59:09Z</time>
      </trkpt>
      <trkpt lat="43.16241" lon="5.77287">
        <ele>122.50390625</ele>
        <time>2020-11-29T08:59:11Z</time>
      </trkpt>
      <trkpt lat="43.16242" lon="5.7729">
        <ele>122.43359375</ele>
        <time>2020-11-29T08:59:12Z</time>
      </trkpt>
      <trkpt lat="43.16242" lon="5.77293">
        <ele>122.453125</ele>
        <time>2020-11-29T08:59:13Z</time>
      </trkpt>
      <trkpt lat="43.16243" lon="5.77297">
        <ele>122.48046875</ele>
        <time>2020-11-29T08:59:14Z</time>
      </trkpt>
      <trkpt lat="43.16244" lon="5.77301">
        <ele>122.52734375</ele>
        <time>2020-11-29T08:59:15Z</time>
      </trkpt>
      <trkpt lat="43.16245" lon="5.77303">
        <ele>122.22265625</ele>
        <time>2020-11-29T08:59:16Z</time>
      </trkpt>
      <trkpt lat="43.16247" lon="5.77306">
        <ele>121.87890625</ele>
        <time>2020-11-29T08:59:17Z</time>
      </trkpt>
      <trkpt lat="43.16249" lon="5.77309">
        <ele>121.0234375</ele>
        <time>2020-11-29T08:59:18Z</time>
      </trkpt>
      <trkpt lat="43.16252" lon="5.77312">
        <ele>120.17578125</ele>
        <time>2020-11-29T08:59:19Z</time>
      </trkpt>
      <trkpt lat="43.16265" lon="5.77332">
        <ele>118.51171875</ele>
        <time>2020-11-29T08:59:26Z</time>
      </trkpt>
      <trkpt lat="43.16273" lon="5.77342">
        <ele>118.828125</ele>
        <time>2020-11-29T08:59:31Z</time>
      </trkpt>
      <trkpt lat="43.16282" lon="5.77358">
        <ele>121.0390625</ele>
        <time>2020-11-29T08:59:36Z</time>
      </trkpt>
      <trkpt lat="43.16285" lon="5.7736">
        <ele>121.0703125</ele>
        <time>2020-11-29T08:59:37Z</time>
      </trkpt>
      <trkpt lat="43.16289" lon="5.77363">
        <ele>121.34375</ele>
        <time>2020-11-29T08:59:38Z</time>
      </trkpt>
      <trkpt lat="43.16313" lon="5.77375">
        <ele>122.92578125</ele>
        <time>2020-11-29T08:59:45Z</time>
      </trkpt>
      <trkpt lat="43.16316" lon="5.77375">
        <ele>123.1171875</ele>
        <time>2020-11-29T08:59:46Z</time>
      </trkpt>
      <trkpt lat="43.16319" lon="5.77374">
        <ele>123.28515625</ele>
        <time>2020-11-29T08:59:47Z</time>
      </trkpt>
      <trkpt lat="43.16322" lon="5.77372">
        <ele>123.26171875</ele>
        <time>2020-11-29T08:59:48Z</time>
      </trkpt>
      <trkpt lat="43.16324" lon="5.77369">
        <ele>123.12890625</ele>
        <time>2020-11-29T08:59:49Z</time>
      </trkpt>
      <trkpt lat="43.16325" lon="5.77367">
        <ele>122.90625</ele>
        <time>2020-11-29T08:59:50Z</time>
      </trkpt>
      <trkpt lat="43.16326" lon="5.77365">
        <ele>122.74609375</ele>
        <time>2020-11-29T08:59:51Z</time>
      </trkpt>
      <trkpt lat="43.16327" lon="5.77359">
        <ele>122.19140625</ele>
        <time>2020-11-29T08:59:54Z</time>
      </trkpt>
      <trkpt lat="43.16329" lon="5.77353">
        <ele>121.73046875</ele>
        <time>2020-11-29T08:59:57Z</time>
      </trkpt>
      <trkpt lat="43.1634" lon="5.77322">
        <ele>120.28125</ele>
        <time>2020-11-29T09:00:11Z</time>
      </trkpt>
      <trkpt lat="43.16341" lon="5.77318">
        <ele>119.99609375</ele>
        <time>2020-11-29T09:00:13Z</time>
      </trkpt>
      <trkpt lat="43.16342" lon="5.77313">
        <ele>119.8359375</ele>
        <time>2020-11-29T09:00:15Z</time>
      </trkpt>
      <trkpt lat="43.16343" lon="5.7731">
        <ele>119.4296875</ele>
        <time>2020-11-29T09:00:16Z</time>
      </trkpt>
      <trkpt lat="43.16343" lon="5.77306">
        <ele>118.90234375</ele>
        <time>2020-11-29T09:00:17Z</time>
      </trkpt>
      <trkpt lat="43.16344" lon="5.77302">
        <ele>118.25</ele>
        <time>2020-11-29T09:00:18Z</time>
      </trkpt>
      <trkpt lat="43.16345" lon="5.77298">
        <ele>117.64453125</ele>
        <time>2020-11-29T09:00:19Z</time>
      </trkpt>
      <trkpt lat="43.16358" lon="5.77268">
        <ele>112.0703125</ele>
        <time>2020-11-29T09:00:27Z</time>
      </trkpt>
      <trkpt lat="43.16365" lon="5.77255">
        <ele>109.58984375</ele>
        <time>2020-11-29T09:00:31Z</time>
      </trkpt>
      <trkpt lat="43.16366" lon="5.77251">
        <ele>108.94140625</ele>
        <time>2020-11-29T09:00:32Z</time>
      </trkpt>
      <trkpt lat="43.16367" lon="5.77247">
        <ele>108.328125</ele>
        <time>2020-11-29T09:00:33Z</time>
      </trkpt>
      <trkpt lat="43.16369" lon="5.77228">
        <ele>105.52734375</ele>
        <time>2020-11-29T09:00:38Z</time>
      </trkpt>
      <trkpt lat="43.16372" lon="5.77218">
        <ele>103.6953125</ele>
        <time>2020-11-29T09:00:40Z</time>
      </trkpt>
      <trkpt lat="43.16375" lon="5.77211">
        <ele>102.44140625</ele>
        <time>2020-11-29T09:00:41Z</time>
      </trkpt>
      <trkpt lat="43.16378" lon="5.77205">
        <ele>101.2890625</ele>
        <time>2020-11-29T09:00:42Z</time>
      </trkpt>
      <trkpt lat="43.16382" lon="5.77201">
        <ele>100.30078125</ele>
        <time>2020-11-29T09:00:43Z</time>
      </trkpt>
      <trkpt lat="43.16386" lon="5.77198">
        <ele>99.54296875</ele>
        <time>2020-11-29T09:00:44Z</time>
      </trkpt>
      <trkpt lat="43.1639" lon="5.77194">
        <ele>98.87890625</ele>
        <time>2020-11-29T09:00:45Z</time>
      </trkpt>
      <trkpt lat="43.16412" lon="5.77184">
        <ele>93.3671875</ele>
        <time>2020-11-29T09:00:51Z</time>
      </trkpt>
      <trkpt lat="43.16414" lon="5.77185">
        <ele>92.9140625</ele>
        <time>2020-11-29T09:00:52Z</time>
      </trkpt>
      <trkpt lat="43.16416" lon="5.77186">
        <ele>92.2421875</ele>
        <time>2020-11-29T09:00:53Z</time>
      </trkpt>
      <trkpt lat="43.16424" lon="5.77187">
        <ele>89.953125</ele>
        <time>2020-11-29T09:00:56Z</time>
      </trkpt>
      <trkpt lat="43.16426" lon="5.77186">
        <ele>89.23828125</ele>
        <time>2020-11-29T09:00:57Z</time>
      </trkpt>
      <trkpt lat="43.16428" lon="5.7718">
        <ele>88.2578125</ele>
        <time>2020-11-29T09:01:07Z</time>
      </trkpt>
      <trkpt lat="43.16431" lon="5.77179">
        <ele>87.30859375</ele>
        <time>2020-11-29T09:01:09Z</time>
      </trkpt>
      <trkpt lat="43.16433" lon="5.7718">
        <ele>86.74609375</ele>
        <time>2020-11-29T09:01:10Z</time>
      </trkpt>
      <trkpt lat="43.16434" lon="5.77181">
        <ele>86.25390625</ele>
        <time>2020-11-29T09:01:11Z</time>
      </trkpt>
      <trkpt lat="43.16436" lon="5.77182">
        <ele>85.76171875</ele>
        <time>2020-11-29T09:01:12Z</time>
      </trkpt>
      <trkpt lat="43.16437" lon="5.77182">
        <ele>85.296875</ele>
        <time>2020-11-29T09:01:13Z</time>
      </trkpt>
      <trkpt lat="43.1644" lon="5.77182">
        <ele>84.59765625</ele>
        <time>2020-11-29T09:01:14Z</time>
      </trkpt>
      <trkpt lat="43.16442" lon="5.77181">
        <ele>83.6640625</ele>
        <time>2020-11-29T09:01:15Z</time>
      </trkpt>
      <trkpt lat="43.16445" lon="5.77179">
        <ele>82.80078125</ele>
        <time>2020-11-29T09:01:16Z</time>
      </trkpt>
      <trkpt lat="43.16447" lon="5.77176">
        <ele>82.1015625</ele>
        <time>2020-11-29T09:01:17Z</time>
      </trkpt>
      <trkpt lat="43.16449" lon="5.77173">
        <ele>81.34765625</ele>
        <time>2020-11-29T09:01:18Z</time>
      </trkpt>
      <trkpt lat="43.16451" lon="5.77169">
        <ele>80.640625</ele>
        <time>2020-11-29T09:01:19Z</time>
      </trkpt>
      <trkpt lat="43.16453" lon="5.77164">
        <ele>80.06640625</ele>
        <time>2020-11-29T09:01:20Z</time>
      </trkpt>
      <trkpt lat="43.16462" lon="5.77154">
        <ele>77.27734375</ele>
        <time>2020-11-29T09:01:23Z</time>
      </trkpt>
      <trkpt lat="43.16466" lon="5.77152">
        <ele>75.9921875</ele>
        <time>2020-11-29T09:01:24Z</time>
      </trkpt>
      <trkpt lat="43.16476" lon="5.77136">
        <ele>73.13671875</ele>
        <time>2020-11-29T09:01:28Z</time>
      </trkpt>
      <trkpt lat="43.16476" lon="5.77132">
        <ele>73.31640625</ele>
        <time>2020-11-29T09:01:29Z</time>
      </trkpt>
      <trkpt lat="43.16475" lon="5.77119">
        <ele>73.953125</ele>
        <time>2020-11-29T09:01:32Z</time>
      </trkpt>
      <trkpt lat="43.16476" lon="5.77116">
        <ele>73.6953125</ele>
        <time>2020-11-29T09:01:33Z</time>
      </trkpt>
      <trkpt lat="43.16477" lon="5.77112">
        <ele>73.61328125</ele>
        <time>2020-11-29T09:01:34Z</time>
      </trkpt>
      <trkpt lat="43.16477" lon="5.7711">
        <ele>73.66015625</ele>
        <time>2020-11-29T09:01:35Z</time>
      </trkpt>
      <trkpt lat="43.16477" lon="5.77106">
        <ele>73.66796875</ele>
        <time>2020-11-29T09:01:36Z</time>
      </trkpt>
      <trkpt lat="43.16476" lon="5.77093">
        <ele>74.37890625</ele>
        <time>2020-11-29T09:01:40Z</time>
      </trkpt>
      <trkpt lat="43.16475" lon="5.7709">
        <ele>74.48046875</ele>
        <time>2020-11-29T09:01:41Z</time>
      </trkpt>
      <trkpt lat="43.16474" lon="5.77086">
        <ele>74.4453125</ele>
        <time>2020-11-29T09:01:42Z</time>
      </trkpt>
      <trkpt lat="43.16474" lon="5.77084">
        <ele>74.28125</ele>
        <time>2020-11-29T09:01:43Z</time>
      </trkpt>
      <trkpt lat="43.16475" lon="5.7708">
        <ele>74.00390625</ele>
        <time>2020-11-29T09:01:44Z</time>
      </trkpt>
      <trkpt lat="43.16475" lon="5.77077">
        <ele>73.7109375</ele>
        <time>2020-11-29T09:01:45Z</time>
      </trkpt>
      <trkpt lat="43.16475" lon="5.77068">
        <ele>73.1796875</ele>
        <time>2020-11-29T09:01:48Z</time>
      </trkpt>
      <trkpt lat="43.16475" lon="5.77065">
        <ele>73.17578125</ele>
        <time>2020-11-29T09:01:49Z</time>
      </trkpt>
      <trkpt lat="43.16476" lon="5.77056">
        <ele>72.36328125</ele>
        <time>2020-11-29T09:01:54Z</time>
      </trkpt>
      <trkpt lat="43.16477" lon="5.77054">
        <ele>72.1171875</ele>
        <time>2020-11-29T09:01:55Z</time>
      </trkpt>
      <trkpt lat="43.16479" lon="5.77048">
        <ele>71.6328125</ele>
        <time>2020-11-29T09:01:57Z</time>
      </trkpt>
      <trkpt lat="43.16479" lon="5.77045">
        <ele>71.5234375</ele>
        <time>2020-11-29T09:01:58Z</time>
      </trkpt>
      <trkpt lat="43.16479" lon="5.77042">
        <ele>71.40625</ele>
        <time>2020-11-29T09:01:59Z</time>
      </trkpt>
      <trkpt lat="43.1648" lon="5.7704">
        <ele>71.22265625</ele>
        <time>2020-11-29T09:02:01Z</time>
      </trkpt>
      <trkpt lat="43.16481" lon="5.77034">
        <ele>70.82421875</ele>
        <time>2020-11-29T09:02:05Z</time>
      </trkpt>
      <trkpt lat="43.16482" lon="5.77031">
        <ele>70.609375</ele>
        <time>2020-11-29T09:02:06Z</time>
      </trkpt>
      <trkpt lat="43.16482" lon="5.77027">
        <ele>70.453125</ele>
        <time>2020-11-29T09:02:07Z</time>
      </trkpt>
      <trkpt lat="43.16483" lon="5.77024">
        <ele>70.19921875</ele>
        <time>2020-11-29T09:02:09Z</time>
      </trkpt>
      <trkpt lat="43.16483" lon="5.77023">
        <ele>70.234375</ele>
        <time>2020-11-29T09:02:24Z</time>
      </trkpt>
      <trkpt lat="43.16483" lon="5.77013">
        <ele>69.828125</ele>
        <time>2020-11-29T09:02:42Z</time>
      </trkpt>
      <trkpt lat="43.16484" lon="5.77005">
        <ele>68.953125</ele>
        <time>2020-11-29T09:02:53Z</time>
      </trkpt>
      <trkpt lat="43.16485" lon="5.77001">
        <ele>68.34375</ele>
        <time>2020-11-29T09:02:55Z</time>
      </trkpt>
      <trkpt lat="43.16488" lon="5.76989">
        <ele>66.37890625</ele>
        <time>2020-11-29T09:02:59Z</time>
      </trkpt>
      <trkpt lat="43.165" lon="5.76969">
        <ele>62.609375</ele>
        <time>2020-11-29T09:03:04Z</time>
      </trkpt>
      <trkpt lat="43.16502" lon="5.76965">
        <ele>61.8828125</ele>
        <time>2020-11-29T09:03:05Z</time>
      </trkpt>
      <trkpt lat="43.16506" lon="5.76961">
        <ele>61.19921875</ele>
        <time>2020-11-29T09:03:06Z</time>
      </trkpt>
      <trkpt lat="43.16515" lon="5.76949">
        <ele>58.80078125</ele>
        <time>2020-11-29T09:03:10Z</time>
      </trkpt>
      <trkpt lat="43.16515" lon="5.76947">
        <ele>58.4921875</ele>
        <time>2020-11-29T09:03:11Z</time>
      </trkpt>
      <trkpt lat="43.16514" lon="5.76945">
        <ele>58.2265625</ele>
        <time>2020-11-29T09:03:12Z</time>
      </trkpt>
      <trkpt lat="43.16514" lon="5.76943">
        <ele>57.92578125</ele>
        <time>2020-11-29T09:03:13Z</time>
      </trkpt>
      <trkpt lat="43.16516" lon="5.76934">
        <ele>56.7265625</ele>
        <time>2020-11-29T09:03:17Z</time>
      </trkpt>
      <trkpt lat="43.1652" lon="5.76923">
        <ele>55.0078125</ele>
        <time>2020-11-29T09:03:22Z</time>
      </trkpt>
      <trkpt lat="43.1652" lon="5.76922">
        <ele>54.7578125</ele>
        <time>2020-11-29T09:03:23Z</time>
      </trkpt>
      <trkpt lat="43.16533" lon="5.769">
        <ele>51.06640625</ele>
        <time>2020-11-29T09:03:32Z</time>
      </trkpt>
      <trkpt lat="43.16535" lon="5.76898">
        <ele>50.80078125</ele>
        <time>2020-11-29T09:03:33Z</time>
      </trkpt>
      <trkpt lat="43.16536" lon="5.76897">
        <ele>50.671875</ele>
        <time>2020-11-29T09:03:34Z</time>
      </trkpt>
      <trkpt lat="43.16547" lon="5.76882">
        <ele>46.578125</ele>
        <time>2020-11-29T09:03:40Z</time>
      </trkpt>
      <trkpt lat="43.16548" lon="5.76879">
        <ele>45.8359375</ele>
        <time>2020-11-29T09:03:41Z</time>
      </trkpt>
      <trkpt lat="43.16548" lon="5.76877">
        <ele>45.359375</ele>
        <time>2020-11-29T09:03:42Z</time>
      </trkpt>
      <trkpt lat="43.1655" lon="5.76873">
        <ele>44.4375</ele>
        <time>2020-11-29T09:03:46Z</time>
      </trkpt>
      <trkpt lat="43.16551" lon="5.76864">
        <ele>43.1875</ele>
        <time>2020-11-29T09:03:56Z</time>
      </trkpt>
      <trkpt lat="43.16551" lon="5.7686">
        <ele>42.69921875</ele>
        <time>2020-11-29T09:04:18Z</time>
      </trkpt>
      <trkpt lat="43.16553" lon="5.76851">
        <ele>41.40234375</ele>
        <time>2020-11-29T09:04:44Z</time>
      </trkpt>
      <trkpt lat="43.16553" lon="5.76853">
        <ele>41.59765625</ele>
        <time>2020-11-29T09:05:09Z</time>
      </trkpt>
      <trkpt lat="43.16553" lon="5.76853">
        <ele>41.63671875</ele>
        <time>2020-11-29T09:05:30Z</time>
      </trkpt>
      <trkpt lat="43.16553" lon="5.76853">
        <ele>41.66015625</ele>
        <time>2020-11-29T09:05:53Z</time>
      </trkpt>
      <trkpt lat="43.16554" lon="5.76852">
        <ele>41.41796875</ele>
        <time>2020-11-29T09:06:18Z</time>
      </trkpt>
      <trkpt lat="43.1655" lon="5.76848">
        <ele>41.11328125</ele>
        <time>2020-11-29T09:06:45Z</time>
      </trkpt>
      <trkpt lat="43.16553" lon="5.76846">
        <ele>40.71875</ele>
        <time>2020-11-29T09:07:09Z</time>
      </trkpt>
      <trkpt lat="43.16555" lon="5.76848">
        <ele>40.98046875</ele>
        <time>2020-11-29T09:07:28Z</time>
      </trkpt>
      <trkpt lat="43.16557" lon="5.76848">
        <ele>40.875</ele>
        <time>2020-11-29T09:07:29Z</time>
      </trkpt>
      <trkpt lat="43.1658" lon="5.76854">
        <ele>40.13671875</ele>
        <time>2020-11-29T09:07:41Z</time>
      </trkpt>
      <trkpt lat="43.16604" lon="5.76864">
        <ele>39.3515625</ele>
        <time>2020-11-29T09:07:53Z</time>
      </trkpt>
      <trkpt lat="43.16629" lon="5.76875">
        <ele>37.58203125</ele>
        <time>2020-11-29T09:08:05Z</time>
      </trkpt>
      <trkpt lat="43.16641" lon="5.76879">
        <ele>36.87890625</ele>
        <time>2020-11-29T09:08:11Z</time>
      </trkpt>
      <trkpt lat="43.16642" lon="5.76877">
        <ele>36.6875</ele>
        <time>2020-11-29T09:08:12Z</time>
      </trkpt>
      <trkpt lat="43.16649" lon="5.76862">
        <ele>36.6640625</ele>
        <time>2020-11-29T09:08:17Z</time>
      </trkpt>
      <trkpt lat="43.16649" lon="5.7686">
        <ele>36.8671875</ele>
        <time>2020-11-29T09:08:18Z</time>
      </trkpt>
      <trkpt lat="43.16649" lon="5.76858">
        <ele>36.96875</ele>
        <time>2020-11-29T09:08:19Z</time>
      </trkpt>
      <trkpt lat="43.16648" lon="5.76857">
        <ele>37.01171875</ele>
        <time>2020-11-29T09:08:20Z</time>
      </trkpt>
      <trkpt lat="43.16647" lon="5.76856">
        <ele>37.07421875</ele>
        <time>2020-11-29T09:08:21Z</time>
      </trkpt>
      <trkpt lat="43.16646" lon="5.76856">
        <ele>37.12109375</ele>
        <time>2020-11-29T09:08:22Z</time>
      </trkpt>
      <trkpt lat="43.16645" lon="5.76856">
        <ele>37.12109375</ele>
        <time>2020-11-29T09:08:23Z</time>
      </trkpt>
      <trkpt lat="43.16643" lon="5.76857">
        <ele>37.1484375</ele>
        <time>2020-11-29T09:08:24Z</time>
      </trkpt>
      <trkpt lat="43.16642" lon="5.76857">
        <ele>37.21484375</ele>
        <time>2020-11-29T09:08:25Z</time>
      </trkpt>
      <trkpt lat="43.16641" lon="5.76856">
        <ele>37.296875</ele>
        <time>2020-11-29T09:08:26Z</time>
      </trkpt>
      <trkpt lat="43.16639" lon="5.76851">
        <ele>37.60546875</ele>
        <time>2020-11-29T09:08:30Z</time>
      </trkpt>
      <trkpt lat="43.16639" lon="5.76849">
        <ele>37.69921875</ele>
        <time>2020-11-29T09:08:31Z</time>
      </trkpt>
      <trkpt lat="43.1664" lon="5.76846">
        <ele>37.828125</ele>
        <time>2020-11-29T09:08:32Z</time>
      </trkpt>
      <trkpt lat="43.16639" lon="5.76843">
        <ele>37.98828125</ele>
        <time>2020-11-29T09:08:33Z</time>
      </trkpt>
      <trkpt lat="43.16637" lon="5.7684">
        <ele>38.0703125</ele>
        <time>2020-11-29T09:08:34Z</time>
      </trkpt>
      <trkpt lat="43.16634" lon="5.76837">
        <ele>38.10546875</ele>
        <time>2020-11-29T09:08:35Z</time>
      </trkpt>
      <trkpt lat="43.1663" lon="5.76835">
        <ele>38.1015625</ele>
        <time>2020-11-29T09:08:36Z</time>
      </trkpt>
      <trkpt lat="43.16626" lon="5.76835">
        <ele>38.0625</ele>
        <time>2020-11-29T09:08:37Z</time>
      </trkpt>
      <trkpt lat="43.16621" lon="5.76834">
        <ele>38.015625</ele>
        <time>2020-11-29T09:08:38Z</time>
      </trkpt>
      <trkpt lat="43.16559" lon="5.76818">
        <ele>38.2421875</ele>
        <time>2020-11-29T09:08:49Z</time>
      </trkpt>
      <trkpt lat="43.16549" lon="5.7681">
        <ele>38.19140625</ele>
        <time>2020-11-29T09:08:51Z</time>
      </trkpt>
      <trkpt lat="43.16544" lon="5.76805">
        <ele>38.3671875</ele>
        <time>2020-11-29T09:08:52Z</time>
      </trkpt>
      <trkpt lat="43.16515" lon="5.76759">
        <ele>38.51171875</ele>
        <time>2020-11-29T09:09:00Z</time>
      </trkpt>
      <trkpt lat="43.16513" lon="5.76752">
        <ele>38.8671875</ele>
        <time>2020-11-29T09:09:01Z</time>
      </trkpt>
      <trkpt lat="43.16506" lon="5.76734">
        <ele>39.6796875</ele>
        <time>2020-11-29T09:09:04Z</time>
      </trkpt>
      <trkpt lat="43.16504" lon="5.76729">
        <ele>39.84375</ele>
        <time>2020-11-29T09:09:05Z</time>
      </trkpt>
      <trkpt lat="43.16502" lon="5.76724">
        <ele>40.0703125</ele>
        <time>2020-11-29T09:09:06Z</time>
      </trkpt>
      <trkpt lat="43.16494" lon="5.76702">
        <ele>41.05859375</ele>
        <time>2020-11-29T09:09:10Z</time>
      </trkpt>
      <trkpt lat="43.1649" lon="5.76682">
        <ele>41.4921875</ele>
        <time>2020-11-29T09:09:13Z</time>
      </trkpt>
      <trkpt lat="43.16491" lon="5.76675">
        <ele>41.69921875</ele>
        <time>2020-11-29T09:09:14Z</time>
      </trkpt>
      <trkpt lat="43.16484" lon="5.76632">
        <ele>41.82421875</ele>
        <time>2020-11-29T09:09:25Z</time>
      </trkpt>
      <trkpt lat="43.16463" lon="5.76583">
        <ele>41.53125</ele>
        <time>2020-11-29T09:09:40Z</time>
      </trkpt>
      <trkpt lat="43.16421" lon="5.76521">
        <ele>38.97265625</ele>
        <time>2020-11-29T09:09:56Z</time>
      </trkpt>
      <trkpt lat="43.16358" lon="5.76465">
        <ele>36.515625</ele>
        <time>2020-11-29T09:10:09Z</time>
      </trkpt>
      <trkpt lat="43.16318" lon="5.76442">
        <ele>35.6953125</ele>
        <time>2020-11-29T09:10:15Z</time>
      </trkpt>
      <trkpt lat="43.16286" lon="5.76436">
        <ele>33.25390625</ele>
        <time>2020-11-29T09:10:20Z</time>
      </trkpt>
      <trkpt lat="43.16178" lon="5.76413">
        <ele>29.046875</ele>
        <time>2020-11-29T09:10:36Z</time>
      </trkpt>
      <trkpt lat="43.16056" lon="5.76365">
        <ele>26.33984375</ele>
        <time>2020-11-29T09:10:55Z</time>
      </trkpt>
      <trkpt lat="43.15985" lon="5.76375">
        <ele>25.7578125</ele>
        <time>2020-11-29T09:11:06Z</time>
      </trkpt>
      <trkpt lat="43.15952" lon="5.764">
        <ele>25.1015625</ele>
        <time>2020-11-29T09:11:12Z</time>
      </trkpt>
      <trkpt lat="43.15943" lon="5.76411">
        <ele>25.6640625</ele>
        <time>2020-11-29T09:11:14Z</time>
      </trkpt>
      <trkpt lat="43.15939" lon="5.76418">
        <ele>25.84765625</ele>
        <time>2020-11-29T09:11:15Z</time>
      </trkpt>
      <trkpt lat="43.15935" lon="5.76424">
        <ele>25.97265625</ele>
        <time>2020-11-29T09:11:16Z</time>
      </trkpt>
      <trkpt lat="43.15913" lon="5.76472">
        <ele>27.26171875</ele>
        <time>2020-11-29T09:11:24Z</time>
      </trkpt>
      <trkpt lat="43.15901" lon="5.76495">
        <ele>26.96484375</ele>
        <time>2020-11-29T09:11:28Z</time>
      </trkpt>
      <trkpt lat="43.15897" lon="5.765">
        <ele>26.7734375</ele>
        <time>2020-11-29T09:11:29Z</time>
      </trkpt>
      <trkpt lat="43.15891" lon="5.76505">
        <ele>26.671875</ele>
        <time>2020-11-29T09:11:30Z</time>
      </trkpt>
      <trkpt lat="43.15884" lon="5.76508">
        <ele>26.66015625</ele>
        <time>2020-11-29T09:11:31Z</time>
      </trkpt>
      <trkpt lat="43.15877" lon="5.7651">
        <ele>26.765625</ele>
        <time>2020-11-29T09:11:32Z</time>
      </trkpt>
      <trkpt lat="43.15869" lon="5.76511">
        <ele>26.89453125</ele>
        <time>2020-11-29T09:11:33Z</time>
      </trkpt>
      <trkpt lat="43.15819" lon="5.76511">
        <ele>26.02734375</ele>
        <time>2020-11-29T09:11:39Z</time>
      </trkpt>
      <trkpt lat="43.15811" lon="5.76509">
        <ele>25.828125</ele>
        <time>2020-11-29T09:11:40Z</time>
      </trkpt>
      <trkpt lat="43.15753" lon="5.76471">
        <ele>24.3203125</ele>
        <time>2020-11-29T09:11:48Z</time>
      </trkpt>
      <trkpt lat="43.15694" lon="5.76423">
        <ele>22.77734375</ele>
        <time>2020-11-29T09:11:57Z</time>
      </trkpt>
      <trkpt lat="43.15687" lon="5.7642">
        <ele>22.62109375</ele>
        <time>2020-11-29T09:11:58Z</time>
      </trkpt>
      <trkpt lat="43.15679" lon="5.76418">
        <ele>22.4296875</ele>
        <time>2020-11-29T09:11:59Z</time>
      </trkpt>
      <trkpt lat="43.15672" lon="5.76417">
        <ele>22.3046875</ele>
        <time>2020-11-29T09:12:00Z</time>
      </trkpt>
      <trkpt lat="43.15664" lon="5.76416">
        <ele>22.21875</ele>
        <time>2020-11-29T09:12:01Z</time>
      </trkpt>
      <trkpt lat="43.15657" lon="5.76416">
        <ele>22.1171875</ele>
        <time>2020-11-29T09:12:02Z</time>
      </trkpt>
      <trkpt lat="43.15561" lon="5.76403">
        <ele>23</ele>
        <time>2020-11-29T09:12:16Z</time>
      </trkpt>
      <trkpt lat="43.15426" lon="5.76375">
        <ele>20.86328125</ele>
        <time>2020-11-29T09:12:35Z</time>
      </trkpt>
      <trkpt lat="43.15354" lon="5.76366">
        <ele>20.3984375</ele>
        <time>2020-11-29T09:12:45Z</time>
      </trkpt>
      <trkpt lat="43.15348" lon="5.76364">
        <ele>20.5</ele>
        <time>2020-11-29T09:12:46Z</time>
      </trkpt>
      <trkpt lat="43.15342" lon="5.76362">
        <ele>20.6328125</ele>
        <time>2020-11-29T09:12:47Z</time>
      </trkpt>
      <trkpt lat="43.1533" lon="5.76358">
        <ele>20.96875</ele>
        <time>2020-11-29T09:12:49Z</time>
      </trkpt>
      <trkpt lat="43.15303" lon="5.7635">
        <ele>21.21484375</ele>
        <time>2020-11-29T09:12:53Z</time>
      </trkpt>
      <trkpt lat="43.15296" lon="5.76349">
        <ele>21.02734375</ele>
        <time>2020-11-29T09:12:54Z</time>
      </trkpt>
      <trkpt lat="43.15289" lon="5.7635">
        <ele>20.7890625</ele>
        <time>2020-11-29T09:12:55Z</time>
      </trkpt>
      <trkpt lat="43.15226" lon="5.76375">
        <ele>20.02734375</ele>
        <time>2020-11-29T09:13:04Z</time>
      </trkpt>
      <trkpt lat="43.15218" lon="5.7638">
        <ele>19.9921875</ele>
        <time>2020-11-29T09:13:05Z</time>
      </trkpt>
      <trkpt lat="43.15211" lon="5.76386">
        <ele>19.81640625</ele>
        <time>2020-11-29T09:13:06Z</time>
      </trkpt>
      <trkpt lat="43.15127" lon="5.76463">
        <ele>21.32421875</ele>
        <time>2020-11-29T09:13:19Z</time>
      </trkpt>
      <trkpt lat="43.15117" lon="5.76475">
        <ele>21.7734375</ele>
        <time>2020-11-29T09:13:21Z</time>
      </trkpt>
      <trkpt lat="43.15115" lon="5.76481">
        <ele>21.98046875</ele>
        <time>2020-11-29T09:13:22Z</time>
      </trkpt>
      <trkpt lat="43.15114" lon="5.76488">
        <ele>22.15625</ele>
        <time>2020-11-29T09:13:23Z</time>
      </trkpt>
      <trkpt lat="43.15114" lon="5.76495">
        <ele>22.34765625</ele>
        <time>2020-11-29T09:13:24Z</time>
      </trkpt>
      <trkpt lat="43.15115" lon="5.76502">
        <ele>22.5703125</ele>
        <time>2020-11-29T09:13:25Z</time>
      </trkpt>
      <trkpt lat="43.15116" lon="5.7651">
        <ele>22.8203125</ele>
        <time>2020-11-29T09:13:26Z</time>
      </trkpt>
      <trkpt lat="43.15122" lon="5.76554">
        <ele>24.59375</ele>
        <time>2020-11-29T09:13:33Z</time>
      </trkpt>
      <trkpt lat="43.15122" lon="5.76558">
        <ele>24.72265625</ele>
        <time>2020-11-29T09:13:34Z</time>
      </trkpt>
      <trkpt lat="43.15123" lon="5.7656">
        <ele>24.8203125</ele>
        <time>2020-11-29T09:13:35Z</time>
      </trkpt>
      <trkpt lat="43.15122" lon="5.76563">
        <ele>24.8984375</ele>
        <time>2020-11-29T09:13:36Z</time>
      </trkpt>
      <trkpt lat="43.15122" lon="5.76564">
        <ele>24.96484375</ele>
        <time>2020-11-29T09:13:37Z</time>
      </trkpt>
      <trkpt lat="43.15121" lon="5.76566">
        <ele>25.0390625</ele>
        <time>2020-11-29T09:13:38Z</time>
      </trkpt>
      <trkpt lat="43.15123" lon="5.76569">
        <ele>25.13671875</ele>
        <time>2020-11-29T09:13:48Z</time>
      </trkpt>
      <trkpt lat="43.15123" lon="5.76573">
        <ele>25.2578125</ele>
        <time>2020-11-29T09:13:51Z</time>
      </trkpt>
      <trkpt lat="43.15124" lon="5.76576">
        <ele>25.328125</ele>
        <time>2020-11-29T09:13:52Z</time>
      </trkpt>
      <trkpt lat="43.15124" lon="5.76581">
        <ele>25.50390625</ele>
        <time>2020-11-29T09:13:54Z</time>
      </trkpt>
      <trkpt lat="43.15123" lon="5.76584">
        <ele>25.6171875</ele>
        <time>2020-11-29T09:13:55Z</time>
      </trkpt>
      <trkpt lat="43.15122" lon="5.76589">
        <ele>25.83984375</ele>
        <time>2020-11-29T09:13:57Z</time>
      </trkpt>
      <trkpt lat="43.15121" lon="5.76598">
        <ele>26.66796875</ele>
        <time>2020-11-29T09:14:08Z</time>
      </trkpt>
      <trkpt lat="43.15124" lon="5.76599">
        <ele>26.75390625</ele>
        <time>2020-11-29T09:14:10Z</time>
      </trkpt>
      <trkpt lat="43.1513" lon="5.76599">
        <ele>26.390625</ele>
        <time>2020-11-29T09:14:12Z</time>
      </trkpt>
      <trkpt lat="43.15133" lon="5.76601">
        <ele>26.49609375</ele>
        <time>2020-11-29T09:14:13Z</time>
      </trkpt>
      <trkpt lat="43.15148" lon="5.76626">
        <ele>27.37109375</ele>
        <time>2020-11-29T09:14:21Z</time>
      </trkpt>
      <trkpt lat="43.15171" lon="5.76671">
        <ele>27.421875</ele>
        <time>2020-11-29T09:14:33Z</time>
      </trkpt>
      <trkpt lat="43.15198" lon="5.76703">
        <ele>30.515625</ele>
        <time>2020-11-29T09:14:44Z</time>
      </trkpt>
      <trkpt lat="43.15209" lon="5.76708">
        <ele>32.0234375</ele>
        <time>2020-11-29T09:14:48Z</time>
      </trkpt>
      <trkpt lat="43.15212" lon="5.76706">
        <ele>32.2734375</ele>
        <time>2020-11-29T09:14:49Z</time>
      </trkpt>
      <trkpt lat="43.15214" lon="5.76704">
        <ele>32.44921875</ele>
        <time>2020-11-29T09:14:50Z</time>
      </trkpt>
      <trkpt lat="43.15216" lon="5.767">
        <ele>32.62109375</ele>
        <time>2020-11-29T09:14:51Z</time>
      </trkpt>
      <trkpt lat="43.15218" lon="5.76696">
        <ele>32.6875</ele>
        <time>2020-11-29T09:14:52Z</time>
      </trkpt>
      <trkpt lat="43.15252" lon="5.76627">
        <ele>34.3515625</ele>
        <time>2020-11-29T09:15:12Z</time>
      </trkpt>
      <trkpt lat="43.15282" lon="5.76582">
        <ele>34.6875</ele>
        <time>2020-11-29T09:15:28Z</time>
      </trkpt>
      <trkpt lat="43.15299" lon="5.76571">
        <ele>35.5234375</ele>
        <time>2020-11-29T09:15:37Z</time>
      </trkpt>
      <trkpt lat="43.153" lon="5.76572">
        <ele>35.87109375</ele>
        <time>2020-11-29T09:15:38Z</time>
      </trkpt>
      <trkpt lat="43.15302" lon="5.76573">
        <ele>36.35546875</ele>
        <time>2020-11-29T09:15:39Z</time>
      </trkpt>
      <trkpt lat="43.15304" lon="5.76574">
        <ele>36.72265625</ele>
        <time>2020-11-29T09:15:40Z</time>
      </trkpt>
      <trkpt lat="43.15305" lon="5.76574">
        <ele>36.9609375</ele>
        <time>2020-11-29T09:15:41Z</time>
      </trkpt>
      <trkpt lat="43.15307" lon="5.76573">
        <ele>37.13671875</ele>
        <time>2020-11-29T09:15:42Z</time>
      </trkpt>
      <trkpt lat="43.15316" lon="5.76575">
        <ele>38.7265625</ele>
        <time>2020-11-29T09:15:48Z</time>
      </trkpt>
      <trkpt lat="43.15333" lon="5.76581">
        <ele>41.06640625</ele>
        <time>2020-11-29T09:15:59Z</time>
      </trkpt>
      <trkpt lat="43.15351" lon="5.76592">
        <ele>44.76171875</ele>
        <time>2020-11-29T09:16:12Z</time>
      </trkpt>
      <trkpt lat="43.15373" lon="5.76599">
        <ele>48.1953125</ele>
        <time>2020-11-29T09:16:27Z</time>
      </trkpt>
      <trkpt lat="43.15388" lon="5.76609">
        <ele>51.08203125</ele>
        <time>2020-11-29T09:16:38Z</time>
      </trkpt>
      <trkpt lat="43.15388" lon="5.76611">
        <ele>51.45703125</ele>
        <time>2020-11-29T09:16:39Z</time>
      </trkpt>
      <trkpt lat="43.15388" lon="5.76613">
        <ele>51.828125</ele>
        <time>2020-11-29T09:16:40Z</time>
      </trkpt>
      <trkpt lat="43.15388" lon="5.76615">
        <ele>52.15625</ele>
        <time>2020-11-29T09:16:41Z</time>
      </trkpt>
      <trkpt lat="43.15387" lon="5.76617">
        <ele>52.46484375</ele>
        <time>2020-11-29T09:16:42Z</time>
      </trkpt>
      <trkpt lat="43.15386" lon="5.76619">
        <ele>52.7421875</ele>
        <time>2020-11-29T09:16:43Z</time>
      </trkpt>
      <trkpt lat="43.15385" lon="5.7662">
        <ele>52.95703125</ele>
        <time>2020-11-29T09:16:44Z</time>
      </trkpt>
      <trkpt lat="43.15384" lon="5.76622">
        <ele>53.0625</ele>
        <time>2020-11-29T09:16:45Z</time>
      </trkpt>
      <trkpt lat="43.15382" lon="5.76623">
        <ele>53.09375</ele>
        <time>2020-11-29T09:16:46Z</time>
      </trkpt>
      <trkpt lat="43.1538" lon="5.76624">
        <ele>53.10546875</ele>
        <time>2020-11-29T09:16:47Z</time>
      </trkpt>
      <trkpt lat="43.15368" lon="5.76625">
        <ele>52.37109375</ele>
        <time>2020-11-29T09:16:55Z</time>
      </trkpt>
      <trkpt lat="43.15367" lon="5.76626">
        <ele>52.27734375</ele>
        <time>2020-11-29T09:16:56Z</time>
      </trkpt>
      <trkpt lat="43.15365" lon="5.76626">
        <ele>52.18359375</ele>
        <time>2020-11-29T09:16:57Z</time>
      </trkpt>
      <trkpt lat="43.15351" lon="5.76635">
        <ele>51.984375</ele>
        <time>2020-11-29T09:17:08Z</time>
      </trkpt>
      <trkpt lat="43.15342" lon="5.76657">
        <ele>53.875</ele>
        <time>2020-11-29T09:17:22Z</time>
      </trkpt>
      <trkpt lat="43.15342" lon="5.76685">
        <ele>56.84765625</ele>
        <time>2020-11-29T09:17:37Z</time>
      </trkpt>
      <trkpt lat="43.15344" lon="5.76702">
        <ele>58.875</ele>
        <time>2020-11-29T09:17:47Z</time>
      </trkpt>
      <trkpt lat="43.15344" lon="5.76703">
        <ele>59.09375</ele>
        <time>2020-11-29T09:17:48Z</time>
      </trkpt>
      <trkpt lat="43.15342" lon="5.76715">
        <ele>59.99609375</ele>
        <time>2020-11-29T09:17:56Z</time>
      </trkpt>
      <trkpt lat="43.15343" lon="5.76717">
        <ele>60.43359375</ele>
        <time>2020-11-29T09:17:58Z</time>
      </trkpt>
      <trkpt lat="43.15344" lon="5.76719">
        <ele>60.7109375</ele>
        <time>2020-11-29T09:17:59Z</time>
      </trkpt>
      <trkpt lat="43.15345" lon="5.7672">
        <ele>60.9375</ele>
        <time>2020-11-29T09:18:00Z</time>
      </trkpt>
      <trkpt lat="43.15345" lon="5.76722">
        <ele>61.11328125</ele>
        <time>2020-11-29T09:18:01Z</time>
      </trkpt>
      <trkpt lat="43.15345" lon="5.76723">
        <ele>61.28125</ele>
        <time>2020-11-29T09:18:02Z</time>
      </trkpt>
      <trkpt lat="43.15345" lon="5.76725">
        <ele>61.4375</ele>
        <time>2020-11-29T09:18:03Z</time>
      </trkpt>
      <trkpt lat="43.15344" lon="5.76726">
        <ele>61.61328125</ele>
        <time>2020-11-29T09:18:04Z</time>
      </trkpt>
      <trkpt lat="43.15348" lon="5.76756">
        <ele>63.8359375</ele>
        <time>2020-11-29T09:18:22Z</time>
      </trkpt>
      <trkpt lat="43.1535" lon="5.76767">
        <ele>64.9609375</ele>
        <time>2020-11-29T09:18:29Z</time>
      </trkpt>
      <trkpt lat="43.15351" lon="5.76769">
        <ele>65.078125</ele>
        <time>2020-11-29T09:18:30Z</time>
      </trkpt>
      <trkpt lat="43.1535" lon="5.76775">
        <ele>65.2265625</ele>
        <time>2020-11-29T09:18:33Z</time>
      </trkpt>
      <trkpt lat="43.1535" lon="5.76777">
        <ele>65.38671875</ele>
        <time>2020-11-29T09:18:34Z</time>
      </trkpt>
      <trkpt lat="43.15351" lon="5.76778">
        <ele>65.56640625</ele>
        <time>2020-11-29T09:18:35Z</time>
      </trkpt>
      <trkpt lat="43.15351" lon="5.7678">
        <ele>65.734375</ele>
        <time>2020-11-29T09:18:36Z</time>
      </trkpt>
      <trkpt lat="43.15352" lon="5.76781">
        <ele>65.88671875</ele>
        <time>2020-11-29T09:18:37Z</time>
      </trkpt>
      <trkpt lat="43.15352" lon="5.76782">
        <ele>66.09765625</ele>
        <time>2020-11-29T09:18:38Z</time>
      </trkpt>
      <trkpt lat="43.15353" lon="5.76784">
        <ele>66.328125</ele>
        <time>2020-11-29T09:18:39Z</time>
      </trkpt>
      <trkpt lat="43.15355" lon="5.76785">
        <ele>66.81640625</ele>
        <time>2020-11-29T09:18:52Z</time>
      </trkpt>
      <trkpt lat="43.15354" lon="5.7679">
        <ele>66.765625</ele>
        <time>2020-11-29T09:19:26Z</time>
      </trkpt>
      <trkpt lat="43.15356" lon="5.76789">
        <ele>67.203125</ele>
        <time>2020-11-29T09:20:07Z</time>
      </trkpt>
      <trkpt lat="43.15359" lon="5.76791">
        <ele>68.05078125</ele>
        <time>2020-11-29T09:20:18Z</time>
      </trkpt>
      <trkpt lat="43.15361" lon="5.76792">
        <ele>68.4375</ele>
        <time>2020-11-29T09:20:19Z</time>
      </trkpt>
      <trkpt lat="43.15362" lon="5.76794">
        <ele>68.81640625</ele>
        <time>2020-11-29T09:20:20Z</time>
      </trkpt>
      <trkpt lat="43.15369" lon="5.76805">
        <ele>70.55078125</ele>
        <time>2020-11-29T09:20:27Z</time>
      </trkpt>
      <trkpt lat="43.15376" lon="5.76821">
        <ele>71.91796875</ele>
        <time>2020-11-29T09:20:38Z</time>
      </trkpt>
      <trkpt lat="43.15378" lon="5.76834">
        <ele>71.80078125</ele>
        <time>2020-11-29T09:20:59Z</time>
      </trkpt>
      <trkpt lat="43.15381" lon="5.7687">
        <ele>70.55078125</ele>
        <time>2020-11-29T09:21:15Z</time>
      </trkpt>
      <trkpt lat="43.15395" lon="5.76904">
        <ele>69.4921875</ele>
        <time>2020-11-29T09:21:26Z</time>
      </trkpt>
      <trkpt lat="43.15417" lon="5.76932">
        <ele>73.93359375</ele>
        <time>2020-11-29T09:21:33Z</time>
      </trkpt>
      <trkpt lat="43.1542" lon="5.76939">
        <ele>75.22265625</ele>
        <time>2020-11-29T09:21:34Z</time>
      </trkpt>
      <trkpt lat="43.15422" lon="5.76945">
        <ele>76.203125</ele>
        <time>2020-11-29T09:21:35Z</time>
      </trkpt>
      <trkpt lat="43.15423" lon="5.7695">
        <ele>76.83984375</ele>
        <time>2020-11-29T09:21:36Z</time>
      </trkpt>
      <trkpt lat="43.15423" lon="5.76954">
        <ele>77.2890625</ele>
        <time>2020-11-29T09:21:37Z</time>
      </trkpt>
      <trkpt lat="43.15424" lon="5.76958">
        <ele>77.7734375</ele>
        <time>2020-11-29T09:21:38Z</time>
      </trkpt>
      <trkpt lat="43.15421" lon="5.77004">
        <ele>81.28125</ele>
        <time>2020-11-29T09:21:54Z</time>
      </trkpt>
      <trkpt lat="43.15418" lon="5.77046">
        <ele>81.23828125</ele>
        <time>2020-11-29T09:22:11Z</time>
      </trkpt>
      <trkpt lat="43.15417" lon="5.7708">
        <ele>79.625</ele>
        <time>2020-11-29T09:22:27Z</time>
      </trkpt>
      <trkpt lat="43.15429" lon="5.7711">
        <ele>80.640625</ele>
        <time>2020-11-29T09:22:45Z</time>
      </trkpt>
      <trkpt lat="43.15453" lon="5.77105">
        <ele>86.265625</ele>
        <time>2020-11-29T09:23:01Z</time>
      </trkpt>
      <trkpt lat="43.15471" lon="5.77092">
        <ele>89.75</ele>
        <time>2020-11-29T09:23:15Z</time>
      </trkpt>
      <trkpt lat="43.15475" lon="5.77091">
        <ele>90.67578125</ele>
        <time>2020-11-29T09:23:18Z</time>
      </trkpt>
      <trkpt lat="43.15477" lon="5.77092">
        <ele>91.03125</ele>
        <time>2020-11-29T09:23:19Z</time>
      </trkpt>
      <trkpt lat="43.15487" lon="5.77098">
        <ele>93.640625</ele>
        <time>2020-11-29T09:23:28Z</time>
      </trkpt>
      <trkpt lat="43.15488" lon="5.77099">
        <ele>93.90625</ele>
        <time>2020-11-29T09:23:29Z</time>
      </trkpt>
      <trkpt lat="43.15488" lon="5.77101">
        <ele>94.19921875</ele>
        <time>2020-11-29T09:23:30Z</time>
      </trkpt>
      <trkpt lat="43.15489" lon="5.77131">
        <ele>97.2890625</ele>
        <time>2020-11-29T09:23:47Z</time>
      </trkpt>
      <trkpt lat="43.15482" lon="5.77162">
        <ele>100.83203125</ele>
        <time>2020-11-29T09:24:03Z</time>
      </trkpt>
      <trkpt lat="43.15476" lon="5.77198">
        <ele>107.6328125</ele>
        <time>2020-11-29T09:24:20Z</time>
      </trkpt>
      <trkpt lat="43.1547" lon="5.77236">
        <ele>113.26953125</ele>
        <time>2020-11-29T09:24:38Z</time>
      </trkpt>
      <trkpt lat="43.15461" lon="5.77271">
        <ele>115.9765625</ele>
        <time>2020-11-29T09:24:55Z</time>
      </trkpt>
      <trkpt lat="43.15451" lon="5.77303">
        <ele>116.57421875</ele>
        <time>2020-11-29T09:25:09Z</time>
      </trkpt>
      <trkpt lat="43.1544" lon="5.77346">
        <ele>119.92578125</ele>
        <time>2020-11-29T09:25:27Z</time>
      </trkpt>
      <trkpt lat="43.15429" lon="5.77386">
        <ele>122.46875</ele>
        <time>2020-11-29T09:25:45Z</time>
      </trkpt>
      <trkpt lat="43.15419" lon="5.77424">
        <ele>125.23828125</ele>
        <time>2020-11-29T09:26:02Z</time>
      </trkpt>
      <trkpt lat="43.15411" lon="5.77456">
        <ele>127.87890625</ele>
        <time>2020-11-29T09:26:17Z</time>
      </trkpt>
      <trkpt lat="43.15405" lon="5.77484">
        <ele>129.3359375</ele>
        <time>2020-11-29T09:26:31Z</time>
      </trkpt>
      <trkpt lat="43.15398" lon="5.77508">
        <ele>127.97265625</ele>
        <time>2020-11-29T09:26:43Z</time>
      </trkpt>
      <trkpt lat="43.15397" lon="5.77537">
        <ele>127.7421875</ele>
        <time>2020-11-29T09:26:58Z</time>
      </trkpt>
      <trkpt lat="43.15398" lon="5.7754">
        <ele>127.60546875</ele>
        <time>2020-11-29T09:27:00Z</time>
      </trkpt>
      <trkpt lat="43.15399" lon="5.77541">
        <ele>127.79296875</ele>
        <time>2020-11-29T09:27:01Z</time>
      </trkpt>
      <trkpt lat="43.154" lon="5.77542">
        <ele>128.0703125</ele>
        <time>2020-11-29T09:27:02Z</time>
      </trkpt>
      <trkpt lat="43.154" lon="5.77547">
        <ele>127.4609375</ele>
        <time>2020-11-29T09:27:18Z</time>
      </trkpt>
      <trkpt lat="43.15397" lon="5.77546">
        <ele>126.8515625</ele>
        <time>2020-11-29T09:27:52Z</time>
      </trkpt>
      <trkpt lat="43.154" lon="5.77545">
        <ele>127.73046875</ele>
        <time>2020-11-29T09:28:22Z</time>
      </trkpt>
      <trkpt lat="43.15399" lon="5.77545">
        <ele>127.2265625</ele>
        <time>2020-11-29T09:29:00Z</time>
      </trkpt>
      <trkpt lat="43.15396" lon="5.77541">
        <ele>127.1015625</ele>
        <time>2020-11-29T09:29:32Z</time>
      </trkpt>
      <trkpt lat="43.15399" lon="5.77543">
        <ele>127.57421875</ele>
        <time>2020-11-29T09:30:15Z</time>
      </trkpt>
      <trkpt lat="43.15399" lon="5.77541">
        <ele>127.89453125</ele>
        <time>2020-11-29T09:30:59Z</time>
      </trkpt>
      <trkpt lat="43.154" lon="5.77544">
        <ele>128.0234375</ele>
        <time>2020-11-29T09:31:22Z</time>
      </trkpt>
      <trkpt lat="43.154" lon="5.77545">
        <ele>127.83203125</ele>
        <time>2020-11-29T09:31:39Z</time>
      </trkpt>
      <trkpt lat="43.15402" lon="5.77545">
        <ele>128.36328125</ele>
        <time>2020-11-29T09:32:01Z</time>
      </trkpt>
      <trkpt lat="43.15401" lon="5.77542">
        <ele>128.515625</ele>
        <time>2020-11-29T09:32:28Z</time>
      </trkpt>
      <trkpt lat="43.15401" lon="5.77545">
        <ele>128.09765625</ele>
        <time>2020-11-29T09:32:53Z</time>
      </trkpt>
      <trkpt lat="43.15403" lon="5.77546">
        <ele>128.81640625</ele>
        <time>2020-11-29T09:33:12Z</time>
      </trkpt>
      <trkpt lat="43.15403" lon="5.77547">
        <ele>128.90234375</ele>
        <time>2020-11-29T09:33:13Z</time>
      </trkpt>
      <trkpt lat="43.15417" lon="5.77566">
        <ele>132.921875</ele>
        <time>2020-11-29T09:33:27Z</time>
      </trkpt>
      <trkpt lat="43.15418" lon="5.77567">
        <ele>133.32421875</ele>
        <time>2020-11-29T09:33:28Z</time>
      </trkpt>
      <trkpt lat="43.15425" lon="5.77564">
        <ele>136.56640625</ele>
        <time>2020-11-29T09:33:35Z</time>
      </trkpt>
      <trkpt lat="43.15425" lon="5.77562">
        <ele>136.5</ele>
        <time>2020-11-29T09:33:36Z</time>
      </trkpt>
      <trkpt lat="43.15424" lon="5.77561">
        <ele>136.31640625</ele>
        <time>2020-11-29T09:33:37Z</time>
      </trkpt>
      <trkpt lat="43.15423" lon="5.77559">
        <ele>135.96875</ele>
        <time>2020-11-29T09:33:38Z</time>
      </trkpt>
      <trkpt lat="43.15422" lon="5.77557">
        <ele>135.6875</ele>
        <time>2020-11-29T09:33:39Z</time>
      </trkpt>
      <trkpt lat="43.15421" lon="5.77554">
        <ele>135.5</ele>
        <time>2020-11-29T09:33:40Z</time>
      </trkpt>
      <trkpt lat="43.1542" lon="5.7754">
        <ele>136.203125</ele>
        <time>2020-11-29T09:33:46Z</time>
      </trkpt>
      <trkpt lat="43.15421" lon="5.77537">
        <ele>136.94140625</ele>
        <time>2020-11-29T09:33:47Z</time>
      </trkpt>
      <trkpt lat="43.15423" lon="5.77536">
        <ele>137.61328125</ele>
        <time>2020-11-29T09:33:48Z</time>
      </trkpt>
      <trkpt lat="43.15425" lon="5.77535">
        <ele>138.31640625</ele>
        <time>2020-11-29T09:33:49Z</time>
      </trkpt>
      <trkpt lat="43.15426" lon="5.77536">
        <ele>139.01953125</ele>
        <time>2020-11-29T09:33:50Z</time>
      </trkpt>
      <trkpt lat="43.15428" lon="5.77537">
        <ele>139.8515625</ele>
        <time>2020-11-29T09:33:51Z</time>
      </trkpt>
      <trkpt lat="43.1543" lon="5.77538">
        <ele>140.5546875</ele>
        <time>2020-11-29T09:33:52Z</time>
      </trkpt>
      <trkpt lat="43.15431" lon="5.7754">
        <ele>141.05859375</ele>
        <time>2020-11-29T09:33:53Z</time>
      </trkpt>
      <trkpt lat="43.15432" lon="5.77542">
        <ele>141.42578125</ele>
        <time>2020-11-29T09:33:54Z</time>
      </trkpt>
      <trkpt lat="43.15433" lon="5.77545">
        <ele>141.74609375</ele>
        <time>2020-11-29T09:33:55Z</time>
      </trkpt>
      <trkpt lat="43.15434" lon="5.77547">
        <ele>141.8046875</ele>
        <time>2020-11-29T09:33:56Z</time>
      </trkpt>
      <trkpt lat="43.15434" lon="5.77549">
        <ele>141.65234375</ele>
        <time>2020-11-29T09:33:57Z</time>
      </trkpt>
      <trkpt lat="43.15433" lon="5.77552">
        <ele>141.44921875</ele>
        <time>2020-11-29T09:33:58Z</time>
      </trkpt>
      <trkpt lat="43.15433" lon="5.77554">
        <ele>141.27734375</ele>
        <time>2020-11-29T09:33:59Z</time>
      </trkpt>
      <trkpt lat="43.15441" lon="5.77578">
        <ele>144</ele>
        <time>2020-11-29T09:34:15Z</time>
      </trkpt>
      <trkpt lat="43.15447" lon="5.77604">
        <ele>147.390625</ele>
        <time>2020-11-29T09:34:33Z</time>
      </trkpt>
      <trkpt lat="43.15451" lon="5.77632">
        <ele>149.63671875</ele>
        <time>2020-11-29T09:34:49Z</time>
      </trkpt>
      <trkpt lat="43.15457" lon="5.77659">
        <ele>152.7421875</ele>
        <time>2020-11-29T09:35:05Z</time>
      </trkpt>
      <trkpt lat="43.15458" lon="5.77695">
        <ele>152.78125</ele>
        <time>2020-11-29T09:35:25Z</time>
      </trkpt>
      <trkpt lat="43.15459" lon="5.77722">
        <ele>152.828125</ele>
        <time>2020-11-29T09:35:41Z</time>
      </trkpt>
      <trkpt lat="43.15459" lon="5.77724">
        <ele>152.83984375</ele>
        <time>2020-11-29T09:35:42Z</time>
      </trkpt>
      <trkpt lat="43.15459" lon="5.77725">
        <ele>153.0234375</ele>
        <time>2020-11-29T09:35:43Z</time>
      </trkpt>
      <trkpt lat="43.1546" lon="5.77727">
        <ele>153.2265625</ele>
        <time>2020-11-29T09:35:44Z</time>
      </trkpt>
      <trkpt lat="43.1546" lon="5.77729">
        <ele>153.40625</ele>
        <time>2020-11-29T09:35:45Z</time>
      </trkpt>
      <trkpt lat="43.15461" lon="5.77731">
        <ele>153.59375</ele>
        <time>2020-11-29T09:35:46Z</time>
      </trkpt>
      <trkpt lat="43.15461" lon="5.77733">
        <ele>153.78125</ele>
        <time>2020-11-29T09:35:47Z</time>
      </trkpt>
      <trkpt lat="43.15461" lon="5.77734">
        <ele>153.921875</ele>
        <time>2020-11-29T09:35:48Z</time>
      </trkpt>
      <trkpt lat="43.15462" lon="5.77736">
        <ele>153.984375</ele>
        <time>2020-11-29T09:35:49Z</time>
      </trkpt>
      <trkpt lat="43.15473" lon="5.77764">
        <ele>158.51953125</ele>
        <time>2020-11-29T09:36:07Z</time>
      </trkpt>
      <trkpt lat="43.15479" lon="5.77789">
        <ele>160.6171875</ele>
        <time>2020-11-29T09:36:22Z</time>
      </trkpt>
      <trkpt lat="43.1548" lon="5.7779">
        <ele>160.734375</ele>
        <time>2020-11-29T09:36:23Z</time>
      </trkpt>
      <trkpt lat="43.15481" lon="5.77805">
        <ele>160.23046875</ele>
        <time>2020-11-29T09:36:31Z</time>
      </trkpt>
      <trkpt lat="43.15485" lon="5.77846">
        <ele>156.859375</ele>
        <time>2020-11-29T09:36:52Z</time>
      </trkpt>
      <trkpt lat="43.15488" lon="5.77859">
        <ele>155.7578125</ele>
        <time>2020-11-29T09:36:59Z</time>
      </trkpt>
      <trkpt lat="43.15504" lon="5.7788">
        <ele>155.2734375</ele>
        <time>2020-11-29T09:37:14Z</time>
      </trkpt>
      <trkpt lat="43.15529" lon="5.77899">
        <ele>156.21484375</ele>
        <time>2020-11-29T09:37:31Z</time>
      </trkpt>
      <trkpt lat="43.15552" lon="5.77917">
        <ele>156.61328125</ele>
        <time>2020-11-29T09:37:48Z</time>
      </trkpt>
      <trkpt lat="43.15576" lon="5.77935">
        <ele>157.96875</ele>
        <time>2020-11-29T09:38:03Z</time>
      </trkpt>
      <trkpt lat="43.15604" lon="5.77932">
        <ele>162.26953125</ele>
        <time>2020-11-29T09:38:18Z</time>
      </trkpt>
      <trkpt lat="43.15632" lon="5.77913">
        <ele>167.57421875</ele>
        <time>2020-11-29T09:38:34Z</time>
      </trkpt>
      <trkpt lat="43.15655" lon="5.77903">
        <ele>171.5625</ele>
        <time>2020-11-29T09:38:49Z</time>
      </trkpt>
      <trkpt lat="43.15681" lon="5.77893">
        <ele>177.23828125</ele>
        <time>2020-11-29T09:39:04Z</time>
      </trkpt>
      <trkpt lat="43.15686" lon="5.77893">
        <ele>178.421875</ele>
        <time>2020-11-29T09:39:19Z</time>
      </trkpt>
      <trkpt lat="43.15687" lon="5.77894">
        <ele>178.859375</ele>
        <time>2020-11-29T09:39:46Z</time>
      </trkpt>
      <trkpt lat="43.15685" lon="5.77893">
        <ele>178.28515625</ele>
        <time>2020-11-29T09:40:15Z</time>
      </trkpt>
      <trkpt lat="43.15685" lon="5.77892">
        <ele>178.08203125</ele>
        <time>2020-11-29T09:40:47Z</time>
      </trkpt>
      <trkpt lat="43.15686" lon="5.77893">
        <ele>178.4140625</ele>
        <time>2020-11-29T09:41:12Z</time>
      </trkpt>
      <trkpt lat="43.15688" lon="5.77896">
        <ele>179.37890625</ele>
        <time>2020-11-29T09:41:38Z</time>
      </trkpt>
      <trkpt lat="43.15686" lon="5.7789">
        <ele>178.3515625</ele>
        <time>2020-11-29T09:42:12Z</time>
      </trkpt>
      <trkpt lat="43.15686" lon="5.7789">
        <ele>178.30078125</ele>
        <time>2020-11-29T09:42:45Z</time>
      </trkpt>
      <trkpt lat="43.15689" lon="5.77891">
        <ele>179.23046875</ele>
        <time>2020-11-29T09:43:11Z</time>
      </trkpt>
      <trkpt lat="43.157" lon="5.77883">
        <ele>180.87890625</ele>
        <time>2020-11-29T09:43:24Z</time>
      </trkpt>
      <trkpt lat="43.15722" lon="5.77873">
        <ele>186.515625</ele>
        <time>2020-11-29T09:43:40Z</time>
      </trkpt>
      <trkpt lat="43.15726" lon="5.77899">
        <ele>192.9140625</ele>
        <time>2020-11-29T09:43:52Z</time>
      </trkpt>
      <trkpt lat="43.15714" lon="5.77944">
        <ele>196.33984375</ele>
        <time>2020-11-29T09:44:10Z</time>
      </trkpt>
      <trkpt lat="43.15696" lon="5.77988">
        <ele>194.83203125</ele>
        <time>2020-11-29T09:44:28Z</time>
      </trkpt>
      <trkpt lat="43.15673" lon="5.78023">
        <ele>188.6328125</ele>
        <time>2020-11-29T09:44:43Z</time>
      </trkpt>
      <trkpt lat="43.15678" lon="5.78047">
        <ele>188.25390625</ele>
        <time>2020-11-29T09:44:53Z</time>
      </trkpt>
      <trkpt lat="43.15681" lon="5.78047">
        <ele>189.05078125</ele>
        <time>2020-11-29T09:44:54Z</time>
      </trkpt>
      <trkpt lat="43.15683" lon="5.78046">
        <ele>189.79296875</ele>
        <time>2020-11-29T09:44:55Z</time>
      </trkpt>
      <trkpt lat="43.15684" lon="5.78044">
        <ele>190.36328125</ele>
        <time>2020-11-29T09:44:56Z</time>
      </trkpt>
      <trkpt lat="43.15685" lon="5.78043">
        <ele>190.8671875</ele>
        <time>2020-11-29T09:44:57Z</time>
      </trkpt>
      <trkpt lat="43.15686" lon="5.78042">
        <ele>191.3359375</ele>
        <time>2020-11-29T09:44:58Z</time>
      </trkpt>
      <trkpt lat="43.15697" lon="5.78024">
        <ele>196.75</ele>
        <time>2020-11-29T09:45:08Z</time>
      </trkpt>
      <trkpt lat="43.15716" lon="5.77998">
        <ele>204.2890625</ele>
        <time>2020-11-29T09:45:24Z</time>
      </trkpt>
      <trkpt lat="43.1574" lon="5.77965">
        <ele>210.52734375</ele>
        <time>2020-11-29T09:45:42Z</time>
      </trkpt>
      <trkpt lat="43.15757" lon="5.77939">
        <ele>212.046875</ele>
        <time>2020-11-29T09:45:56Z</time>
      </trkpt>
      <trkpt lat="43.15775" lon="5.7791">
        <ele>211.390625</ele>
        <time>2020-11-29T09:46:12Z</time>
      </trkpt>
      <trkpt lat="43.15798" lon="5.77888">
        <ele>212.76171875</ele>
        <time>2020-11-29T09:46:29Z</time>
      </trkpt>
      <trkpt lat="43.15821" lon="5.77883">
        <ele>217.27734375</ele>
        <time>2020-11-29T09:46:43Z</time>
      </trkpt>
      <trkpt lat="43.15839" lon="5.77864">
        <ele>219.0234375</ele>
        <time>2020-11-29T09:46:57Z</time>
      </trkpt>
      <trkpt lat="43.1583" lon="5.77833">
        <ele>216.62109375</ele>
        <time>2020-11-29T09:47:11Z</time>
      </trkpt>
      <trkpt lat="43.15825" lon="5.77798">
        <ele>218.30859375</ele>
        <time>2020-11-29T09:47:26Z</time>
      </trkpt>
      <trkpt lat="43.15812" lon="5.77771">
        <ele>218.06640625</ele>
        <time>2020-11-29T09:47:41Z</time>
      </trkpt>
      <trkpt lat="43.15789" lon="5.77757">
        <ele>212.1875</ele>
        <time>2020-11-29T09:47:56Z</time>
      </trkpt>
      <trkpt lat="43.15759" lon="5.77734">
        <ele>214.109375</ele>
        <time>2020-11-29T09:48:13Z</time>
      </trkpt>
      <trkpt lat="43.15725" lon="5.77731">
        <ele>213.04296875</ele>
        <time>2020-11-29T09:48:31Z</time>
      </trkpt>
      <trkpt lat="43.15697" lon="5.77735">
        <ele>212.42578125</ele>
        <time>2020-11-29T09:48:47Z</time>
      </trkpt>
      <trkpt lat="43.15669" lon="5.7774">
        <ele>213.52734375</ele>
        <time>2020-11-29T09:49:03Z</time>
      </trkpt>
      <trkpt lat="43.15668" lon="5.7774">
        <ele>213.73828125</ele>
        <time>2020-11-29T09:49:04Z</time>
      </trkpt>
      <trkpt lat="43.15652" lon="5.7773">
        <ele>218.83203125</ele>
        <time>2020-11-29T09:49:13Z</time>
      </trkpt>
      <trkpt lat="43.15645" lon="5.77693">
        <ele>228.1875</ele>
        <time>2020-11-29T09:49:28Z</time>
      </trkpt>
      <trkpt lat="43.15647" lon="5.77656">
        <ele>233.55078125</ele>
        <time>2020-11-29T09:49:41Z</time>
      </trkpt>
      <trkpt lat="43.15659" lon="5.77633">
        <ele>234.3984375</ele>
        <time>2020-11-29T09:49:54Z</time>
      </trkpt>
      <trkpt lat="43.15661" lon="5.77633">
        <ele>234.453125</ele>
        <time>2020-11-29T09:49:55Z</time>
      </trkpt>
      <trkpt lat="43.15662" lon="5.77633">
        <ele>234.5</ele>
        <time>2020-11-29T09:49:56Z</time>
      </trkpt>
      <trkpt lat="43.15664" lon="5.77634">
        <ele>234.55078125</ele>
        <time>2020-11-29T09:49:57Z</time>
      </trkpt>
      <trkpt lat="43.15665" lon="5.77634">
        <ele>234.59765625</ele>
        <time>2020-11-29T09:49:58Z</time>
      </trkpt>
      <trkpt lat="43.15666" lon="5.77636">
        <ele>234.640625</ele>
        <time>2020-11-29T09:49:59Z</time>
      </trkpt>
      <trkpt lat="43.1567" lon="5.7764">
        <ele>234.76953125</ele>
        <time>2020-11-29T09:50:03Z</time>
      </trkpt>
      <trkpt lat="43.1567" lon="5.77641">
        <ele>234.78515625</ele>
        <time>2020-11-29T09:50:04Z</time>
      </trkpt>
      <trkpt lat="43.15671" lon="5.77643">
        <ele>234.80078125</ele>
        <time>2020-11-29T09:50:05Z</time>
      </trkpt>
      <trkpt lat="43.15671" lon="5.77645">
        <ele>234.81640625</ele>
        <time>2020-11-29T09:50:06Z</time>
      </trkpt>
      <trkpt lat="43.15671" lon="5.77647">
        <ele>234.81640625</ele>
        <time>2020-11-29T09:50:07Z</time>
      </trkpt>
      <trkpt lat="43.1567" lon="5.77649">
        <ele>234.75</ele>
        <time>2020-11-29T09:50:08Z</time>
      </trkpt>
      <trkpt lat="43.1567" lon="5.77651">
        <ele>234.60546875</ele>
        <time>2020-11-29T09:50:09Z</time>
      </trkpt>
      <trkpt lat="43.15668" lon="5.77667">
        <ele>233.55859375</ele>
        <time>2020-11-29T09:50:20Z</time>
      </trkpt>
      <trkpt lat="43.15669" lon="5.7765">
        <ele>234.6015625</ele>
        <time>2020-11-29T09:50:31Z</time>
      </trkpt>
      <trkpt lat="43.15666" lon="5.77641">
        <ele>234.6328125</ele>
        <time>2020-11-29T09:50:37Z</time>
      </trkpt>
      <trkpt lat="43.15662" lon="5.77634">
        <ele>234.50390625</ele>
        <time>2020-11-29T09:50:42Z</time>
      </trkpt>
      <trkpt lat="43.15652" lon="5.77634">
        <ele>234.1328125</ele>
        <time>2020-11-29T09:50:57Z</time>
      </trkpt>
      <trkpt lat="43.15652" lon="5.77634">
        <ele>234.12890625</ele>
        <time>2020-11-29T09:51:16Z</time>
      </trkpt>
      <trkpt lat="43.15653" lon="5.77634">
        <ele>234.16015625</ele>
        <time>2020-11-29T09:51:53Z</time>
      </trkpt>
      <trkpt lat="43.15652" lon="5.77637">
        <ele>234.140625</ele>
        <time>2020-11-29T09:52:34Z</time>
      </trkpt>
      <trkpt lat="43.15654" lon="5.77635">
        <ele>234.19921875</ele>
        <time>2020-11-29T09:53:13Z</time>
      </trkpt>
      <trkpt lat="43.1565" lon="5.77635">
        <ele>234.07421875</ele>
        <time>2020-11-29T09:53:37Z</time>
      </trkpt>
      <trkpt lat="43.1565" lon="5.77634">
        <ele>234.05078125</ele>
        <time>2020-11-29T09:54:10Z</time>
      </trkpt>
      <trkpt lat="43.1565" lon="5.77636">
        <ele>234.0625</ele>
        <time>2020-11-29T09:54:36Z</time>
      </trkpt>
      <trkpt lat="43.15651" lon="5.77636">
        <ele>234.10546875</ele>
        <time>2020-11-29T09:55:19Z</time>
      </trkpt>
      <trkpt lat="43.15651" lon="5.77635">
        <ele>234.0859375</ele>
        <time>2020-11-29T09:56:01Z</time>
      </trkpt>
      <trkpt lat="43.15653" lon="5.77637">
        <ele>234.16015625</ele>
        <time>2020-11-29T09:56:18Z</time>
      </trkpt>
      <trkpt lat="43.15663" lon="5.77637">
        <ele>234.52734375</ele>
        <time>2020-11-29T09:56:24Z</time>
      </trkpt>
      <trkpt lat="43.15665" lon="5.77639">
        <ele>234.609375</ele>
        <time>2020-11-29T09:56:25Z</time>
      </trkpt>
      <trkpt lat="43.15677" lon="5.77662">
        <ele>234</ele>
        <time>2020-11-29T09:56:36Z</time>
      </trkpt>
      <trkpt lat="43.15694" lon="5.77692">
        <ele>227.171875</ele>
        <time>2020-11-29T09:56:48Z</time>
      </trkpt>
      <trkpt lat="43.15724" lon="5.7769">
        <ele>226.9921875</ele>
        <time>2020-11-29T09:57:03Z</time>
      </trkpt>
      <trkpt lat="43.15744" lon="5.77675">
        <ele>232.5234375</ele>
        <time>2020-11-29T09:57:20Z</time>
      </trkpt>
      <trkpt lat="43.15753" lon="5.77668">
        <ele>234.0859375</ele>
        <time>2020-11-29T09:57:28Z</time>
      </trkpt>
      <trkpt lat="43.15755" lon="5.77668">
        <ele>234.22265625</ele>
        <time>2020-11-29T09:57:29Z</time>
      </trkpt>
      <trkpt lat="43.15756" lon="5.77667">
        <ele>234.37109375</ele>
        <time>2020-11-29T09:57:30Z</time>
      </trkpt>
      <trkpt lat="43.15757" lon="5.77667">
        <ele>234.57421875</ele>
        <time>2020-11-29T09:57:31Z</time>
      </trkpt>
      <trkpt lat="43.15758" lon="5.77666">
        <ele>234.78515625</ele>
        <time>2020-11-29T09:57:32Z</time>
      </trkpt>
      <trkpt lat="43.1576" lon="5.77665">
        <ele>234.953125</ele>
        <time>2020-11-29T09:57:33Z</time>
      </trkpt>
      <trkpt lat="43.15761" lon="5.77664">
        <ele>235.140625</ele>
        <time>2020-11-29T09:57:34Z</time>
      </trkpt>
      <trkpt lat="43.15772" lon="5.77663">
        <ele>236.078125</ele>
        <time>2020-11-29T09:57:42Z</time>
      </trkpt>
      <trkpt lat="43.15773" lon="5.77664">
        <ele>236.1171875</ele>
        <time>2020-11-29T09:57:43Z</time>
      </trkpt>
      <trkpt lat="43.1579" lon="5.77665">
        <ele>237.3046875</ele>
        <time>2020-11-29T09:57:58Z</time>
      </trkpt>
      <trkpt lat="43.15794" lon="5.77665">
        <ele>237.796875</ele>
        <time>2020-11-29T09:58:01Z</time>
      </trkpt>
      <trkpt lat="43.15795" lon="5.77665">
        <ele>238.1484375</ele>
        <time>2020-11-29T09:58:02Z</time>
      </trkpt>
      <trkpt lat="43.15796" lon="5.77664">
        <ele>238.4765625</ele>
        <time>2020-11-29T09:58:03Z</time>
      </trkpt>
      <trkpt lat="43.15798" lon="5.77664">
        <ele>238.78515625</ele>
        <time>2020-11-29T09:58:04Z</time>
      </trkpt>
      <trkpt lat="43.15799" lon="5.77663">
        <ele>239.10546875</ele>
        <time>2020-11-29T09:58:05Z</time>
      </trkpt>
      <trkpt lat="43.15815" lon="5.77655">
        <ele>243.64453125</ele>
        <time>2020-11-29T09:58:21Z</time>
      </trkpt>
      <trkpt lat="43.15817" lon="5.77655">
        <ele>244.00390625</ele>
        <time>2020-11-29T09:58:22Z</time>
      </trkpt>
      <trkpt lat="43.15818" lon="5.77655">
        <ele>244.2890625</ele>
        <time>2020-11-29T09:58:23Z</time>
      </trkpt>
      <trkpt lat="43.15819" lon="5.77655">
        <ele>244.4453125</ele>
        <time>2020-11-29T09:58:24Z</time>
      </trkpt>
      <trkpt lat="43.15821" lon="5.77655">
        <ele>244.921875</ele>
        <time>2020-11-29T09:58:26Z</time>
      </trkpt>
      <trkpt lat="43.15831" lon="5.77657">
        <ele>246.61328125</ele>
        <time>2020-11-29T09:58:36Z</time>
      </trkpt>
      <trkpt lat="43.15851" lon="5.77663">
        <ele>250.1796875</ele>
        <time>2020-11-29T09:58:54Z</time>
      </trkpt>
      <trkpt lat="43.15852" lon="5.77664">
        <ele>250.2421875</ele>
        <time>2020-11-29T09:58:55Z</time>
      </trkpt>
      <trkpt lat="43.15862" lon="5.77672">
        <ele>251.7890625</ele>
        <time>2020-11-29T09:59:06Z</time>
      </trkpt>
      <trkpt lat="43.15863" lon="5.77673">
        <ele>251.96875</ele>
        <time>2020-11-29T09:59:07Z</time>
      </trkpt>
      <trkpt lat="43.15875" lon="5.77681">
        <ele>255.0625</ele>
        <time>2020-11-29T09:59:20Z</time>
      </trkpt>
      <trkpt lat="43.15891" lon="5.77699">
        <ele>259.0703125</ele>
        <time>2020-11-29T09:59:39Z</time>
      </trkpt>
      <trkpt lat="43.15892" lon="5.777">
        <ele>259.12109375</ele>
        <time>2020-11-29T09:59:40Z</time>
      </trkpt>
      <trkpt lat="43.15892" lon="5.77701">
        <ele>259.1640625</ele>
        <time>2020-11-29T09:59:41Z</time>
      </trkpt>
      <trkpt lat="43.15893" lon="5.77702">
        <ele>259.265625</ele>
        <time>2020-11-29T09:59:42Z</time>
      </trkpt>
      <trkpt lat="43.15897" lon="5.77708">
        <ele>259.859375</ele>
        <time>2020-11-29T09:59:48Z</time>
      </trkpt>
      <trkpt lat="43.15905" lon="5.77727">
        <ele>260.1328125</ele>
        <time>2020-11-29T10:00:04Z</time>
      </trkpt>
      <trkpt lat="43.1591" lon="5.77737">
        <ele>260.44921875</ele>
        <time>2020-11-29T10:00:12Z</time>
      </trkpt>
      <trkpt lat="43.15921" lon="5.77762">
        <ele>260.76953125</ele>
        <time>2020-11-29T10:00:31Z</time>
      </trkpt>
      <trkpt lat="43.1593" lon="5.77778">
        <ele>260.7734375</ele>
        <time>2020-11-29T10:00:45Z</time>
      </trkpt>
      <trkpt lat="43.15931" lon="5.7778">
        <ele>260.71484375</ele>
        <time>2020-11-29T10:00:46Z</time>
      </trkpt>
      <trkpt lat="43.15931" lon="5.77781">
        <ele>260.6015625</ele>
        <time>2020-11-29T10:00:47Z</time>
      </trkpt>
      <trkpt lat="43.15945" lon="5.77801">
        <ele>261.03515625</ele>
        <time>2020-11-29T10:01:03Z</time>
      </trkpt>
      <trkpt lat="43.1596" lon="5.77815">
        <ele>262.50390625</ele>
        <time>2020-11-29T10:01:21Z</time>
      </trkpt>
      <trkpt lat="43.15971" lon="5.77824">
        <ele>263.62109375</ele>
        <time>2020-11-29T10:01:34Z</time>
      </trkpt>
      <trkpt lat="43.15986" lon="5.77834">
        <ele>265.64453125</ele>
        <time>2020-11-29T10:01:49Z</time>
      </trkpt>
      <trkpt lat="43.15992" lon="5.77838">
        <ele>266.45703125</ele>
        <time>2020-11-29T10:01:55Z</time>
      </trkpt>
      <trkpt lat="43.15993" lon="5.77839">
        <ele>266.546875</ele>
        <time>2020-11-29T10:01:56Z</time>
      </trkpt>
      <trkpt lat="43.15994" lon="5.7784">
        <ele>266.6640625</ele>
        <time>2020-11-29T10:01:57Z</time>
      </trkpt>
      <trkpt lat="43.16007" lon="5.77849">
        <ele>268.765625</ele>
        <time>2020-11-29T10:02:11Z</time>
      </trkpt>
      <trkpt lat="43.16008" lon="5.7785">
        <ele>268.8828125</ele>
        <time>2020-11-29T10:02:12Z</time>
      </trkpt>
      <trkpt lat="43.16008" lon="5.77851">
        <ele>268.76171875</ele>
        <time>2020-11-29T10:02:13Z</time>
      </trkpt>
      <trkpt lat="43.16009" lon="5.77856">
        <ele>268.625</ele>
        <time>2020-11-29T10:02:16Z</time>
      </trkpt>
      <trkpt lat="43.16011" lon="5.77857">
        <ele>268.94921875</ele>
        <time>2020-11-29T10:02:17Z</time>
      </trkpt>
      <trkpt lat="43.16012" lon="5.77857">
        <ele>269.25</ele>
        <time>2020-11-29T10:02:18Z</time>
      </trkpt>
      <trkpt lat="43.16014" lon="5.77856">
        <ele>269.89453125</ele>
        <time>2020-11-29T10:02:20Z</time>
      </trkpt>
      <trkpt lat="43.1602" lon="5.77854">
        <ele>271.7734375</ele>
        <time>2020-11-29T10:02:26Z</time>
      </trkpt>
      <trkpt lat="43.16021" lon="5.77854">
        <ele>272.0859375</ele>
        <time>2020-11-29T10:02:27Z</time>
      </trkpt>
      <trkpt lat="43.16027" lon="5.77859">
        <ele>273.30859375</ele>
        <time>2020-11-29T10:02:33Z</time>
      </trkpt>
      <trkpt lat="43.16027" lon="5.7786">
        <ele>273.21484375</ele>
        <time>2020-11-29T10:02:34Z</time>
      </trkpt>
      <trkpt lat="43.16027" lon="5.77862">
        <ele>273.11328125</ele>
        <time>2020-11-29T10:02:35Z</time>
      </trkpt>
      <trkpt lat="43.16028" lon="5.77865">
        <ele>273.02734375</ele>
        <time>2020-11-29T10:02:37Z</time>
      </trkpt>
      <trkpt lat="43.16034" lon="5.77869">
        <ele>274.19921875</ele>
        <time>2020-11-29T10:02:42Z</time>
      </trkpt>
      <trkpt lat="43.16041" lon="5.7787">
        <ele>276.30859375</ele>
        <time>2020-11-29T10:02:49Z</time>
      </trkpt>
      <trkpt lat="43.16047" lon="5.77884">
        <ele>277.8359375</ele>
        <time>2020-11-29T10:03:01Z</time>
      </trkpt>
      <trkpt lat="43.16049" lon="5.77885">
        <ele>278.265625</ele>
        <time>2020-11-29T10:03:02Z</time>
      </trkpt>
      <trkpt lat="43.1605" lon="5.77885">
        <ele>278.72265625</ele>
        <time>2020-11-29T10:03:03Z</time>
      </trkpt>
      <trkpt lat="43.16051" lon="5.77885">
        <ele>279.140625</ele>
        <time>2020-11-29T10:03:04Z</time>
      </trkpt>
      <trkpt lat="43.16053" lon="5.77885">
        <ele>279.5078125</ele>
        <time>2020-11-29T10:03:05Z</time>
      </trkpt>
      <trkpt lat="43.16054" lon="5.77886">
        <ele>279.82421875</ele>
        <time>2020-11-29T10:03:06Z</time>
      </trkpt>
      <trkpt lat="43.16055" lon="5.77886">
        <ele>280.15234375</ele>
        <time>2020-11-29T10:03:07Z</time>
      </trkpt>
      <trkpt lat="43.16056" lon="5.77887">
        <ele>280.47265625</ele>
        <time>2020-11-29T10:03:08Z</time>
      </trkpt>
      <trkpt lat="43.16057" lon="5.77888">
        <ele>280.7265625</ele>
        <time>2020-11-29T10:03:09Z</time>
      </trkpt>
      <trkpt lat="43.16057" lon="5.77889">
        <ele>280.9765625</ele>
        <time>2020-11-29T10:03:10Z</time>
      </trkpt>
      <trkpt lat="43.16058" lon="5.7789">
        <ele>281.12890625</ele>
        <time>2020-11-29T10:03:11Z</time>
      </trkpt>
      <trkpt lat="43.1606" lon="5.77892">
        <ele>281.7265625</ele>
        <time>2020-11-29T10:03:13Z</time>
      </trkpt>
      <trkpt lat="43.16061" lon="5.77892">
        <ele>282.09375</ele>
        <time>2020-11-29T10:03:14Z</time>
      </trkpt>
      <trkpt lat="43.16064" lon="5.77894">
        <ele>282.99609375</ele>
        <time>2020-11-29T10:03:17Z</time>
      </trkpt>
      <trkpt lat="43.16065" lon="5.77895">
        <ele>283.24609375</ele>
        <time>2020-11-29T10:03:18Z</time>
      </trkpt>
      <trkpt lat="43.16073" lon="5.77908">
        <ele>285.86328125</ele>
        <time>2020-11-29T10:03:28Z</time>
      </trkpt>
      <trkpt lat="43.16078" lon="5.77911">
        <ele>287.6015625</ele>
        <time>2020-11-29T10:03:33Z</time>
      </trkpt>
      <trkpt lat="43.16079" lon="5.77912">
        <ele>287.87109375</ele>
        <time>2020-11-29T10:03:34Z</time>
      </trkpt>
      <trkpt lat="43.16081" lon="5.77915">
        <ele>288.59375</ele>
        <time>2020-11-29T10:03:37Z</time>
      </trkpt>
      <trkpt lat="43.16082" lon="5.77916">
        <ele>288.890625</ele>
        <time>2020-11-29T10:03:38Z</time>
      </trkpt>
      <trkpt lat="43.16083" lon="5.77917">
        <ele>289.09765625</ele>
        <time>2020-11-29T10:03:39Z</time>
      </trkpt>
      <trkpt lat="43.16083" lon="5.77919">
        <ele>289.1640625</ele>
        <time>2020-11-29T10:03:40Z</time>
      </trkpt>
      <trkpt lat="43.16083" lon="5.77921">
        <ele>289.08984375</ele>
        <time>2020-11-29T10:03:41Z</time>
      </trkpt>
      <trkpt lat="43.16082" lon="5.77923">
        <ele>288.94921875</ele>
        <time>2020-11-29T10:03:42Z</time>
      </trkpt>
      <trkpt lat="43.16082" lon="5.77924">
        <ele>288.84765625</ele>
        <time>2020-11-29T10:03:43Z</time>
      </trkpt>
      <trkpt lat="43.16078" lon="5.77936">
        <ele>288.5</ele>
        <time>2020-11-29T10:03:53Z</time>
      </trkpt>
      <trkpt lat="43.16081" lon="5.77941">
        <ele>289.34765625</ele>
        <time>2020-11-29T10:03:57Z</time>
      </trkpt>
      <trkpt lat="43.16081" lon="5.77942">
        <ele>289.56640625</ele>
        <time>2020-11-29T10:03:58Z</time>
      </trkpt>
      <trkpt lat="43.16081" lon="5.77944">
        <ele>289.703125</ele>
        <time>2020-11-29T10:03:59Z</time>
      </trkpt>
      <trkpt lat="43.16081" lon="5.77945">
        <ele>289.7421875</ele>
        <time>2020-11-29T10:04:00Z</time>
      </trkpt>
      <trkpt lat="43.16078" lon="5.77963">
        <ele>290.25</ele>
        <time>2020-11-29T10:04:12Z</time>
      </trkpt>
      <trkpt lat="43.16078" lon="5.77964">
        <ele>290.52734375</ele>
        <time>2020-11-29T10:04:13Z</time>
      </trkpt>
      <trkpt lat="43.16074" lon="5.77976">
        <ele>290.8515625</ele>
        <time>2020-11-29T10:04:23Z</time>
      </trkpt>
      <trkpt lat="43.16073" lon="5.77981">
        <ele>290.9921875</ele>
        <time>2020-11-29T10:04:27Z</time>
      </trkpt>
      <trkpt lat="43.16073" lon="5.77982">
        <ele>291.078125</ele>
        <time>2020-11-29T10:04:28Z</time>
      </trkpt>
      <trkpt lat="43.16072" lon="5.77984">
        <ele>291.0078125</ele>
        <time>2020-11-29T10:04:29Z</time>
      </trkpt>
      <trkpt lat="43.16071" lon="5.77986">
        <ele>290.9765625</ele>
        <time>2020-11-29T10:04:30Z</time>
      </trkpt>
      <trkpt lat="43.16071" lon="5.77987">
        <ele>290.98046875</ele>
        <time>2020-11-29T10:04:31Z</time>
      </trkpt>
      <trkpt lat="43.16071" lon="5.77989">
        <ele>290.98828125</ele>
        <time>2020-11-29T10:04:32Z</time>
      </trkpt>
      <trkpt lat="43.1607" lon="5.77991">
        <ele>291.0390625</ele>
        <time>2020-11-29T10:04:33Z</time>
      </trkpt>
      <trkpt lat="43.1607" lon="5.77992">
        <ele>291.0078125</ele>
        <time>2020-11-29T10:04:34Z</time>
      </trkpt>
      <trkpt lat="43.16069" lon="5.77993">
        <ele>290.90625</ele>
        <time>2020-11-29T10:04:35Z</time>
      </trkpt>
      <trkpt lat="43.16068" lon="5.77995">
        <ele>290.8125</ele>
        <time>2020-11-29T10:04:36Z</time>
      </trkpt>
      <trkpt lat="43.16067" lon="5.77995">
        <ele>290.66796875</ele>
        <time>2020-11-29T10:04:37Z</time>
      </trkpt>
      <trkpt lat="43.16061" lon="5.78012">
        <ele>289.75</ele>
        <time>2020-11-29T10:04:49Z</time>
      </trkpt>
      <trkpt lat="43.16055" lon="5.78028">
        <ele>286.546875</ele>
        <time>2020-11-29T10:04:59Z</time>
      </trkpt>
      <trkpt lat="43.16052" lon="5.78032">
        <ele>285.7578125</ele>
        <time>2020-11-29T10:05:12Z</time>
      </trkpt>
      <trkpt lat="43.16051" lon="5.78032">
        <ele>285.50390625</ele>
        <time>2020-11-29T10:05:35Z</time>
      </trkpt>
      <trkpt lat="43.16048" lon="5.78051">
        <ele>282.453125</ele>
        <time>2020-11-29T10:05:49Z</time>
      </trkpt>
      <trkpt lat="43.16047" lon="5.78054">
        <ele>281.99609375</ele>
        <time>2020-11-29T10:05:50Z</time>
      </trkpt>
      <trkpt lat="43.16056" lon="5.78077">
        <ele>277.7890625</ele>
        <time>2020-11-29T10:06:04Z</time>
      </trkpt>
      <trkpt lat="43.16056" lon="5.78076">
        <ele>277.9609375</ele>
        <time>2020-11-29T10:06:28Z</time>
      </trkpt>
      <trkpt lat="43.16055" lon="5.78077">
        <ele>277.9140625</ele>
        <time>2020-11-29T10:06:45Z</time>
      </trkpt>
      <trkpt lat="43.16056" lon="5.78065">
        <ele>280.65625</ele>
        <time>2020-11-29T10:06:58Z</time>
      </trkpt>
      <trkpt lat="43.16054" lon="5.78065">
        <ele>280.5546875</ele>
        <time>2020-11-29T10:07:31Z</time>
      </trkpt>
      <trkpt lat="43.16051" lon="5.78065">
        <ele>280.4375</ele>
        <time>2020-11-29T10:08:11Z</time>
      </trkpt>
      <trkpt lat="43.1605" lon="5.78066">
        <ele>280.23828125</ele>
        <time>2020-11-29T10:08:51Z</time>
      </trkpt>
      <trkpt lat="43.1605" lon="5.78065">
        <ele>280.32421875</ele>
        <time>2020-11-29T10:09:30Z</time>
      </trkpt>
      <trkpt lat="43.16051" lon="5.78066">
        <ele>280.2265625</ele>
        <time>2020-11-29T10:10:06Z</time>
      </trkpt>
      <trkpt lat="43.16053" lon="5.78068">
        <ele>279.890625</ele>
        <time>2020-11-29T10:10:45Z</time>
      </trkpt>
      <trkpt lat="43.16053" lon="5.78069">
        <ele>279.6328125</ele>
        <time>2020-11-29T10:11:27Z</time>
      </trkpt>
      <trkpt lat="43.16053" lon="5.78073">
        <ele>278.6328125</ele>
        <time>2020-11-29T10:12:05Z</time>
      </trkpt>
      <trkpt lat="43.16054" lon="5.7807">
        <ele>279.3046875</ele>
        <time>2020-11-29T10:12:35Z</time>
      </trkpt>
      <trkpt lat="43.16053" lon="5.78072">
        <ele>278.99609375</ele>
        <time>2020-11-29T10:13:17Z</time>
      </trkpt>
      <trkpt lat="43.16052" lon="5.78071">
        <ele>279.15234375</ele>
        <time>2020-11-29T10:13:47Z</time>
      </trkpt>
      <trkpt lat="43.16053" lon="5.7807">
        <ele>279.2578125</ele>
        <time>2020-11-29T10:14:22Z</time>
      </trkpt>
      <trkpt lat="43.16056" lon="5.78071">
        <ele>279.24609375</ele>
        <time>2020-11-29T10:15:04Z</time>
      </trkpt>
      <trkpt lat="43.16054" lon="5.78068">
        <ele>279.75</ele>
        <time>2020-11-29T10:15:38Z</time>
      </trkpt>
      <trkpt lat="43.16055" lon="5.78069">
        <ele>279.58984375</ele>
        <time>2020-11-29T10:16:22Z</time>
      </trkpt>
      <trkpt lat="43.16052" lon="5.78068">
        <ele>279.734375</ele>
        <time>2020-11-29T10:16:58Z</time>
      </trkpt>
      <trkpt lat="43.16052" lon="5.78068">
        <ele>279.69140625</ele>
        <time>2020-11-29T10:17:16Z</time>
      </trkpt>
      <trkpt lat="43.16046" lon="5.7807">
        <ele>279.2734375</ele>
        <time>2020-11-29T10:17:21Z</time>
      </trkpt>
      <trkpt lat="43.16039" lon="5.78076">
        <ele>277.93359375</ele>
        <time>2020-11-29T10:17:28Z</time>
      </trkpt>
      <trkpt lat="43.16035" lon="5.78079">
        <ele>277.2890625</ele>
        <time>2020-11-29T10:17:32Z</time>
      </trkpt>
      <trkpt lat="43.16025" lon="5.78088">
        <ele>275.65625</ele>
        <time>2020-11-29T10:17:42Z</time>
      </trkpt>
      <trkpt lat="43.16022" lon="5.78095">
        <ele>274.50390625</ele>
        <time>2020-11-29T10:17:45Z</time>
      </trkpt>
      <trkpt lat="43.16016" lon="5.78098">
        <ele>273.8671875</ele>
        <time>2020-11-29T10:17:56Z</time>
      </trkpt>
      <trkpt lat="43.16014" lon="5.78106">
        <ele>272.3125</ele>
        <time>2020-11-29T10:18:01Z</time>
      </trkpt>
      <trkpt lat="43.16011" lon="5.78115">
        <ele>270.796875</ele>
        <time>2020-11-29T10:18:06Z</time>
      </trkpt>
      <trkpt lat="43.16011" lon="5.7812">
        <ele>269.94921875</ele>
        <time>2020-11-29T10:18:08Z</time>
      </trkpt>
      <trkpt lat="43.16006" lon="5.7813">
        <ele>268.015625</ele>
        <time>2020-11-29T10:18:14Z</time>
      </trkpt>
      <trkpt lat="43.16008" lon="5.78134">
        <ele>267.08203125</ele>
        <time>2020-11-29T10:18:25Z</time>
      </trkpt>
      <trkpt lat="43.16009" lon="5.7814">
        <ele>265.7421875</ele>
        <time>2020-11-29T10:18:35Z</time>
      </trkpt>
      <trkpt lat="43.16012" lon="5.78146">
        <ele>264.01171875</ele>
        <time>2020-11-29T10:18:40Z</time>
      </trkpt>
      <trkpt lat="43.16015" lon="5.78146">
        <ele>263.7421875</ele>
        <time>2020-11-29T10:18:42Z</time>
      </trkpt>
      <trkpt lat="43.16025" lon="5.78149">
        <ele>262.08203125</ele>
        <time>2020-11-29T10:18:49Z</time>
      </trkpt>
      <trkpt lat="43.16033" lon="5.78139">
        <ele>263.6328125</ele>
        <time>2020-11-29T10:19:02Z</time>
      </trkpt>
      <trkpt lat="43.16037" lon="5.78136">
        <ele>263.94921875</ele>
        <time>2020-11-29T10:19:08Z</time>
      </trkpt>
      <trkpt lat="43.16054" lon="5.7813">
        <ele>264.7109375</ele>
        <time>2020-11-29T10:19:19Z</time>
      </trkpt>
      <trkpt lat="43.16059" lon="5.78124">
        <ele>266.015625</ele>
        <time>2020-11-29T10:19:29Z</time>
      </trkpt>
      <trkpt lat="43.16065" lon="5.78116">
        <ele>268.01953125</ele>
        <time>2020-11-29T10:19:42Z</time>
      </trkpt>
      <trkpt lat="43.16069" lon="5.78114">
        <ele>269.19140625</ele>
        <time>2020-11-29T10:19:58Z</time>
      </trkpt>
      <trkpt lat="43.16073" lon="5.78117">
        <ele>269.3671875</ele>
        <time>2020-11-29T10:20:10Z</time>
      </trkpt>
      <trkpt lat="43.16073" lon="5.78122">
        <ele>267.8125</ele>
        <time>2020-11-29T10:20:21Z</time>
      </trkpt>
      <trkpt lat="43.16068" lon="5.78134">
        <ele>263.671875</ele>
        <time>2020-11-29T10:20:30Z</time>
      </trkpt>
      <trkpt lat="43.16069" lon="5.78137">
        <ele>263.046875</ele>
        <time>2020-11-29T10:20:44Z</time>
      </trkpt>
      <trkpt lat="43.1607" lon="5.78142">
        <ele>261.55859375</ele>
        <time>2020-11-29T10:20:52Z</time>
      </trkpt>
      <trkpt lat="43.16067" lon="5.78145">
        <ele>260.328125</ele>
        <time>2020-11-29T10:20:58Z</time>
      </trkpt>
      <trkpt lat="43.16063" lon="5.7815">
        <ele>258.59765625</ele>
        <time>2020-11-29T10:21:05Z</time>
      </trkpt>
      <trkpt lat="43.16063" lon="5.78153">
        <ele>257.91015625</ele>
        <time>2020-11-29T10:21:07Z</time>
      </trkpt>
      <trkpt lat="43.16066" lon="5.78155">
        <ele>257.921875</ele>
        <time>2020-11-29T10:21:09Z</time>
      </trkpt>
      <trkpt lat="43.16073" lon="5.78158">
        <ele>258.84375</ele>
        <time>2020-11-29T10:21:13Z</time>
      </trkpt>
      <trkpt lat="43.16077" lon="5.78163">
        <ele>258.82421875</ele>
        <time>2020-11-29T10:21:15Z</time>
      </trkpt>
      <trkpt lat="43.16081" lon="5.78167">
        <ele>259.015625</ele>
        <time>2020-11-29T10:21:16Z</time>
      </trkpt>
      <trkpt lat="43.16085" lon="5.78169">
        <ele>259.9765625</ele>
        <time>2020-11-29T10:21:17Z</time>
      </trkpt>
      <trkpt lat="43.1609" lon="5.7817">
        <ele>261.26171875</ele>
        <time>2020-11-29T10:21:18Z</time>
      </trkpt>
      <trkpt lat="43.16096" lon="5.78171">
        <ele>262.453125</ele>
        <time>2020-11-29T10:21:19Z</time>
      </trkpt>
      <trkpt lat="43.16101" lon="5.78174">
        <ele>263.2734375</ele>
        <time>2020-11-29T10:21:20Z</time>
      </trkpt>
      <trkpt lat="43.16105" lon="5.78179">
        <ele>263.7109375</ele>
        <time>2020-11-29T10:21:21Z</time>
      </trkpt>
      <trkpt lat="43.16109" lon="5.78185">
        <ele>263.9921875</ele>
        <time>2020-11-29T10:21:22Z</time>
      </trkpt>
      <trkpt lat="43.16112" lon="5.78193">
        <ele>263.84765625</ele>
        <time>2020-11-29T10:21:23Z</time>
      </trkpt>
      <trkpt lat="43.16113" lon="5.78199">
        <ele>263.36328125</ele>
        <time>2020-11-29T10:21:24Z</time>
      </trkpt>
      <trkpt lat="43.16113" lon="5.78203">
        <ele>263.00390625</ele>
        <time>2020-11-29T10:21:25Z</time>
      </trkpt>
      <trkpt lat="43.16114" lon="5.78205">
        <ele>263.109375</ele>
        <time>2020-11-29T10:21:27Z</time>
      </trkpt>
      <trkpt lat="43.16117" lon="5.78222">
        <ele>264.04296875</ele>
        <time>2020-11-29T10:21:42Z</time>
      </trkpt>
      <trkpt lat="43.16121" lon="5.78309">
        <ele>270.53125</ele>
        <time>2020-11-29T10:21:52Z</time>
      </trkpt>
      <trkpt lat="43.16117" lon="5.78384">
        <ele>276.5</ele>
        <time>2020-11-29T10:22:00Z</time>
      </trkpt>
      <trkpt lat="43.16114" lon="5.78393">
        <ele>276.09765625</ele>
        <time>2020-11-29T10:22:01Z</time>
      </trkpt>
      <trkpt lat="43.16091" lon="5.78472">
        <ele>265.0078125</ele>
        <time>2020-11-29T10:22:10Z</time>
      </trkpt>
      <trkpt lat="43.1609" lon="5.7848">
        <ele>263.77734375</ele>
        <time>2020-11-29T10:22:11Z</time>
      </trkpt>
      <trkpt lat="43.1609" lon="5.78488">
        <ele>262.55859375</ele>
        <time>2020-11-29T10:22:12Z</time>
      </trkpt>
      <trkpt lat="43.16091" lon="5.78496">
        <ele>261.7265625</ele>
        <time>2020-11-29T10:22:13Z</time>
      </trkpt>
      <trkpt lat="43.16092" lon="5.78503">
        <ele>261.27734375</ele>
        <time>2020-11-29T10:22:14Z</time>
      </trkpt>
      <trkpt lat="43.16094" lon="5.78511">
        <ele>261.40234375</ele>
        <time>2020-11-29T10:22:15Z</time>
      </trkpt>
      <trkpt lat="43.16096" lon="5.78517">
        <ele>261.8671875</ele>
        <time>2020-11-29T10:22:16Z</time>
      </trkpt>
      <trkpt lat="43.16099" lon="5.78524">
        <ele>262.48828125</ele>
        <time>2020-11-29T10:22:17Z</time>
      </trkpt>
      <trkpt lat="43.16117" lon="5.78569">
        <ele>264.05859375</ele>
        <time>2020-11-29T10:22:28Z</time>
      </trkpt>
      <trkpt lat="43.16131" lon="5.78607">
        <ele>261.19140625</ele>
        <time>2020-11-29T10:22:42Z</time>
      </trkpt>
      <trkpt lat="43.16148" lon="5.78643">
        <ele>260.13671875</ele>
        <time>2020-11-29T10:22:56Z</time>
      </trkpt>
      <trkpt lat="43.16176" lon="5.78677">
        <ele>257.75</ele>
        <time>2020-11-29T10:23:12Z</time>
      </trkpt>
      <trkpt lat="43.16194" lon="5.78728">
        <ele>242.4140625</ele>
        <time>2020-11-29T10:23:28Z</time>
      </trkpt>
      <trkpt lat="43.16191" lon="5.78747">
        <ele>242.7421875</ele>
        <time>2020-11-29T10:23:34Z</time>
      </trkpt>
      <trkpt lat="43.16193" lon="5.78747">
        <ele>241.5390625</ele>
        <time>2020-11-29T10:23:35Z</time>
      </trkpt>
      <trkpt lat="43.16195" lon="5.78746">
        <ele>240.0859375</ele>
        <time>2020-11-29T10:23:36Z</time>
      </trkpt>
      <trkpt lat="43.16213" lon="5.78743">
        <ele>228.51953125</ele>
        <time>2020-11-29T10:23:44Z</time>
      </trkpt>
      <trkpt lat="43.16213" lon="5.78742">
        <ele>229.0078125</ele>
        <time>2020-11-29T10:24:07Z</time>
      </trkpt>
      <trkpt lat="43.16213" lon="5.78742">
        <ele>228.89453125</ele>
        <time>2020-11-29T10:24:39Z</time>
      </trkpt>
      <trkpt lat="43.16212" lon="5.78742">
        <ele>229.234375</ele>
        <time>2020-11-29T10:25:18Z</time>
      </trkpt>
      <trkpt lat="43.16214" lon="5.78742">
        <ele>228.2734375</ele>
        <time>2020-11-29T10:25:53Z</time>
      </trkpt>
      <trkpt lat="43.16212" lon="5.78743">
        <ele>229.44921875</ele>
        <time>2020-11-29T10:26:24Z</time>
      </trkpt>
      <trkpt lat="43.16211" lon="5.78743">
        <ele>229.66796875</ele>
        <time>2020-11-29T10:26:55Z</time>
      </trkpt>
      <trkpt lat="43.16213" lon="5.78743">
        <ele>228.46484375</ele>
        <time>2020-11-29T10:27:24Z</time>
      </trkpt>
      <trkpt lat="43.16213" lon="5.78742">
        <ele>228.43359375</ele>
        <time>2020-11-29T10:28:04Z</time>
      </trkpt>
      <trkpt lat="43.16213" lon="5.78743">
        <ele>228.53515625</ele>
        <time>2020-11-29T10:28:33Z</time>
      </trkpt>
      <trkpt lat="43.16211" lon="5.78742">
        <ele>230.25</ele>
        <time>2020-11-29T10:28:48Z</time>
      </trkpt>
      <trkpt lat="43.16209" lon="5.78742">
        <ele>231.27734375</ele>
        <time>2020-11-29T10:28:55Z</time>
      </trkpt>
      <trkpt lat="43.16207" lon="5.78741">
        <ele>232.5859375</ele>
        <time>2020-11-29T10:28:56Z</time>
      </trkpt>
      <trkpt lat="43.16205" lon="5.78741">
        <ele>234.01171875</ele>
        <time>2020-11-29T10:28:57Z</time>
      </trkpt>
      <trkpt lat="43.16202" lon="5.78741">
        <ele>235.625</ele>
        <time>2020-11-29T10:28:58Z</time>
      </trkpt>
      <trkpt lat="43.162" lon="5.78742">
        <ele>237.3515625</ele>
        <time>2020-11-29T10:28:59Z</time>
      </trkpt>
      <trkpt lat="43.16197" lon="5.78743">
        <ele>239.21875</ele>
        <time>2020-11-29T10:29:00Z</time>
      </trkpt>
      <trkpt lat="43.16194" lon="5.78745">
        <ele>241.17578125</ele>
        <time>2020-11-29T10:29:01Z</time>
      </trkpt>
      <trkpt lat="43.16191" lon="5.78747">
        <ele>242.90234375</ele>
        <time>2020-11-29T10:29:02Z</time>
      </trkpt>
      <trkpt lat="43.16189" lon="5.7875">
        <ele>243.94921875</ele>
        <time>2020-11-29T10:29:03Z</time>
      </trkpt>
      <trkpt lat="43.16188" lon="5.78754">
        <ele>244.984375</ele>
        <time>2020-11-29T10:29:04Z</time>
      </trkpt>
      <trkpt lat="43.16186" lon="5.78757">
        <ele>246.03125</ele>
        <time>2020-11-29T10:29:05Z</time>
      </trkpt>
      <trkpt lat="43.16185" lon="5.7876">
        <ele>246.76953125</ele>
        <time>2020-11-29T10:29:06Z</time>
      </trkpt>
      <trkpt lat="43.16185" lon="5.78763">
        <ele>247.265625</ele>
        <time>2020-11-29T10:29:07Z</time>
      </trkpt>
      <trkpt lat="43.16168" lon="5.78786">
        <ele>258.19140625</ele>
        <time>2020-11-29T10:29:20Z</time>
      </trkpt>
      <trkpt lat="43.16166" lon="5.78787">
        <ele>258.8125</ele>
        <time>2020-11-29T10:29:21Z</time>
      </trkpt>
      <trkpt lat="43.16162" lon="5.78791">
        <ele>260.80859375</ele>
        <time>2020-11-29T10:29:24Z</time>
      </trkpt>
      <trkpt lat="43.16161" lon="5.78791">
        <ele>261.40625</ele>
        <time>2020-11-29T10:29:25Z</time>
      </trkpt>
      <trkpt lat="43.1616" lon="5.78793">
        <ele>262.0546875</ele>
        <time>2020-11-29T10:29:26Z</time>
      </trkpt>
      <trkpt lat="43.16159" lon="5.78794">
        <ele>262.609375</ele>
        <time>2020-11-29T10:29:27Z</time>
      </trkpt>
      <trkpt lat="43.16158" lon="5.78796">
        <ele>263.20703125</ele>
        <time>2020-11-29T10:29:28Z</time>
      </trkpt>
      <trkpt lat="43.16157" lon="5.78798">
        <ele>264.0390625</ele>
        <time>2020-11-29T10:29:29Z</time>
      </trkpt>
      <trkpt lat="43.16155" lon="5.788">
        <ele>264.84375</ele>
        <time>2020-11-29T10:29:30Z</time>
      </trkpt>
      <trkpt lat="43.1614" lon="5.78832">
        <ele>272.86328125</ele>
        <time>2020-11-29T10:29:45Z</time>
      </trkpt>
      <trkpt lat="43.16119" lon="5.78855">
        <ele>276.41015625</ele>
        <time>2020-11-29T10:29:58Z</time>
      </trkpt>
      <trkpt lat="43.16108" lon="5.78863">
        <ele>276.84765625</ele>
        <time>2020-11-29T10:30:04Z</time>
      </trkpt>
      <trkpt lat="43.16106" lon="5.78867">
        <ele>277.2265625</ele>
        <time>2020-11-29T10:30:06Z</time>
      </trkpt>
      <trkpt lat="43.16106" lon="5.7887">
        <ele>277.5</ele>
        <time>2020-11-29T10:30:07Z</time>
      </trkpt>
      <trkpt lat="43.16106" lon="5.78872">
        <ele>277.8046875</ele>
        <time>2020-11-29T10:30:08Z</time>
      </trkpt>
      <trkpt lat="43.16106" lon="5.78875">
        <ele>278.1015625</ele>
        <time>2020-11-29T10:30:09Z</time>
      </trkpt>
      <trkpt lat="43.16106" lon="5.78878">
        <ele>278.38671875</ele>
        <time>2020-11-29T10:30:10Z</time>
      </trkpt>
      <trkpt lat="43.16106" lon="5.78881">
        <ele>278.703125</ele>
        <time>2020-11-29T10:30:11Z</time>
      </trkpt>
      <trkpt lat="43.16105" lon="5.78884">
        <ele>278.99609375</ele>
        <time>2020-11-29T10:30:12Z</time>
      </trkpt>
      <trkpt lat="43.16105" lon="5.78886">
        <ele>279.28515625</ele>
        <time>2020-11-29T10:30:13Z</time>
      </trkpt>
      <trkpt lat="43.16105" lon="5.78889">
        <ele>279.5703125</ele>
        <time>2020-11-29T10:30:14Z</time>
      </trkpt>
      <trkpt lat="43.16098" lon="5.78936">
        <ele>281.8203125</ele>
        <time>2020-11-29T10:30:29Z</time>
      </trkpt>
      <trkpt lat="43.1609" lon="5.78974">
        <ele>283.09765625</ele>
        <time>2020-11-29T10:30:42Z</time>
      </trkpt>
      <trkpt lat="43.16078" lon="5.79016">
        <ele>287.23828125</ele>
        <time>2020-11-29T10:30:57Z</time>
      </trkpt>
      <trkpt lat="43.16067" lon="5.7904">
        <ele>290.15625</ele>
        <time>2020-11-29T10:31:08Z</time>
      </trkpt>
      <trkpt lat="43.16037" lon="5.79071">
        <ele>291.53515625</ele>
        <time>2020-11-29T10:31:24Z</time>
      </trkpt>
      <trkpt lat="43.16024" lon="5.79113">
        <ele>293.61328125</ele>
        <time>2020-11-29T10:31:40Z</time>
      </trkpt>
      <trkpt lat="43.16022" lon="5.79126">
        <ele>294.43359375</ele>
        <time>2020-11-29T10:31:45Z</time>
      </trkpt>
      <trkpt lat="43.16022" lon="5.79129">
        <ele>294.65234375</ele>
        <time>2020-11-29T10:31:46Z</time>
      </trkpt>
      <trkpt lat="43.16021" lon="5.79141">
        <ele>295.38671875</ele>
        <time>2020-11-29T10:31:51Z</time>
      </trkpt>
      <trkpt lat="43.1602" lon="5.79142">
        <ele>295.3828125</ele>
        <time>2020-11-29T10:31:52Z</time>
      </trkpt>
      <trkpt lat="43.16018" lon="5.79143">
        <ele>295.30859375</ele>
        <time>2020-11-29T10:31:53Z</time>
      </trkpt>
      <trkpt lat="43.16016" lon="5.79143">
        <ele>295.20703125</ele>
        <time>2020-11-29T10:31:54Z</time>
      </trkpt>
      <trkpt lat="43.16015" lon="5.79144">
        <ele>295.1328125</ele>
        <time>2020-11-29T10:31:55Z</time>
      </trkpt>
      <trkpt lat="43.15997" lon="5.79157">
        <ele>294.96484375</ele>
        <time>2020-11-29T10:32:08Z</time>
      </trkpt>
      <trkpt lat="43.15994" lon="5.79159">
        <ele>294.93359375</ele>
        <time>2020-11-29T10:32:21Z</time>
      </trkpt>
      <trkpt lat="43.15993" lon="5.79159">
        <ele>294.9140625</ele>
        <time>2020-11-29T10:32:54Z</time>
      </trkpt>
      <trkpt lat="43.15993" lon="5.79156">
        <ele>294.703125</ele>
        <time>2020-11-29T10:33:20Z</time>
      </trkpt>
      <trkpt lat="43.15992" lon="5.79152">
        <ele>294.1953125</ele>
        <time>2020-11-29T10:33:49Z</time>
      </trkpt>
      <trkpt lat="43.1599" lon="5.79156">
        <ele>294.45703125</ele>
        <time>2020-11-29T10:34:06Z</time>
      </trkpt>
      <trkpt lat="43.15989" lon="5.79158">
        <ele>294.66796875</ele>
        <time>2020-11-29T10:34:07Z</time>
      </trkpt>
      <trkpt lat="43.16" lon="5.79163">
        <ele>295.62109375</ele>
        <time>2020-11-29T10:34:14Z</time>
      </trkpt>
      <trkpt lat="43.16001" lon="5.79161">
        <ele>295.53125</ele>
        <time>2020-11-29T10:34:15Z</time>
      </trkpt>
      <trkpt lat="43.16002" lon="5.79158">
        <ele>295.34765625</ele>
        <time>2020-11-29T10:34:16Z</time>
      </trkpt>
      <trkpt lat="43.16003" lon="5.79154">
        <ele>295.10546875</ele>
        <time>2020-11-29T10:34:17Z</time>
      </trkpt>
      <trkpt lat="43.16003" lon="5.79151">
        <ele>294.84375</ele>
        <time>2020-11-29T10:34:18Z</time>
      </trkpt>
      <trkpt lat="43.16003" lon="5.79148">
        <ele>294.56640625</ele>
        <time>2020-11-29T10:34:19Z</time>
      </trkpt>
      <trkpt lat="43.16001" lon="5.79146">
        <ele>294.29296875</ele>
        <time>2020-11-29T10:34:20Z</time>
      </trkpt>
      <trkpt lat="43.15999" lon="5.79145">
        <ele>294.09375</ele>
        <time>2020-11-29T10:34:21Z</time>
      </trkpt>
      <trkpt lat="43.15996" lon="5.79144">
        <ele>293.89453125</ele>
        <time>2020-11-29T10:34:22Z</time>
      </trkpt>
      <trkpt lat="43.15994" lon="5.79143">
        <ele>293.63671875</ele>
        <time>2020-11-29T10:34:23Z</time>
      </trkpt>
      <trkpt lat="43.15992" lon="5.79142">
        <ele>293.390625</ele>
        <time>2020-11-29T10:34:24Z</time>
      </trkpt>
      <trkpt lat="43.15989" lon="5.79143">
        <ele>293.19921875</ele>
        <time>2020-11-29T10:34:26Z</time>
      </trkpt>
      <trkpt lat="43.15988" lon="5.79149">
        <ele>293.609375</ele>
        <time>2020-11-29T10:34:38Z</time>
      </trkpt>
      <trkpt lat="43.15984" lon="5.79155">
        <ele>294.06640625</ele>
        <time>2020-11-29T10:34:59Z</time>
      </trkpt>
      <trkpt lat="43.15983" lon="5.79156">
        <ele>294.05859375</ele>
        <time>2020-11-29T10:35:00Z</time>
      </trkpt>
      <trkpt lat="43.15959" lon="5.79158">
        <ele>291.4296875</ele>
        <time>2020-11-29T10:35:12Z</time>
      </trkpt>
      <trkpt lat="43.15942" lon="5.79155">
        <ele>289.18359375</ele>
        <time>2020-11-29T10:35:16Z</time>
      </trkpt>
      <trkpt lat="43.1593" lon="5.79153">
        <ele>287.6796875</ele>
        <time>2020-11-29T10:35:19Z</time>
      </trkpt>
      <trkpt lat="43.15908" lon="5.79175">
        <ele>285.3671875</ele>
        <time>2020-11-29T10:35:25Z</time>
      </trkpt>
      <trkpt lat="43.159" lon="5.79183">
        <ele>284.9140625</ele>
        <time>2020-11-29T10:35:27Z</time>
      </trkpt>
      <trkpt lat="43.1589" lon="5.79189">
        <ele>283.765625</ele>
        <time>2020-11-29T10:35:30Z</time>
      </trkpt>
      <trkpt lat="43.15883" lon="5.79189">
        <ele>282.55859375</ele>
        <time>2020-11-29T10:35:32Z</time>
      </trkpt>
      <trkpt lat="43.15871" lon="5.79187">
        <ele>280.51171875</ele>
        <time>2020-11-29T10:35:35Z</time>
      </trkpt>
      <trkpt lat="43.15867" lon="5.79185">
        <ele>279.5546875</ele>
        <time>2020-11-29T10:35:37Z</time>
      </trkpt>
      <trkpt lat="43.15856" lon="5.79185">
        <ele>277.5078125</ele>
        <time>2020-11-29T10:35:42Z</time>
      </trkpt>
      <trkpt lat="43.1585" lon="5.79187">
        <ele>276.61328125</ele>
        <time>2020-11-29T10:35:45Z</time>
      </trkpt>
      <trkpt lat="43.15843" lon="5.7919">
        <ele>275.76171875</ele>
        <time>2020-11-29T10:35:48Z</time>
      </trkpt>
      <trkpt lat="43.15827" lon="5.79203">
        <ele>272.5390625</ele>
        <time>2020-11-29T10:35:53Z</time>
      </trkpt>
      <trkpt lat="43.15811" lon="5.79214">
        <ele>270.3203125</ele>
        <time>2020-11-29T10:35:59Z</time>
      </trkpt>
      <trkpt lat="43.15801" lon="5.79226">
        <ele>269.23828125</ele>
        <time>2020-11-29T10:36:02Z</time>
      </trkpt>
      <trkpt lat="43.15797" lon="5.79233">
        <ele>268.89453125</ele>
        <time>2020-11-29T10:36:04Z</time>
      </trkpt>
      <trkpt lat="43.15784" lon="5.79242">
        <ele>266.515625</ele>
        <time>2020-11-29T10:36:08Z</time>
      </trkpt>
      <trkpt lat="43.15771" lon="5.79248">
        <ele>263.5234375</ele>
        <time>2020-11-29T10:36:11Z</time>
      </trkpt>
      <trkpt lat="43.15753" lon="5.79262">
        <ele>260.86328125</ele>
        <time>2020-11-29T10:36:16Z</time>
      </trkpt>
      <trkpt lat="43.15749" lon="5.79264">
        <ele>260.32421875</ele>
        <time>2020-11-29T10:36:17Z</time>
      </trkpt>
      <trkpt lat="43.15744" lon="5.79271">
        <ele>260.07421875</ele>
        <time>2020-11-29T10:36:19Z</time>
      </trkpt>
      <trkpt lat="43.15726" lon="5.79275">
        <ele>255.94921875</ele>
        <time>2020-11-29T10:36:24Z</time>
      </trkpt>
      <trkpt lat="43.15716" lon="5.79271">
        <ele>253.22265625</ele>
        <time>2020-11-29T10:36:27Z</time>
      </trkpt>
      <trkpt lat="43.15699" lon="5.79253">
        <ele>245.27734375</ele>
        <time>2020-11-29T10:36:33Z</time>
      </trkpt>
      <trkpt lat="43.15694" lon="5.79248">
        <ele>243.44921875</ele>
        <time>2020-11-29T10:36:35Z</time>
      </trkpt>
      <trkpt lat="43.15683" lon="5.79244">
        <ele>241.3203125</ele>
        <time>2020-11-29T10:36:38Z</time>
      </trkpt>
      <trkpt lat="43.15666" lon="5.79235">
        <ele>238.828125</ele>
        <time>2020-11-29T10:36:43Z</time>
      </trkpt>
      <trkpt lat="43.15663" lon="5.79233">
        <ele>238.27734375</ele>
        <time>2020-11-29T10:36:44Z</time>
      </trkpt>
      <trkpt lat="43.15652" lon="5.79225">
        <ele>235.9296875</ele>
        <time>2020-11-29T10:36:48Z</time>
      </trkpt>
      <trkpt lat="43.1565" lon="5.79224">
        <ele>235.51953125</ele>
        <time>2020-11-29T10:36:49Z</time>
      </trkpt>
      <trkpt lat="43.15636" lon="5.79218">
        <ele>233.640625</ele>
        <time>2020-11-29T10:36:54Z</time>
      </trkpt>
      <trkpt lat="43.15632" lon="5.79212">
        <ele>231.6796875</ele>
        <time>2020-11-29T10:36:57Z</time>
      </trkpt>
      <trkpt lat="43.15615" lon="5.79201">
        <ele>227.2265625</ele>
        <time>2020-11-29T10:37:08Z</time>
      </trkpt>
      <trkpt lat="43.1561" lon="5.79197">
        <ele>225.84375</ele>
        <time>2020-11-29T10:37:10Z</time>
      </trkpt>
      <trkpt lat="43.15597" lon="5.79192">
        <ele>224.21875</ele>
        <time>2020-11-29T10:37:14Z</time>
      </trkpt>
      <trkpt lat="43.15576" lon="5.79197">
        <ele>225.3984375</ele>
        <time>2020-11-29T10:37:19Z</time>
      </trkpt>
      <trkpt lat="43.15545" lon="5.79201">
        <ele>224.9765625</ele>
        <time>2020-11-29T10:37:29Z</time>
      </trkpt>
      <trkpt lat="43.15525" lon="5.79213">
        <ele>226.1953125</ele>
        <time>2020-11-29T10:37:39Z</time>
      </trkpt>
      <trkpt lat="43.15521" lon="5.79215">
        <ele>226.14453125</ele>
        <time>2020-11-29T10:37:41Z</time>
      </trkpt>
      <trkpt lat="43.15513" lon="5.7923">
        <ele>229.53515625</ele>
        <time>2020-11-29T10:37:48Z</time>
      </trkpt>
      <trkpt lat="43.15509" lon="5.79231">
        <ele>229.05078125</ele>
        <time>2020-11-29T10:37:51Z</time>
      </trkpt>
      <trkpt lat="43.15492" lon="5.79241">
        <ele>228.1875</ele>
        <time>2020-11-29T10:37:58Z</time>
      </trkpt>
      <trkpt lat="43.15479" lon="5.79239">
        <ele>224.3203125</ele>
        <time>2020-11-29T10:38:02Z</time>
      </trkpt>
      <trkpt lat="43.15475" lon="5.79239">
        <ele>223.21875</ele>
        <time>2020-11-29T10:38:04Z</time>
      </trkpt>
      <trkpt lat="43.15462" lon="5.79243">
        <ele>221.73828125</ele>
        <time>2020-11-29T10:38:14Z</time>
      </trkpt>
      <trkpt lat="43.15461" lon="5.79244">
        <ele>221.7734375</ele>
        <time>2020-11-29T10:38:15Z</time>
      </trkpt>
      <trkpt lat="43.15447" lon="5.79247">
        <ele>219.40234375</ele>
        <time>2020-11-29T10:38:20Z</time>
      </trkpt>
      <trkpt lat="43.15439" lon="5.79252">
        <ele>219.44140625</ele>
        <time>2020-11-29T10:38:28Z</time>
      </trkpt>
      <trkpt lat="43.15418" lon="5.79259">
        <ele>217.69140625</ele>
        <time>2020-11-29T10:38:39Z</time>
      </trkpt>
      <trkpt lat="43.1541" lon="5.79264">
        <ele>217.42578125</ele>
        <time>2020-11-29T10:38:41Z</time>
      </trkpt>
      <trkpt lat="43.15405" lon="5.79267">
        <ele>217.39453125</ele>
        <time>2020-11-29T10:38:54Z</time>
      </trkpt>
      <trkpt lat="43.15403" lon="5.79268">
        <ele>217.3359375</ele>
        <time>2020-11-29T10:39:03Z</time>
      </trkpt>
      <trkpt lat="43.15383" lon="5.79275">
        <ele>214.6171875</ele>
        <time>2020-11-29T10:39:10Z</time>
      </trkpt>
      <trkpt lat="43.15374" lon="5.79275">
        <ele>212.78515625</ele>
        <time>2020-11-29T10:39:12Z</time>
      </trkpt>
      <trkpt lat="43.1537" lon="5.79276">
        <ele>211.9140625</ele>
        <time>2020-11-29T10:39:13Z</time>
      </trkpt>
      <trkpt lat="43.15365" lon="5.79276">
        <ele>210.61328125</ele>
        <time>2020-11-29T10:39:14Z</time>
      </trkpt>
      <trkpt lat="43.1536" lon="5.79277">
        <ele>209.49609375</ele>
        <time>2020-11-29T10:39:15Z</time>
      </trkpt>
      <trkpt lat="43.15357" lon="5.79279">
        <ele>209.03515625</ele>
        <time>2020-11-29T10:39:16Z</time>
      </trkpt>
      <trkpt lat="43.15354" lon="5.79282">
        <ele>209.19140625</ele>
        <time>2020-11-29T10:39:17Z</time>
      </trkpt>
      <trkpt lat="43.15352" lon="5.79288">
        <ele>210.08203125</ele>
        <time>2020-11-29T10:39:18Z</time>
      </trkpt>
      <trkpt lat="43.1535" lon="5.79295">
        <ele>211.30078125</ele>
        <time>2020-11-29T10:39:19Z</time>
      </trkpt>
      <trkpt lat="43.15348" lon="5.79301">
        <ele>212.31640625</ele>
        <time>2020-11-29T10:39:20Z</time>
      </trkpt>
      <trkpt lat="43.15345" lon="5.79307">
        <ele>212.953125</ele>
        <time>2020-11-29T10:39:21Z</time>
      </trkpt>
      <trkpt lat="43.15343" lon="5.79312">
        <ele>213.3828125</ele>
        <time>2020-11-29T10:39:22Z</time>
      </trkpt>
      <trkpt lat="43.15326" lon="5.79334">
        <ele>212</ele>
        <time>2020-11-29T10:39:27Z</time>
      </trkpt>
      <trkpt lat="43.15314" lon="5.79347">
        <ele>209.78515625</ele>
        <time>2020-11-29T10:39:30Z</time>
      </trkpt>
      <trkpt lat="43.15303" lon="5.79361">
        <ele>208.30859375</ele>
        <time>2020-11-29T10:39:33Z</time>
      </trkpt>
      <trkpt lat="43.15301" lon="5.79366">
        <ele>208.3828125</ele>
        <time>2020-11-29T10:39:34Z</time>
      </trkpt>
      <trkpt lat="43.15299" lon="5.7937">
        <ele>208.609375</ele>
        <time>2020-11-29T10:39:35Z</time>
      </trkpt>
      <trkpt lat="43.1528" lon="5.79392">
        <ele>203.52734375</ele>
        <time>2020-11-29T10:39:43Z</time>
      </trkpt>
      <trkpt lat="43.15267" lon="5.79407">
        <ele>199.92578125</ele>
        <time>2020-11-29T10:39:47Z</time>
      </trkpt>
      <trkpt lat="43.15255" lon="5.79427">
        <ele>197.203125</ele>
        <time>2020-11-29T10:39:51Z</time>
      </trkpt>
      <trkpt lat="43.15252" lon="5.79432">
        <ele>196.16015625</ele>
        <time>2020-11-29T10:39:52Z</time>
      </trkpt>
      <trkpt lat="43.15249" lon="5.79439">
        <ele>195.40625</ele>
        <time>2020-11-29T10:39:53Z</time>
      </trkpt>
      <trkpt lat="43.15247" lon="5.79444">
        <ele>195.0546875</ele>
        <time>2020-11-29T10:39:54Z</time>
      </trkpt>
      <trkpt lat="43.15246" lon="5.79449">
        <ele>195.171875</ele>
        <time>2020-11-29T10:39:55Z</time>
      </trkpt>
      <trkpt lat="43.15245" lon="5.79455">
        <ele>195.5078125</ele>
        <time>2020-11-29T10:39:56Z</time>
      </trkpt>
      <trkpt lat="43.15244" lon="5.79461">
        <ele>195.69140625</ele>
        <time>2020-11-29T10:39:57Z</time>
      </trkpt>
      <trkpt lat="43.15243" lon="5.79468">
        <ele>195.91015625</ele>
        <time>2020-11-29T10:39:58Z</time>
      </trkpt>
      <trkpt lat="43.15242" lon="5.79476">
        <ele>196.23046875</ele>
        <time>2020-11-29T10:39:59Z</time>
      </trkpt>
      <trkpt lat="43.15241" lon="5.79483">
        <ele>196.81640625</ele>
        <time>2020-11-29T10:40:00Z</time>
      </trkpt>
      <trkpt lat="43.15241" lon="5.79489">
        <ele>197.69921875</ele>
        <time>2020-11-29T10:40:01Z</time>
      </trkpt>
      <trkpt lat="43.1524" lon="5.79495">
        <ele>198.0859375</ele>
        <time>2020-11-29T10:40:02Z</time>
      </trkpt>
      <trkpt lat="43.15238" lon="5.79499">
        <ele>198.09765625</ele>
        <time>2020-11-29T10:40:03Z</time>
      </trkpt>
      <trkpt lat="43.15237" lon="5.79502">
        <ele>197.9140625</ele>
        <time>2020-11-29T10:40:04Z</time>
      </trkpt>
      <trkpt lat="43.15234" lon="5.79503">
        <ele>197.1875</ele>
        <time>2020-11-29T10:40:05Z</time>
      </trkpt>
      <trkpt lat="43.15227" lon="5.79504">
        <ele>194.890625</ele>
        <time>2020-11-29T10:40:07Z</time>
      </trkpt>
      <trkpt lat="43.15223" lon="5.79503">
        <ele>193.6875</ele>
        <time>2020-11-29T10:40:08Z</time>
      </trkpt>
      <trkpt lat="43.15221" lon="5.79502">
        <ele>192.70703125</ele>
        <time>2020-11-29T10:40:09Z</time>
      </trkpt>
      <trkpt lat="43.15218" lon="5.79502">
        <ele>191.78515625</ele>
        <time>2020-11-29T10:40:10Z</time>
      </trkpt>
      <trkpt lat="43.15215" lon="5.79501">
        <ele>190.88671875</ele>
        <time>2020-11-29T10:40:11Z</time>
      </trkpt>
      <trkpt lat="43.15201" lon="5.7949">
        <ele>185.29296875</ele>
        <time>2020-11-29T10:40:21Z</time>
      </trkpt>
      <trkpt lat="43.15189" lon="5.79472">
        <ele>180.44921875</ele>
        <time>2020-11-29T10:40:28Z</time>
      </trkpt>
      <trkpt lat="43.1518" lon="5.79468">
        <ele>178.3203125</ele>
        <time>2020-11-29T10:40:36Z</time>
      </trkpt>
      <trkpt lat="43.15175" lon="5.79465">
        <ele>177.09765625</ele>
        <time>2020-11-29T10:41:01Z</time>
      </trkpt>
      <trkpt lat="43.15175" lon="5.79463">
        <ele>176.703125</ele>
        <time>2020-11-29T10:41:02Z</time>
      </trkpt>
      <trkpt lat="43.15176" lon="5.79459">
        <ele>176.24609375</ele>
        <time>2020-11-29T10:41:03Z</time>
      </trkpt>
      <trkpt lat="43.15178" lon="5.79456">
        <ele>175.7890625</ele>
        <time>2020-11-29T10:41:04Z</time>
      </trkpt>
      <trkpt lat="43.15179" lon="5.79452">
        <ele>175.375</ele>
        <time>2020-11-29T10:41:05Z</time>
      </trkpt>
      <trkpt lat="43.15182" lon="5.79445">
        <ele>175</ele>
        <time>2020-11-29T10:41:07Z</time>
      </trkpt>
      <trkpt lat="43.15186" lon="5.79433">
        <ele>173.94921875</ele>
        <time>2020-11-29T10:41:11Z</time>
      </trkpt>
      <trkpt lat="43.15187" lon="5.7943">
        <ele>173.578125</ele>
        <time>2020-11-29T10:41:12Z</time>
      </trkpt>
      <trkpt lat="43.15187" lon="5.79428">
        <ele>173.34765625</ele>
        <time>2020-11-29T10:41:13Z</time>
      </trkpt>
      <trkpt lat="43.15188" lon="5.79426">
        <ele>173.203125</ele>
        <time>2020-11-29T10:41:14Z</time>
      </trkpt>
      <trkpt lat="43.15189" lon="5.79421">
        <ele>172.953125</ele>
        <time>2020-11-29T10:41:18Z</time>
      </trkpt>
      <trkpt lat="43.1519" lon="5.79417">
        <ele>172.70703125</ele>
        <time>2020-11-29T10:41:30Z</time>
      </trkpt>
      <trkpt lat="43.15192" lon="5.79415">
        <ele>172.7265625</ele>
        <time>2020-11-29T10:41:31Z</time>
      </trkpt>
      <trkpt lat="43.15192" lon="5.79412">
        <ele>172.41796875</ele>
        <time>2020-11-29T10:41:32Z</time>
      </trkpt>
      <trkpt lat="43.15191" lon="5.79407">
        <ele>171.77734375</ele>
        <time>2020-11-29T10:41:33Z</time>
      </trkpt>
      <trkpt lat="43.1519" lon="5.79401">
        <ele>171</ele>
        <time>2020-11-29T10:41:34Z</time>
      </trkpt>
      <trkpt lat="43.15191" lon="5.79395">
        <ele>170.3515625</ele>
        <time>2020-11-29T10:41:35Z</time>
      </trkpt>
      <trkpt lat="43.15192" lon="5.79389">
        <ele>169.7578125</ele>
        <time>2020-11-29T10:41:36Z</time>
      </trkpt>
      <trkpt lat="43.15194" lon="5.7938">
        <ele>169.0625</ele>
        <time>2020-11-29T10:41:38Z</time>
      </trkpt>
      <trkpt lat="43.15199" lon="5.79363">
        <ele>167.61328125</ele>
        <time>2020-11-29T10:41:42Z</time>
      </trkpt>
      <trkpt lat="43.152" lon="5.79359">
        <ele>167.11328125</ele>
        <time>2020-11-29T10:41:43Z</time>
      </trkpt>
      <trkpt lat="43.15199" lon="5.79356">
        <ele>166.359375</ele>
        <time>2020-11-29T10:41:44Z</time>
      </trkpt>
      <trkpt lat="43.15197" lon="5.79347">
        <ele>164.4765625</ele>
        <time>2020-11-29T10:41:47Z</time>
      </trkpt>
      <trkpt lat="43.15198" lon="5.79345">
        <ele>164.21484375</ele>
        <time>2020-11-29T10:41:48Z</time>
      </trkpt>
      <trkpt lat="43.15198" lon="5.79341">
        <ele>163.69140625</ele>
        <time>2020-11-29T10:41:49Z</time>
      </trkpt>
      <trkpt lat="43.15198" lon="5.79338">
        <ele>163.1875</ele>
        <time>2020-11-29T10:41:50Z</time>
      </trkpt>
      <trkpt lat="43.15198" lon="5.79334">
        <ele>162.6640625</ele>
        <time>2020-11-29T10:41:51Z</time>
      </trkpt>
      <trkpt lat="43.15198" lon="5.79328">
        <ele>161.78125</ele>
        <time>2020-11-29T10:41:53Z</time>
      </trkpt>
      <trkpt lat="43.15198" lon="5.79325">
        <ele>161.50390625</ele>
        <time>2020-11-29T10:41:54Z</time>
      </trkpt>
      <trkpt lat="43.15198" lon="5.79323">
        <ele>161.18359375</ele>
        <time>2020-11-29T10:41:55Z</time>
      </trkpt>
      <trkpt lat="43.15198" lon="5.79317">
        <ele>160.37109375</ele>
        <time>2020-11-29T10:41:57Z</time>
      </trkpt>
      <trkpt lat="43.15197" lon="5.79304">
        <ele>158.28515625</ele>
        <time>2020-11-29T10:42:05Z</time>
      </trkpt>
      <trkpt lat="43.15198" lon="5.79293">
        <ele>156.84765625</ele>
        <time>2020-11-29T10:42:31Z</time>
      </trkpt>
      <trkpt lat="43.15201" lon="5.79274">
        <ele>154.859375</ele>
        <time>2020-11-29T10:42:38Z</time>
      </trkpt>
      <trkpt lat="43.15203" lon="5.7926">
        <ele>153.12890625</ele>
        <time>2020-11-29T10:42:43Z</time>
      </trkpt>
      <trkpt lat="43.15206" lon="5.79246">
        <ele>152.04296875</ele>
        <time>2020-11-29T10:42:48Z</time>
      </trkpt>
      <trkpt lat="43.15205" lon="5.79243">
        <ele>151.66015625</ele>
        <time>2020-11-29T10:42:49Z</time>
      </trkpt>
      <trkpt lat="43.15205" lon="5.79241">
        <ele>151.25390625</ele>
        <time>2020-11-29T10:42:50Z</time>
      </trkpt>
      <trkpt lat="43.15204" lon="5.79237">
        <ele>150.69921875</ele>
        <time>2020-11-29T10:42:51Z</time>
      </trkpt>
      <trkpt lat="43.15202" lon="5.79234">
        <ele>150.16015625</ele>
        <time>2020-11-29T10:42:52Z</time>
      </trkpt>
      <trkpt lat="43.15201" lon="5.7923">
        <ele>149.62109375</ele>
        <time>2020-11-29T10:42:53Z</time>
      </trkpt>
      <trkpt lat="43.152" lon="5.79227">
        <ele>149.3671875</ele>
        <time>2020-11-29T10:42:54Z</time>
      </trkpt>
      <trkpt lat="43.15199" lon="5.79224">
        <ele>149.1484375</ele>
        <time>2020-11-29T10:42:55Z</time>
      </trkpt>
      <trkpt lat="43.15199" lon="5.79221">
        <ele>149</ele>
        <time>2020-11-29T10:42:56Z</time>
      </trkpt>
      <trkpt lat="43.152" lon="5.79219">
        <ele>148.98046875</ele>
        <time>2020-11-29T10:42:57Z</time>
      </trkpt>
      <trkpt lat="43.15198" lon="5.79217">
        <ele>148.71484375</ele>
        <time>2020-11-29T10:43:11Z</time>
      </trkpt>
      <trkpt lat="43.15201" lon="5.79207">
        <ele>148.60546875</ele>
        <time>2020-11-29T10:43:15Z</time>
      </trkpt>
      <trkpt lat="43.15201" lon="5.79193">
        <ele>147.7421875</ele>
        <time>2020-11-29T10:43:25Z</time>
      </trkpt>
      <trkpt lat="43.15202" lon="5.79173">
        <ele>146.3984375</ele>
        <time>2020-11-29T10:43:37Z</time>
      </trkpt>
      <trkpt lat="43.15202" lon="5.79165">
        <ele>145.38671875</ele>
        <time>2020-11-29T10:43:39Z</time>
      </trkpt>
      <trkpt lat="43.15203" lon="5.79152">
        <ele>144.25</ele>
        <time>2020-11-29T10:43:43Z</time>
      </trkpt>
      <trkpt lat="43.15202" lon="5.79149">
        <ele>143.73828125</ele>
        <time>2020-11-29T10:43:44Z</time>
      </trkpt>
      <trkpt lat="43.15201" lon="5.79146">
        <ele>143.140625</ele>
        <time>2020-11-29T10:43:45Z</time>
      </trkpt>
      <trkpt lat="43.152" lon="5.79144">
        <ele>142.6484375</ele>
        <time>2020-11-29T10:43:46Z</time>
      </trkpt>
      <trkpt lat="43.152" lon="5.79141">
        <ele>142.2109375</ele>
        <time>2020-11-29T10:43:47Z</time>
      </trkpt>
      <trkpt lat="43.15199" lon="5.79138">
        <ele>141.80078125</ele>
        <time>2020-11-29T10:43:48Z</time>
      </trkpt>
      <trkpt lat="43.152" lon="5.79134">
        <ele>141.484375</ele>
        <time>2020-11-29T10:43:49Z</time>
      </trkpt>
      <trkpt lat="43.152" lon="5.79131">
        <ele>141.24609375</ele>
        <time>2020-11-29T10:43:50Z</time>
      </trkpt>
      <trkpt lat="43.15201" lon="5.79127">
        <ele>141.03515625</ele>
        <time>2020-11-29T10:43:51Z</time>
      </trkpt>
      <trkpt lat="43.15201" lon="5.79124">
        <ele>140.80078125</ele>
        <time>2020-11-29T10:43:52Z</time>
      </trkpt>
      <trkpt lat="43.15202" lon="5.79119">
        <ele>140.40234375</ele>
        <time>2020-11-29T10:43:53Z</time>
      </trkpt>
      <trkpt lat="43.15202" lon="5.79114">
        <ele>139.71484375</ele>
        <time>2020-11-29T10:43:54Z</time>
      </trkpt>
      <trkpt lat="43.15201" lon="5.79099">
        <ele>137.3359375</ele>
        <time>2020-11-29T10:43:58Z</time>
      </trkpt>
      <trkpt lat="43.15204" lon="5.79056">
        <ele>131.875</ele>
        <time>2020-11-29T10:44:08Z</time>
      </trkpt>
      <trkpt lat="43.15204" lon="5.79034">
        <ele>128.73828125</ele>
        <time>2020-11-29T10:44:13Z</time>
      </trkpt>
      <trkpt lat="43.15202" lon="5.79031">
        <ele>127.8125</ele>
        <time>2020-11-29T10:44:14Z</time>
      </trkpt>
      <trkpt lat="43.15201" lon="5.79026">
        <ele>126.91796875</ele>
        <time>2020-11-29T10:44:15Z</time>
      </trkpt>
      <trkpt lat="43.15201" lon="5.79021">
        <ele>126.0703125</ele>
        <time>2020-11-29T10:44:16Z</time>
      </trkpt>
      <trkpt lat="43.152" lon="5.79016">
        <ele>125.2578125</ele>
        <time>2020-11-29T10:44:17Z</time>
      </trkpt>
      <trkpt lat="43.152" lon="5.79011">
        <ele>124.51171875</ele>
        <time>2020-11-29T10:44:18Z</time>
      </trkpt>
      <trkpt lat="43.152" lon="5.78974">
        <ele>119.984375</ele>
        <time>2020-11-29T10:44:26Z</time>
      </trkpt>
      <trkpt lat="43.152" lon="5.78973">
        <ele>119.8828125</ele>
        <time>2020-11-29T10:44:27Z</time>
      </trkpt>
      <trkpt lat="43.15199" lon="5.7897">
        <ele>119.203125</ele>
        <time>2020-11-29T10:44:44Z</time>
      </trkpt>
      <trkpt lat="43.15199" lon="5.78966">
        <ele>118.63671875</ele>
        <time>2020-11-29T10:45:16Z</time>
      </trkpt>
      <trkpt lat="43.15199" lon="5.78964">
        <ele>118.5078125</ele>
        <time>2020-11-29T10:45:44Z</time>
      </trkpt>
      <trkpt lat="43.15199" lon="5.78965">
        <ele>118.625</ele>
        <time>2020-11-29T10:46:13Z</time>
      </trkpt>
      <trkpt lat="43.15198" lon="5.78964">
        <ele>118.125</ele>
        <time>2020-11-29T10:46:34Z</time>
      </trkpt>
      <trkpt lat="43.15196" lon="5.78939">
        <ele>114.3828125</ele>
        <time>2020-11-29T10:46:43Z</time>
      </trkpt>
      <trkpt lat="43.15197" lon="5.78933">
        <ele>113.734375</ele>
        <time>2020-11-29T10:46:44Z</time>
      </trkpt>
      <trkpt lat="43.15198" lon="5.78923">
        <ele>112.6171875</ele>
        <time>2020-11-29T10:46:46Z</time>
      </trkpt>
      <trkpt lat="43.15193" lon="5.78912">
        <ele>110.17578125</ele>
        <time>2020-11-29T10:46:50Z</time>
      </trkpt>
      <trkpt lat="43.1519" lon="5.7891">
        <ele>109.53515625</ele>
        <time>2020-11-29T10:46:51Z</time>
      </trkpt>
      <trkpt lat="43.15176" lon="5.78908">
        <ele>107.0703125</ele>
        <time>2020-11-29T10:46:56Z</time>
      </trkpt>
      <trkpt lat="43.15172" lon="5.78905">
        <ele>106.5625</ele>
        <time>2020-11-29T10:46:57Z</time>
      </trkpt>
      <trkpt lat="43.1517" lon="5.78903">
        <ele>106.09765625</ele>
        <time>2020-11-29T10:46:58Z</time>
      </trkpt>
      <trkpt lat="43.15167" lon="5.789">
        <ele>105.66796875</ele>
        <time>2020-11-29T10:46:59Z</time>
      </trkpt>
      <trkpt lat="43.15164" lon="5.78898">
        <ele>105.21875</ele>
        <time>2020-11-29T10:47:00Z</time>
      </trkpt>
      <trkpt lat="43.15162" lon="5.78896">
        <ele>104.8359375</ele>
        <time>2020-11-29T10:47:01Z</time>
      </trkpt>
      <trkpt lat="43.15159" lon="5.78895">
        <ele>104.58203125</ele>
        <time>2020-11-29T10:47:02Z</time>
      </trkpt>
      <trkpt lat="43.15156" lon="5.78895">
        <ele>104.3515625</ele>
        <time>2020-11-29T10:47:03Z</time>
      </trkpt>
      <trkpt lat="43.15111" lon="5.789">
        <ele>103.3125</ele>
        <time>2020-11-29T10:47:14Z</time>
      </trkpt>
      <trkpt lat="43.15095" lon="5.78902">
        <ele>103.4609375</ele>
        <time>2020-11-29T10:47:19Z</time>
      </trkpt>
      <trkpt lat="43.15094" lon="5.78899">
        <ele>103.234375</ele>
        <time>2020-11-29T10:47:20Z</time>
      </trkpt>
      <trkpt lat="43.15093" lon="5.78897">
        <ele>102.9921875</ele>
        <time>2020-11-29T10:47:21Z</time>
      </trkpt>
      <trkpt lat="43.15091" lon="5.78894">
        <ele>102.83984375</ele>
        <time>2020-11-29T10:47:22Z</time>
      </trkpt>
      <trkpt lat="43.1509" lon="5.78891">
        <ele>102.6484375</ele>
        <time>2020-11-29T10:47:23Z</time>
      </trkpt>
      <trkpt lat="43.15087" lon="5.78884">
        <ele>102.16796875</ele>
        <time>2020-11-29T10:47:26Z</time>
      </trkpt>
      <trkpt lat="43.1509" lon="5.78853">
        <ele>99.8671875</ele>
        <time>2020-11-29T10:47:35Z</time>
      </trkpt>
      <trkpt lat="43.15091" lon="5.7884">
        <ele>99.01953125</ele>
        <time>2020-11-29T10:47:38Z</time>
      </trkpt>
      <trkpt lat="43.15093" lon="5.78824">
        <ele>98.3359375</ele>
        <time>2020-11-29T10:47:42Z</time>
      </trkpt>
      <trkpt lat="43.15095" lon="5.78818">
        <ele>98.0390625</ele>
        <time>2020-11-29T10:47:43Z</time>
      </trkpt>
      <trkpt lat="43.15096" lon="5.78804">
        <ele>97.078125</ele>
        <time>2020-11-29T10:47:45Z</time>
      </trkpt>
      <trkpt lat="43.151" lon="5.78741">
        <ele>93.03125</ele>
        <time>2020-11-29T10:47:53Z</time>
      </trkpt>
      <trkpt lat="43.15104" lon="5.78697">
        <ele>91.28125</ele>
        <time>2020-11-29T10:47:58Z</time>
      </trkpt>
      <trkpt lat="43.15104" lon="5.7866">
        <ele>89.45703125</ele>
        <time>2020-11-29T10:48:02Z</time>
      </trkpt>
      <trkpt lat="43.15104" lon="5.78643">
        <ele>88.74609375</ele>
        <time>2020-11-29T10:48:04Z</time>
      </trkpt>
      <trkpt lat="43.15099" lon="5.78612">
        <ele>86.91796875</ele>
        <time>2020-11-29T10:48:08Z</time>
      </trkpt>
      <trkpt lat="43.15072" lon="5.78549">
        <ele>84.578125</ele>
        <time>2020-11-29T10:48:17Z</time>
      </trkpt>
      <trkpt lat="43.1507" lon="5.78542">
        <ele>84.3515625</ele>
        <time>2020-11-29T10:48:18Z</time>
      </trkpt>
      <trkpt lat="43.15069" lon="5.78536">
        <ele>84.11328125</ele>
        <time>2020-11-29T10:48:19Z</time>
      </trkpt>
      <trkpt lat="43.15068" lon="5.7853">
        <ele>83.84375</ele>
        <time>2020-11-29T10:48:20Z</time>
      </trkpt>
      <trkpt lat="43.15067" lon="5.78523">
        <ele>83.578125</ele>
        <time>2020-11-29T10:48:21Z</time>
      </trkpt>
      <trkpt lat="43.15066" lon="5.78515">
        <ele>83.28125</ele>
        <time>2020-11-29T10:48:22Z</time>
      </trkpt>
      <trkpt lat="43.15066" lon="5.78507">
        <ele>82.90625</ele>
        <time>2020-11-29T10:48:23Z</time>
      </trkpt>
      <trkpt lat="43.15059" lon="5.7845">
        <ele>79.88671875</ele>
        <time>2020-11-29T10:48:29Z</time>
      </trkpt>
      <trkpt lat="43.15057" lon="5.78399">
        <ele>78.05078125</ele>
        <time>2020-11-29T10:48:34Z</time>
      </trkpt>
      <trkpt lat="43.15057" lon="5.78389">
        <ele>77.609375</ele>
        <time>2020-11-29T10:48:35Z</time>
      </trkpt>
      <trkpt lat="43.15055" lon="5.7835">
        <ele>75.47265625</ele>
        <time>2020-11-29T10:48:39Z</time>
      </trkpt>
      <trkpt lat="43.15054" lon="5.7834">
        <ele>74.875</ele>
        <time>2020-11-29T10:48:40Z</time>
      </trkpt>
      <trkpt lat="43.15053" lon="5.78332">
        <ele>74.24609375</ele>
        <time>2020-11-29T10:48:41Z</time>
      </trkpt>
      <trkpt lat="43.15049" lon="5.78315">
        <ele>73.05078125</ele>
        <time>2020-11-29T10:48:43Z</time>
      </trkpt>
      <trkpt lat="43.15048" lon="5.78306">
        <ele>72.53515625</ele>
        <time>2020-11-29T10:48:44Z</time>
      </trkpt>
      <trkpt lat="43.15047" lon="5.78298">
        <ele>72.0078125</ele>
        <time>2020-11-29T10:48:45Z</time>
      </trkpt>
      <trkpt lat="43.15047" lon="5.78289">
        <ele>71.48828125</ele>
        <time>2020-11-29T10:48:46Z</time>
      </trkpt>
      <trkpt lat="43.15047" lon="5.78271">
        <ele>70.80078125</ele>
        <time>2020-11-29T10:48:48Z</time>
      </trkpt>
      <trkpt lat="43.15046" lon="5.78253">
        <ele>70.10546875</ele>
        <time>2020-11-29T10:48:50Z</time>
      </trkpt>
      <trkpt lat="43.15045" lon="5.78244">
        <ele>69.7265625</ele>
        <time>2020-11-29T10:48:51Z</time>
      </trkpt>
      <trkpt lat="43.15042" lon="5.78236">
        <ele>69.32421875</ele>
        <time>2020-11-29T10:48:52Z</time>
      </trkpt>
      <trkpt lat="43.15038" lon="5.78228">
        <ele>69.01953125</ele>
        <time>2020-11-29T10:48:53Z</time>
      </trkpt>
      <trkpt lat="43.15034" lon="5.78221">
        <ele>68.7109375</ele>
        <time>2020-11-29T10:48:54Z</time>
      </trkpt>
      <trkpt lat="43.15013" lon="5.78177">
        <ele>65.359375</ele>
        <time>2020-11-29T10:49:01Z</time>
      </trkpt>
      <trkpt lat="43.15004" lon="5.78159">
        <ele>64.0078125</ele>
        <time>2020-11-29T10:49:04Z</time>
      </trkpt>
      <trkpt lat="43.15001" lon="5.78152">
        <ele>63.55859375</ele>
        <time>2020-11-29T10:49:05Z</time>
      </trkpt>
      <trkpt lat="43.14999" lon="5.78145">
        <ele>63.12890625</ele>
        <time>2020-11-29T10:49:06Z</time>
      </trkpt>
      <trkpt lat="43.14998" lon="5.78136">
        <ele>62.71875</ele>
        <time>2020-11-29T10:49:07Z</time>
      </trkpt>
      <trkpt lat="43.14997" lon="5.78128">
        <ele>62.3359375</ele>
        <time>2020-11-29T10:49:08Z</time>
      </trkpt>
      <trkpt lat="43.14992" lon="5.7809">
        <ele>61.66796875</ele>
        <time>2020-11-29T10:49:12Z</time>
      </trkpt>
      <trkpt lat="43.14987" lon="5.78063">
        <ele>60.32421875</ele>
        <time>2020-11-29T10:49:15Z</time>
      </trkpt>
      <trkpt lat="43.14984" lon="5.78055">
        <ele>60.109375</ele>
        <time>2020-11-29T10:49:16Z</time>
      </trkpt>
      <trkpt lat="43.1498" lon="5.78049">
        <ele>60</ele>
        <time>2020-11-29T10:49:17Z</time>
      </trkpt>
      <trkpt lat="43.14972" lon="5.78038">
        <ele>60</ele>
        <time>2020-11-29T10:49:19Z</time>
      </trkpt>
      <trkpt lat="43.14968" lon="5.78031">
        <ele>60.00390625</ele>
        <time>2020-11-29T10:49:20Z</time>
      </trkpt>
      <trkpt lat="43.14966" lon="5.78025">
        <ele>59.93359375</ele>
        <time>2020-11-29T10:49:21Z</time>
      </trkpt>
      <trkpt lat="43.14964" lon="5.78018">
        <ele>59.82421875</ele>
        <time>2020-11-29T10:49:22Z</time>
      </trkpt>
      <trkpt lat="43.14964" lon="5.78012">
        <ele>59.7109375</ele>
        <time>2020-11-29T10:49:23Z</time>
      </trkpt>
      <trkpt lat="43.14964" lon="5.78005">
        <ele>59.54296875</ele>
        <time>2020-11-29T10:49:24Z</time>
      </trkpt>
      <trkpt lat="43.14965" lon="5.77998">
        <ele>59.359375</ele>
        <time>2020-11-29T10:49:25Z</time>
      </trkpt>
      <trkpt lat="43.14975" lon="5.77924">
        <ele>57.2109375</ele>
        <time>2020-11-29T10:49:35Z</time>
      </trkpt>
      <trkpt lat="43.14975" lon="5.77917">
        <ele>57</ele>
        <time>2020-11-29T10:49:36Z</time>
      </trkpt>
      <trkpt lat="43.14974" lon="5.7791">
        <ele>56.69140625</ele>
        <time>2020-11-29T10:49:37Z</time>
      </trkpt>
      <trkpt lat="43.14971" lon="5.77903">
        <ele>56.328125</ele>
        <time>2020-11-29T10:49:38Z</time>
      </trkpt>
      <trkpt lat="43.14968" lon="5.77896">
        <ele>56.03125</ele>
        <time>2020-11-29T10:49:39Z</time>
      </trkpt>
      <trkpt lat="43.14965" lon="5.7789">
        <ele>55.88671875</ele>
        <time>2020-11-29T10:49:40Z</time>
      </trkpt>
      <trkpt lat="43.14958" lon="5.77877">
        <ele>55.36328125</ele>
        <time>2020-11-29T10:49:42Z</time>
      </trkpt>
      <trkpt lat="43.14954" lon="5.77871">
        <ele>55</ele>
        <time>2020-11-29T10:49:43Z</time>
      </trkpt>
      <trkpt lat="43.14951" lon="5.77865">
        <ele>54.93359375</ele>
        <time>2020-11-29T10:49:44Z</time>
      </trkpt>
      <trkpt lat="43.14929" lon="5.77828">
        <ele>54.375</ele>
        <time>2020-11-29T10:49:50Z</time>
      </trkpt>
      <trkpt lat="43.14926" lon="5.7782">
        <ele>54.5546875</ele>
        <time>2020-11-29T10:49:51Z</time>
      </trkpt>
      <trkpt lat="43.14925" lon="5.77812">
        <ele>54.88671875</ele>
        <time>2020-11-29T10:49:52Z</time>
      </trkpt>
      <trkpt lat="43.14922" lon="5.77771">
        <ele>56.35546875</ele>
        <time>2020-11-29T10:49:56Z</time>
      </trkpt>
      <trkpt lat="43.14918" lon="5.77751">
        <ele>57.15625</ele>
        <time>2020-11-29T10:49:58Z</time>
      </trkpt>
      <trkpt lat="43.14914" lon="5.77742">
        <ele>57.07421875</ele>
        <time>2020-11-29T10:49:59Z</time>
      </trkpt>
      <trkpt lat="43.14909" lon="5.77735">
        <ele>56.26171875</ele>
        <time>2020-11-29T10:50:00Z</time>
      </trkpt>
      <trkpt lat="43.14902" lon="5.7773">
        <ele>54.92578125</ele>
        <time>2020-11-29T10:50:01Z</time>
      </trkpt>
      <trkpt lat="43.14895" lon="5.77726">
        <ele>54.05078125</ele>
        <time>2020-11-29T10:50:02Z</time>
      </trkpt>
      <trkpt lat="43.14887" lon="5.77724">
        <ele>53.40625</ele>
        <time>2020-11-29T10:50:03Z</time>
      </trkpt>
      <trkpt lat="43.1488" lon="5.77724">
        <ele>52.60546875</ele>
        <time>2020-11-29T10:50:04Z</time>
      </trkpt>
      <trkpt lat="43.14873" lon="5.77726">
        <ele>51.6953125</ele>
        <time>2020-11-29T10:50:05Z</time>
      </trkpt>
      <trkpt lat="43.14867" lon="5.77729">
        <ele>51.0234375</ele>
        <time>2020-11-29T10:50:06Z</time>
      </trkpt>
      <trkpt lat="43.14861" lon="5.77733">
        <ele>50.671875</ele>
        <time>2020-11-29T10:50:07Z</time>
      </trkpt>
      <trkpt lat="43.14854" lon="5.77737">
        <ele>50.6484375</ele>
        <time>2020-11-29T10:50:08Z</time>
      </trkpt>
      <trkpt lat="43.14848" lon="5.7774">
        <ele>50.69921875</ele>
        <time>2020-11-29T10:50:09Z</time>
      </trkpt>
      <trkpt lat="43.14842" lon="5.77742">
        <ele>50.69140625</ele>
        <time>2020-11-29T10:50:10Z</time>
      </trkpt>
      <trkpt lat="43.14836" lon="5.77743">
        <ele>50.2109375</ele>
        <time>2020-11-29T10:50:11Z</time>
      </trkpt>
      <trkpt lat="43.1483" lon="5.77743">
        <ele>49.62890625</ele>
        <time>2020-11-29T10:50:12Z</time>
      </trkpt>
      <trkpt lat="43.14825" lon="5.77741">
        <ele>48.91015625</ele>
        <time>2020-11-29T10:50:13Z</time>
      </trkpt>
      <trkpt lat="43.14819" lon="5.77738">
        <ele>48.07421875</ele>
        <time>2020-11-29T10:50:14Z</time>
      </trkpt>
      <trkpt lat="43.14814" lon="5.77734">
        <ele>47.19921875</ele>
        <time>2020-11-29T10:50:15Z</time>
      </trkpt>
      <trkpt lat="43.1481" lon="5.77728">
        <ele>46.7421875</ele>
        <time>2020-11-29T10:50:16Z</time>
      </trkpt>
      <trkpt lat="43.14806" lon="5.77722">
        <ele>46.4140625</ele>
        <time>2020-11-29T10:50:17Z</time>
      </trkpt>
      <trkpt lat="43.14802" lon="5.77716">
        <ele>45.97265625</ele>
        <time>2020-11-29T10:50:18Z</time>
      </trkpt>
      <trkpt lat="43.14798" lon="5.77709">
        <ele>45.40625</ele>
        <time>2020-11-29T10:50:19Z</time>
      </trkpt>
      <trkpt lat="43.14788" lon="5.77686">
        <ele>44.01171875</ele>
        <time>2020-11-29T10:50:22Z</time>
      </trkpt>
      <trkpt lat="43.14785" lon="5.77677">
        <ele>43.90625</ele>
        <time>2020-11-29T10:50:23Z</time>
      </trkpt>
      <trkpt lat="43.14755" lon="5.77612">
        <ele>44.38671875</ele>
        <time>2020-11-29T10:50:31Z</time>
      </trkpt>
      <trkpt lat="43.1475" lon="5.77606">
        <ele>44.26953125</ele>
        <time>2020-11-29T10:50:32Z</time>
      </trkpt>
      <trkpt lat="43.14743" lon="5.77601">
        <ele>43.8359375</ele>
        <time>2020-11-29T10:50:33Z</time>
      </trkpt>
      <trkpt lat="43.14737" lon="5.77599">
        <ele>43.15234375</ele>
        <time>2020-11-29T10:50:34Z</time>
      </trkpt>
      <trkpt lat="43.1473" lon="5.77597">
        <ele>42.5234375</ele>
        <time>2020-11-29T10:50:35Z</time>
      </trkpt>
      <trkpt lat="43.14723" lon="5.77596">
        <ele>42.16796875</ele>
        <time>2020-11-29T10:50:36Z</time>
      </trkpt>
      <trkpt lat="43.14716" lon="5.77595">
        <ele>41.79296875</ele>
        <time>2020-11-29T10:50:37Z</time>
      </trkpt>
      <trkpt lat="43.14699" lon="5.77591">
        <ele>41.0546875</ele>
        <time>2020-11-29T10:50:40Z</time>
      </trkpt>
      <trkpt lat="43.14695" lon="5.77588">
        <ele>41.1015625</ele>
        <time>2020-11-29T10:50:41Z</time>
      </trkpt>
      <trkpt lat="43.14692" lon="5.77584">
        <ele>41.15625</ele>
        <time>2020-11-29T10:50:42Z</time>
      </trkpt>
      <trkpt lat="43.1469" lon="5.77579">
        <ele>41.2265625</ele>
        <time>2020-11-29T10:50:43Z</time>
      </trkpt>
      <trkpt lat="43.14689" lon="5.77574">
        <ele>41.3125</ele>
        <time>2020-11-29T10:50:44Z</time>
      </trkpt>
      <trkpt lat="43.14689" lon="5.77567">
        <ele>41.40625</ele>
        <time>2020-11-29T10:50:45Z</time>
      </trkpt>
      <trkpt lat="43.14689" lon="5.77561">
        <ele>41.6640625</ele>
        <time>2020-11-29T10:50:46Z</time>
      </trkpt>
      <trkpt lat="43.14689" lon="5.77555">
        <ele>41.9921875</ele>
        <time>2020-11-29T10:50:47Z</time>
      </trkpt>
      <trkpt lat="43.14689" lon="5.77548">
        <ele>42.296875</ele>
        <time>2020-11-29T10:50:48Z</time>
      </trkpt>
      <trkpt lat="43.14688" lon="5.77542">
        <ele>42.5390625</ele>
        <time>2020-11-29T10:50:49Z</time>
      </trkpt>
      <trkpt lat="43.1468" lon="5.77482">
        <ele>43.59765625</ele>
        <time>2020-11-29T10:51:01Z</time>
      </trkpt>
      <trkpt lat="43.14686" lon="5.77456">
        <ele>44.421875</ele>
        <time>2020-11-29T10:51:08Z</time>
      </trkpt>
      <trkpt lat="43.14688" lon="5.77454">
        <ele>44.6015625</ele>
        <time>2020-11-29T10:51:09Z</time>
      </trkpt>
      <trkpt lat="43.147" lon="5.77449">
        <ele>46.18359375</ele>
        <time>2020-11-29T10:51:17Z</time>
      </trkpt>
      <trkpt lat="43.147" lon="5.77447">
        <ele>46.109375</ele>
        <time>2020-11-29T10:51:18Z</time>
      </trkpt>
      <trkpt lat="43.14699" lon="5.77445">
        <ele>45.859375</ele>
        <time>2020-11-29T10:51:19Z</time>
      </trkpt>
      <trkpt lat="43.14696" lon="5.77444">
        <ele>45.40625</ele>
        <time>2020-11-29T10:51:20Z</time>
      </trkpt>
      <trkpt lat="43.14692" lon="5.77444">
        <ele>44.86328125</ele>
        <time>2020-11-29T10:51:21Z</time>
      </trkpt>
      <trkpt lat="43.14688" lon="5.77445">
        <ele>44.29296875</ele>
        <time>2020-11-29T10:51:22Z</time>
      </trkpt>
      <trkpt lat="43.14684" lon="5.77448">
        <ele>43.78125</ele>
        <time>2020-11-29T10:51:23Z</time>
      </trkpt>
      <trkpt lat="43.1468" lon="5.77453">
        <ele>43.484375</ele>
        <time>2020-11-29T10:51:24Z</time>
      </trkpt>
      <trkpt lat="43.14678" lon="5.7746">
        <ele>43.1640625</ele>
        <time>2020-11-29T10:51:25Z</time>
      </trkpt>
      <trkpt lat="43.14676" lon="5.77468">
        <ele>42.85546875</ele>
        <time>2020-11-29T10:51:26Z</time>
      </trkpt>
      <trkpt lat="43.14674" lon="5.77476">
        <ele>42.62890625</ele>
        <time>2020-11-29T10:51:27Z</time>
      </trkpt>
      <trkpt lat="43.14674" lon="5.77485">
        <ele>42.47265625</ele>
        <time>2020-11-29T10:51:28Z</time>
      </trkpt>
      <trkpt lat="43.14675" lon="5.77496">
        <ele>42.25</ele>
        <time>2020-11-29T10:51:29Z</time>
      </trkpt>
      <trkpt lat="43.14677" lon="5.77507">
        <ele>42.0625</ele>
        <time>2020-11-29T10:51:30Z</time>
      </trkpt>
      <trkpt lat="43.14679" lon="5.77519">
        <ele>42.24609375</ele>
        <time>2020-11-29T10:51:31Z</time>
      </trkpt>
      <trkpt lat="43.14686" lon="5.77561">
        <ele>41.51171875</ele>
        <time>2020-11-29T10:51:35Z</time>
      </trkpt>
      <trkpt lat="43.14685" lon="5.77568">
        <ele>41.2734375</ele>
        <time>2020-11-29T10:51:36Z</time>
      </trkpt>
      <trkpt lat="43.14682" lon="5.77573">
        <ele>41.14453125</ele>
        <time>2020-11-29T10:51:37Z</time>
      </trkpt>
      <trkpt lat="43.14678" lon="5.77575">
        <ele>41.0234375</ele>
        <time>2020-11-29T10:51:38Z</time>
      </trkpt>
      <trkpt lat="43.14672" lon="5.77575">
        <ele>40.83984375</ele>
        <time>2020-11-29T10:51:39Z</time>
      </trkpt>
      <trkpt lat="43.14667" lon="5.77573">
        <ele>40.640625</ele>
        <time>2020-11-29T10:51:40Z</time>
      </trkpt>
      <trkpt lat="43.14661" lon="5.77571">
        <ele>40.44921875</ele>
        <time>2020-11-29T10:51:41Z</time>
      </trkpt>
      <trkpt lat="43.14656" lon="5.77568">
        <ele>40.23828125</ele>
        <time>2020-11-29T10:51:42Z</time>
      </trkpt>
      <trkpt lat="43.14611" lon="5.77539">
        <ele>37.71484375</ele>
        <time>2020-11-29T10:51:49Z</time>
      </trkpt>
      <trkpt lat="43.1458" lon="5.77501">
        <ele>34.55859375</ele>
        <time>2020-11-29T10:51:56Z</time>
      </trkpt>
      <trkpt lat="43.14577" lon="5.77495">
        <ele>34.17578125</ele>
        <time>2020-11-29T10:51:57Z</time>
      </trkpt>
      <trkpt lat="43.14573" lon="5.77488">
        <ele>33.69140625</ele>
        <time>2020-11-29T10:51:58Z</time>
      </trkpt>
      <trkpt lat="43.1457" lon="5.7748">
        <ele>33.09375</ele>
        <time>2020-11-29T10:51:59Z</time>
      </trkpt>
      <trkpt lat="43.14567" lon="5.77472">
        <ele>32.3984375</ele>
        <time>2020-11-29T10:52:00Z</time>
      </trkpt>
      <trkpt lat="43.14564" lon="5.77463">
        <ele>31.69140625</ele>
        <time>2020-11-29T10:52:01Z</time>
      </trkpt>
      <trkpt lat="43.14562" lon="5.77454">
        <ele>31.015625</ele>
        <time>2020-11-29T10:52:02Z</time>
      </trkpt>
      <trkpt lat="43.14553" lon="5.77409">
        <ele>28.953125</ele>
        <time>2020-11-29T10:52:06Z</time>
      </trkpt>
      <trkpt lat="43.14545" lon="5.77375">
        <ele>27.65625</ele>
        <time>2020-11-29T10:52:09Z</time>
      </trkpt>
      <trkpt lat="43.14528" lon="5.77296">
        <ele>25</ele>
        <time>2020-11-29T10:52:15Z</time>
      </trkpt>
      <trkpt lat="43.14522" lon="5.77268">
        <ele>23.58203125</ele>
        <time>2020-11-29T10:52:17Z</time>
      </trkpt>
      <trkpt lat="43.14503" lon="5.77209">
        <ele>20.80078125</ele>
        <time>2020-11-29T10:52:22Z</time>
      </trkpt>
      <trkpt lat="43.14499" lon="5.77199">
        <ele>20.515625</ele>
        <time>2020-11-29T10:52:23Z</time>
      </trkpt>
      <trkpt lat="43.14489" lon="5.7718">
        <ele>19.58203125</ele>
        <time>2020-11-29T10:52:25Z</time>
      </trkpt>
      <trkpt lat="43.14479" lon="5.77165">
        <ele>18.8515625</ele>
        <time>2020-11-29T10:52:27Z</time>
      </trkpt>
      <trkpt lat="43.14477" lon="5.7716">
        <ele>18.703125</ele>
        <time>2020-11-29T10:52:28Z</time>
      </trkpt>
      <trkpt lat="43.14477" lon="5.77155">
        <ele>18.65625</ele>
        <time>2020-11-29T10:52:29Z</time>
      </trkpt>
      <trkpt lat="43.14478" lon="5.77151">
        <ele>18.69140625</ele>
        <time>2020-11-29T10:52:30Z</time>
      </trkpt>
      <trkpt lat="43.14479" lon="5.77148">
        <ele>18.75</ele>
        <time>2020-11-29T10:52:31Z</time>
      </trkpt>
      <trkpt lat="43.1448" lon="5.77147">
        <ele>18.8203125</ele>
        <time>2020-11-29T10:52:32Z</time>
      </trkpt>
      <trkpt lat="43.1448" lon="5.77144">
        <ele>18.84765625</ele>
        <time>2020-11-29T10:52:33Z</time>
      </trkpt>
      <trkpt lat="43.1448" lon="5.7714">
        <ele>18.83984375</ele>
        <time>2020-11-29T10:52:34Z</time>
      </trkpt>
      <trkpt lat="43.14479" lon="5.77135">
        <ele>18.81640625</ele>
        <time>2020-11-29T10:52:35Z</time>
      </trkpt>
      <trkpt lat="43.14478" lon="5.77129">
        <ele>18.8046875</ele>
        <time>2020-11-29T10:52:36Z</time>
      </trkpt>
      <trkpt lat="43.14477" lon="5.77123">
        <ele>18.796875</ele>
        <time>2020-11-29T10:52:37Z</time>
      </trkpt>
      <trkpt lat="43.14477" lon="5.77116">
        <ele>18.94140625</ele>
        <time>2020-11-29T10:52:38Z</time>
      </trkpt>
      <trkpt lat="43.14477" lon="5.77109">
        <ele>19.16796875</ele>
        <time>2020-11-29T10:52:39Z</time>
      </trkpt>
      <trkpt lat="43.14477" lon="5.77095">
        <ele>19.53515625</ele>
        <time>2020-11-29T10:52:41Z</time>
      </trkpt>
      <trkpt lat="43.14476" lon="5.77089">
        <ele>19.671875</ele>
        <time>2020-11-29T10:52:42Z</time>
      </trkpt>
      <trkpt lat="43.14475" lon="5.77084">
        <ele>19.8046875</ele>
        <time>2020-11-29T10:52:43Z</time>
      </trkpt>
      <trkpt lat="43.14473" lon="5.77073">
        <ele>20.04296875</ele>
        <time>2020-11-29T10:52:45Z</time>
      </trkpt>
      <trkpt lat="43.14472" lon="5.77068">
        <ele>20.171875</ele>
        <time>2020-11-29T10:52:46Z</time>
      </trkpt>
      <trkpt lat="43.14471" lon="5.77064">
        <ele>20.16796875</ele>
        <time>2020-11-29T10:52:47Z</time>
      </trkpt>
      <trkpt lat="43.1447" lon="5.77059">
        <ele>19.9921875</ele>
        <time>2020-11-29T10:52:48Z</time>
      </trkpt>
      <trkpt lat="43.1447" lon="5.77053">
        <ele>19.90234375</ele>
        <time>2020-11-29T10:52:49Z</time>
      </trkpt>
      <trkpt lat="43.14471" lon="5.77047">
        <ele>19.9375</ele>
        <time>2020-11-29T10:52:50Z</time>
      </trkpt>
      <trkpt lat="43.14473" lon="5.77039">
        <ele>20.015625</ele>
        <time>2020-11-29T10:52:51Z</time>
      </trkpt>
      <trkpt lat="43.14475" lon="5.77031">
        <ele>19.90625</ele>
        <time>2020-11-29T10:52:52Z</time>
      </trkpt>
      <trkpt lat="43.14486" lon="5.76987">
        <ele>17.9765625</ele>
        <time>2020-11-29T10:52:57Z</time>
      </trkpt>
      <trkpt lat="43.14519" lon="5.76865">
        <ele>11.35546875</ele>
        <time>2020-11-29T10:53:10Z</time>
      </trkpt>
      <trkpt lat="43.14525" lon="5.76846">
        <ele>10.71484375</ele>
        <time>2020-11-29T10:53:12Z</time>
      </trkpt>
      <trkpt lat="43.14526" lon="5.76837">
        <ele>10.234375</ele>
        <time>2020-11-29T10:53:13Z</time>
      </trkpt>
      <trkpt lat="43.14528" lon="5.76822">
        <ele>9.3984375</ele>
        <time>2020-11-29T10:53:15Z</time>
      </trkpt>
      <trkpt lat="43.14531" lon="5.76817">
        <ele>9.12109375</ele>
        <time>2020-11-29T10:53:16Z</time>
      </trkpt>
      <trkpt lat="43.14557" lon="5.76776">
        <ele>8.59375</ele>
        <time>2020-11-29T10:53:29Z</time>
      </trkpt>
      <trkpt lat="43.14579" lon="5.76739">
        <ele>9.25390625</ele>
        <time>2020-11-29T10:53:44Z</time>
      </trkpt>
      <trkpt lat="43.14579" lon="5.76735">
        <ele>9.40625</ele>
        <time>2020-11-29T10:53:45Z</time>
      </trkpt>
      <trkpt lat="43.14575" lon="5.7673">
        <ele>9.78515625</ele>
        <time>2020-11-29T10:53:47Z</time>
      </trkpt>
      <trkpt lat="43.14572" lon="5.7673">
        <ele>9.9375</ele>
        <time>2020-11-29T10:53:48Z</time>
      </trkpt>
      <trkpt lat="43.14568" lon="5.7673">
        <ele>10.0625</ele>
        <time>2020-11-29T10:53:49Z</time>
      </trkpt>
      <trkpt lat="43.14561" lon="5.76725">
        <ele>10.5</ele>
        <time>2020-11-29T10:53:52Z</time>
      </trkpt>
      <trkpt lat="43.14571" lon="5.76701">
        <ele>12.05078125</ele>
        <time>2020-11-29T10:54:00Z</time>
      </trkpt>
      <trkpt lat="43.14572" lon="5.76694">
        <ele>12.4140625</ele>
        <time>2020-11-29T10:54:01Z</time>
      </trkpt>
      <trkpt lat="43.14574" lon="5.76681">
        <ele>13.1328125</ele>
        <time>2020-11-29T10:54:03Z</time>
      </trkpt>
      <trkpt lat="43.14575" lon="5.76674">
        <ele>13.3828125</ele>
        <time>2020-11-29T10:54:04Z</time>
      </trkpt>
      <trkpt lat="43.14594" lon="5.76618">
        <ele>12.85546875</ele>
        <time>2020-11-29T10:54:13Z</time>
      </trkpt>
      <trkpt lat="43.14595" lon="5.76611">
        <ele>12.57421875</ele>
        <time>2020-11-29T10:54:14Z</time>
      </trkpt>
      <trkpt lat="43.14594" lon="5.76605">
        <ele>12.39453125</ele>
        <time>2020-11-29T10:54:15Z</time>
      </trkpt>
      <trkpt lat="43.14587" lon="5.76579">
        <ele>13.3515625</ele>
        <time>2020-11-29T10:54:20Z</time>
      </trkpt>
      <trkpt lat="43.14582" lon="5.76568">
        <ele>14.1484375</ele>
        <time>2020-11-29T10:54:22Z</time>
      </trkpt>
      <trkpt lat="43.1458" lon="5.76562">
        <ele>14.4609375</ele>
        <time>2020-11-29T10:54:23Z</time>
      </trkpt>
      <trkpt lat="43.1458" lon="5.76555">
        <ele>14.68359375</ele>
        <time>2020-11-29T10:54:24Z</time>
      </trkpt>
      <trkpt lat="43.1458" lon="5.76548">
        <ele>14.7890625</ele>
        <time>2020-11-29T10:54:25Z</time>
      </trkpt>
      <trkpt lat="43.14581" lon="5.76542">
        <ele>14.78125</ele>
        <time>2020-11-29T10:54:26Z</time>
      </trkpt>
      <trkpt lat="43.14582" lon="5.76536">
        <ele>14.765625</ele>
        <time>2020-11-29T10:54:27Z</time>
      </trkpt>
      <trkpt lat="43.14583" lon="5.7653">
        <ele>14.8515625</ele>
        <time>2020-11-29T10:54:28Z</time>
      </trkpt>
      <trkpt lat="43.14585" lon="5.76524">
        <ele>14.8125</ele>
        <time>2020-11-29T10:54:29Z</time>
      </trkpt>
      <trkpt lat="43.14599" lon="5.76493">
        <ele>14.69140625</ele>
        <time>2020-11-29T10:54:34Z</time>
      </trkpt>
      <trkpt lat="43.14611" lon="5.76477">
        <ele>14.58984375</ele>
        <time>2020-11-29T10:54:37Z</time>
      </trkpt>
      <trkpt lat="43.14623" lon="5.7646">
        <ele>14.49609375</ele>
        <time>2020-11-29T10:54:40Z</time>
      </trkpt>
      <trkpt lat="43.14627" lon="5.76456">
        <ele>14.6640625</ele>
        <time>2020-11-29T10:54:41Z</time>
      </trkpt>
      <trkpt lat="43.14675" lon="5.76425">
        <ele>14.23046875</ele>
        <time>2020-11-29T10:54:51Z</time>
      </trkpt>
      <trkpt lat="43.1468" lon="5.76424">
        <ele>14.0546875</ele>
        <time>2020-11-29T10:54:52Z</time>
      </trkpt>
      <trkpt lat="43.14684" lon="5.76426">
        <ele>13.7890625</ele>
        <time>2020-11-29T10:54:53Z</time>
      </trkpt>
      <trkpt lat="43.1469" lon="5.76436">
        <ele>13.1875</ele>
        <time>2020-11-29T10:54:55Z</time>
      </trkpt>
      <trkpt lat="43.14697" lon="5.76455">
        <ele>12.2734375</ele>
        <time>2020-11-29T10:54:58Z</time>
      </trkpt>
      <trkpt lat="43.14705" lon="5.76474">
        <ele>12</ele>
        <time>2020-11-29T10:55:01Z</time>
      </trkpt>
      <trkpt lat="43.14714" lon="5.76484">
        <ele>12.10546875</ele>
        <time>2020-11-29T10:55:03Z</time>
      </trkpt>
      <trkpt lat="43.14719" lon="5.76487">
        <ele>12.27734375</ele>
        <time>2020-11-29T10:55:04Z</time>
      </trkpt>
      <trkpt lat="43.14724" lon="5.76487">
        <ele>12.3046875</ele>
        <time>2020-11-29T10:55:05Z</time>
      </trkpt>
      <trkpt lat="43.14729" lon="5.76483">
        <ele>12.09375</ele>
        <time>2020-11-29T10:55:06Z</time>
      </trkpt>
      <trkpt lat="43.14735" lon="5.76478">
        <ele>12.0703125</ele>
        <time>2020-11-29T10:55:07Z</time>
      </trkpt>
      <trkpt lat="43.1474" lon="5.76472">
        <ele>12.0859375</ele>
        <time>2020-11-29T10:55:08Z</time>
      </trkpt>
      <trkpt lat="43.14745" lon="5.76467">
        <ele>11.9609375</ele>
        <time>2020-11-29T10:55:09Z</time>
      </trkpt>
      <trkpt lat="43.14757" lon="5.76453">
        <ele>11.1640625</ele>
        <time>2020-11-29T10:55:12Z</time>
      </trkpt>
      <trkpt lat="43.14761" lon="5.7645">
        <ele>11.1328125</ele>
        <time>2020-11-29T10:55:13Z</time>
      </trkpt>
      <trkpt lat="43.14765" lon="5.76449">
        <ele>11.1640625</ele>
        <time>2020-11-29T10:55:14Z</time>
      </trkpt>
      <trkpt lat="43.14769" lon="5.76448">
        <ele>11.1640625</ele>
        <time>2020-11-29T10:55:15Z</time>
      </trkpt>
      <trkpt lat="43.14773" lon="5.76446">
        <ele>11.14453125</ele>
        <time>2020-11-29T10:55:16Z</time>
      </trkpt>
      <trkpt lat="43.14785" lon="5.76445">
        <ele>11.03125</ele>
        <time>2020-11-29T10:55:24Z</time>
      </trkpt>
      <trkpt lat="43.14785" lon="5.76445">
        <ele>11.02734375</ele>
        <time>2020-11-29T10:55:45Z</time>
      </trkpt>
      <trkpt lat="43.14786" lon="5.76445">
        <ele>11.015625</ele>
        <time>2020-11-29T10:56:03Z</time>
      </trkpt>
      <trkpt lat="43.14786" lon="5.76446">
        <ele>11.015625</ele>
        <time>2020-11-29T10:56:22Z</time>
      </trkpt>
      <trkpt lat="43.14787" lon="5.76447">
        <ele>11.01171875</ele>
        <time>2020-11-29T10:56:48Z</time>
      </trkpt>
    </trkseg>
  </trk>
</gpx>